Date StartTime U_cm/s V_cm/s W_cm/s Ustd_cm/s Vstd_cm/s Wstd_cm/s Uvar_(cm/s)^2 Vvar_(cm/s)^2 Wvar_(cm/s)^2 KE_(m/s)^2 TurbulentKE_(m/s)^2 HorizWindSpeed_cm/s FrictionSpeec_cm/s DragCoef SpeedOfSound_m/s SonicTemperature_C Pressure_mb 
11/30/2014  00:00:00       59.837       45.381       -0.738       32.076       29.642       22.484     1028.852      878.628      505.535        0.403        0.121       75.100       15.776        0.044      335.740        6.577      854.109
11/30/2014  00:01:00       30.488       20.780        4.573       27.799       23.765       22.730      772.782      564.789      516.657        0.162        0.093       36.896        6.676        0.033      335.740        6.575      854.121
11/30/2014  00:02:00       17.070        3.947        2.148       17.160       15.901       13.556      294.473      252.837      183.758        0.052        0.037       17.521        8.166        0.217      335.742        6.580      854.153
11/30/2014  00:03:00       22.428      -13.197       -5.481       14.444       13.947        7.213      208.641      194.516       52.022        0.058        0.023       26.022        4.209        0.026      335.780        6.642      854.169
11/30/2014  00:04:00       45.898       -8.936        2.477       15.181       13.840        9.309      230.453      191.533       86.664        0.135        0.025       46.759       10.098        0.047      335.859        6.775      854.171
11/30/2014  00:05:00       22.262      -11.029       15.187       21.085       22.146       20.119      444.580      490.437      404.791        0.109        0.067       24.844       15.356        0.382      335.875        6.800      854.178
11/30/2014  00:06:00       63.466      -68.675       -1.998       34.503       33.087       21.956     1190.470     1094.726      482.051        0.576        0.138       93.510       22.880        0.060      335.884        6.815      854.176
11/30/2014  00:07:00       45.549      -83.162      -12.300       26.205       22.523       14.988      686.688      507.287      224.641        0.528        0.071       94.819       10.610        0.013      335.978        6.972      854.167
11/30/2014  00:08:00        7.187      -33.480       -1.216       24.522       19.982       16.243      601.350      399.297      263.824        0.122        0.063       34.242        8.346        0.059      336.027        7.052      854.169
11/30/2014  00:09:00      -12.072       28.504        0.328       12.672       27.767       14.962      160.568      771.019      223.859        0.106        0.058       30.955       14.857        0.230      335.987        6.985      854.148
11/30/2014  00:10:00      -15.279       33.498       -8.249       22.614       24.586       20.947      511.411      604.473      438.784        0.149        0.078       36.819       22.268        0.366      335.946        6.916      854.115
11/30/2014  00:11:00      -15.369        5.032      -14.505       12.734        9.551        8.172      162.154       91.229       66.775        0.040        0.016       16.172        6.640        0.169      335.892        6.828      854.111
11/30/2014  00:12:00      -35.399        4.715       -1.721       17.968       18.888       19.795      322.849      356.766      391.844        0.117        0.054       35.712       12.401        0.121      335.972        6.960      854.125
11/30/2014  00:13:00      -17.482       -2.767        8.602       26.004       10.854       11.853      676.192      117.813      140.485        0.066        0.047       17.700       14.060        0.631      335.909        6.857      854.114
11/30/2014  00:14:00       45.359       29.070        9.960       13.668       13.653       10.961      186.812      186.402      120.146        0.175        0.025       53.875        6.674        0.015      335.866        6.785      854.082
11/30/2014  00:15:00       25.070       26.162        9.566       13.372       16.060       15.561      178.815      257.916      242.132        0.104        0.034       36.234       11.505        0.101      335.953        6.929      854.034
11/30/2014  00:16:00       58.438       44.760       -4.561       21.499       24.400       13.929      462.221      595.376      194.014        0.335        0.063       73.610       13.948        0.036      335.888        6.822      854.014
11/30/2014  00:17:00        2.019       12.049       -8.544        8.346        7.353        7.463       69.651       54.069       55.695        0.020        0.009       12.217        5.935        0.236      335.873        6.796      854.026
11/30/2014  00:18:00      -18.906      -10.761      -12.670       10.905       13.000        6.027      118.921      168.998       36.320        0.048        0.016       21.754        5.820        0.072      335.932        6.894      854.073
11/30/2014  00:19:00      -63.344      -49.513        4.550       39.200       23.823       21.228     1536.671      567.556      450.643        0.452        0.128       80.399       16.861        0.044      336.030        7.057      854.117
11/30/2014  00:20:00      -31.224      -41.213        4.186       30.621       23.790       20.361      937.636      565.985      414.573        0.230        0.096       51.705       19.991        0.149      336.067        7.119      854.163
11/30/2014  00:21:00      -42.971      -40.739        2.402       20.366       17.786       12.884      414.790      316.341      165.989        0.220        0.045       59.213       11.286        0.036      336.198        7.339      854.185
11/30/2014  00:22:00       -2.762        0.407       16.987       20.432       15.430       10.682      417.455      238.081      114.105        0.053        0.038        2.791       12.322       19.487      336.173        7.296      854.194
11/30/2014  00:23:00       19.716       45.597        7.517       16.172       20.727       19.404      261.541      429.629      376.501        0.180        0.053       49.677       11.253        0.051      336.136        7.235      854.181
11/30/2014  00:24:00       20.481       63.468      -11.104       27.621       25.540       19.540      762.935      652.296      381.813        0.318        0.090       66.691       11.955        0.032      336.262        7.446      854.157
11/30/2014  00:25:00      -56.139       43.944      -14.669       18.473       37.819       17.633      341.253     1430.308      310.936        0.369        0.104       71.293       18.341        0.066      336.474        7.800      854.157
11/30/2014  00:26:00      -75.420      -22.885       -6.829       31.223       29.895       21.480      974.855      893.713      461.379        0.429        0.116       78.816       17.497        0.049      336.297        7.503      854.189
11/30/2014  00:27:00      -36.334       -6.424        3.756       50.989       21.061       21.217     2599.845      443.563      450.156        0.243        0.175       36.898       19.604        0.282      336.282        7.478      854.231
11/30/2014  00:28:00      -36.878      -49.970       10.754       67.625       37.828       31.699     4573.128     1430.931     1004.797        0.549        0.350       62.105       34.731        0.313      336.358        7.606      854.264
11/30/2014  00:29:00      -85.992      -52.726       -4.421       35.123       37.671       21.090     1233.641     1419.108      444.807        0.665        0.155      100.869       18.389        0.033      336.332        7.562      854.261
11/30/2014  00:30:00      -29.365      -12.300       -8.171       17.131       17.405        9.373      293.455      302.922       87.861        0.088        0.034       31.837        6.833        0.046      336.377        7.637      854.233
11/30/2014  00:31:00      -22.017       44.375        0.181       15.572       43.225       19.777      242.472     1868.423      391.125        0.248        0.125       49.537       18.558        0.140      336.448        7.757      854.203
11/30/2014  00:32:00      -43.613       72.723      -12.701       35.908       29.264       16.444     1289.379      856.364      270.398        0.488        0.121       84.798       15.701        0.034      336.682        8.148      854.173
11/30/2014  00:33:00      -76.878      109.576      -22.804       29.051       25.265       19.651      843.985      638.309      386.142        1.015        0.093      133.855       11.683        0.008      336.269        7.458      854.123
11/30/2014  00:34:00      -61.121       68.683      -13.560       32.677       34.526       23.722     1067.777     1192.037      562.713        0.573        0.141       91.940       20.165        0.048      336.312        7.529      854.114
11/30/2014  00:35:00      -61.820      -19.162       -7.541       32.696       28.721       20.357     1069.047      824.909      414.410        0.328        0.115       64.722       18.662        0.083      336.341        7.577      854.144
11/30/2014  00:36:00      -92.166      -43.659        3.079       52.389       37.141       22.756     2744.628     1379.445      517.836        0.753        0.232      101.984       17.221        0.029      336.107        7.186      854.164
11/30/2014  00:37:00     -129.395      -69.540       -2.931       59.719       40.088       26.833     3566.340     1607.041      719.999        1.374        0.295      146.897        9.227        0.004      336.052        7.094      854.147
11/30/2014  00:38:00      -94.095      -44.948       -5.581       79.424       40.334       27.499     6308.154     1626.813      756.183        0.980        0.435      104.279       31.558        0.092      336.064        7.115      854.136
11/30/2014  00:39:00     -112.668      -46.856       -1.928       41.379       36.683       20.804     1712.181     1345.636      432.826        0.919        0.175      122.023       17.659        0.021      336.098        7.172      854.142
11/30/2014  00:40:00     -115.467      -51.233       -2.819       28.478       24.530       21.538      810.987      601.725      463.895        0.892        0.094      126.323       14.470        0.013      336.193        7.330      854.158
11/30/2014  00:41:00     -101.111      -30.717       -3.383       35.298       22.194       16.111     1245.980      492.582      259.551        0.659        0.100      105.674       15.948        0.023      336.154        7.266      854.168
11/30/2014  00:42:00      -39.579      -55.317        5.860       35.582       34.713       23.221     1266.051     1204.974      539.192        0.383        0.151       68.018       21.124        0.096      336.224        7.383      854.181
11/30/2014  00:43:00     -121.407     -100.529      -14.802       26.183       23.730       16.294      685.545      563.123      265.488        1.329        0.076      157.625        9.364        0.004      336.274        7.467      854.195
11/30/2014  00:44:00     -101.357      -81.328       -3.936       37.916       32.224       23.469     1437.630     1038.396      550.779        0.996        0.151      129.952       24.404        0.035      336.345        7.583      854.210
11/30/2014  00:45:00     -122.245      -56.650       -3.107       24.517       23.816       16.151      601.102      567.188      260.853        0.980        0.071      134.733       13.973        0.011      336.423        7.714      854.218
11/30/2014  00:46:00     -123.459      -42.684       -6.269       43.364       30.421       18.787     1880.395      925.428      352.954        1.013        0.158      130.629       22.296        0.029      336.517        7.873      854.232
11/30/2014  00:47:00     -110.385      -45.010       -1.331       35.479       27.315       17.788     1258.791      746.093      316.416        0.827        0.116      119.209       19.744        0.027      336.438        7.740      854.257
11/30/2014  00:48:00     -118.527      -60.037       -1.527       26.019       24.438       14.788      677.013      597.218      218.678        0.957        0.075      132.865       10.693        0.006      336.421        7.711      854.266
11/30/2014  00:49:00      -78.916      -43.332        1.391       37.173       30.607       21.245     1381.856      936.805      451.334        0.544        0.138       90.030       21.395        0.056      336.361        7.611      854.269
11/30/2014  00:50:00     -124.563      -26.581       -5.416       37.826       29.652       20.223     1430.819      879.237      408.952        0.948        0.136      127.368       17.794        0.020      336.190        7.325      854.281
11/30/2014  00:51:00     -105.215      -42.380       -9.477       33.862       30.642       18.793     1146.641      938.939      353.175        0.770        0.122      113.430       11.046        0.009      336.294        7.499      854.292
11/30/2014  00:52:00      -40.635      -79.911       -6.551       27.678       35.059       11.491      766.051     1229.108      132.040        0.510        0.106       89.649        6.534        0.005      336.361        7.610      854.312
11/30/2014  00:53:00      -80.096      -83.786       -5.168       39.641       59.567       25.113     1571.390     3548.285      630.682        0.961        0.288      115.911       26.325        0.052      336.369        7.624      854.310
11/30/2014  00:54:00      -53.811      -61.729      -10.955       50.894       34.951       26.694     2590.170     1221.580      712.551        0.567        0.226       81.891       17.532        0.046      336.423        7.715      854.283
11/30/2014  00:55:00        1.178       -8.523        0.178       12.185       17.927        9.860      148.468      321.379       97.223        0.032        0.028        8.604        7.686        0.798      336.432        7.729      854.251
11/30/2014  00:56:00       20.018       10.865        6.012       17.491       10.966       15.355      305.951      120.244      235.775        0.061        0.033       22.776        9.862        0.187      336.371        7.628      854.231
11/30/2014  00:57:00       19.048       18.453       10.211       14.648       12.106       14.090      214.577      146.544      198.530        0.068        0.028       26.521       10.747        0.164      336.373        7.630      854.230
11/30/2014  00:58:00       -9.032       -8.941       -0.589        9.325        7.238        7.121       86.949       52.395       50.712        0.018        0.010       12.709        6.597        0.269      336.441        7.744      854.229
11/30/2014  00:59:00      -79.863      -36.918        0.082       32.442       26.070       12.275     1052.462      679.642      150.675        0.481        0.094       87.983        6.689        0.006      336.372        7.629      854.241
11/30/2014  01:00:00      -79.026      -44.687        5.469       46.658       27.489       19.960     2176.979      755.625      398.396        0.580        0.167       90.786       22.689        0.062      336.293        7.497      854.269
11/30/2014  01:01:00     -133.248      -71.934        4.521       38.011       28.475       25.521     1444.813      810.811      651.310        1.293        0.145      151.425       24.051        0.025      336.233        7.397      854.281
11/30/2014  01:02:00     -100.851      -62.580       -4.545       43.223       22.090       18.117     1868.240      487.979      328.213        0.840        0.134      118.689       18.829        0.025      336.244        7.415      854.283
11/30/2014  01:03:00      -47.947      -30.071        1.844       44.120       30.893       21.570     1946.592      954.367      465.261        0.329        0.168       56.597       20.553        0.132      336.262        7.446      854.272
11/30/2014  01:04:00      -92.412      -25.168       -9.283       16.336       17.927       11.418      266.850      321.385      130.376        0.499        0.036       95.778        5.897        0.004      336.291        7.497      854.265
11/30/2014  01:05:00     -102.978      -14.058      -12.555       15.667       12.333       12.762      245.464      152.094      162.875        0.576        0.028      103.933        7.159        0.005      336.275        7.468      854.259
11/30/2014  01:06:00      -79.595      -12.824       -8.602       16.454       17.427       13.824      270.725      303.704      191.105        0.367        0.038       80.622        8.068        0.010      336.282        7.480      854.261
11/30/2014  01:07:00      -88.650      -42.397       -6.260       17.380       28.768       10.962      302.082      827.591      120.168        0.547        0.062       98.267        8.682        0.008      336.280        7.474      854.277
11/30/2014  01:08:00      -34.586      -46.648        9.494       28.486       28.669       22.112      811.456      821.902      488.945        0.279        0.106       58.071       13.620        0.055      336.324        7.551      854.298
11/30/2014  01:09:00      -76.045     -105.917       -5.514       38.500       33.729       24.830     1482.256     1137.644      616.522        1.013        0.162      130.389       24.620        0.036      336.335        7.568      854.335
11/30/2014  01:10:00      -69.335      -73.392        0.255       50.781       36.308       31.469     2578.708     1318.238      990.307        0.754        0.244      100.964       28.877        0.082      336.329        7.557      854.362
11/30/2014  01:11:00      -82.605      -74.767       -0.425       42.492       32.548       27.708     1805.599     1059.373      767.712        0.802        0.182      111.417       15.176        0.019      336.357        7.604      854.391
11/30/2014  01:12:00      -72.169      -77.840       -4.065       52.850       40.793       23.593     2793.113     1664.094      556.647        0.815        0.251      106.149       20.387        0.037      336.337        7.570      854.424
11/30/2014  01:13:00      -57.917      -61.059        2.493       50.954       33.730       24.013     2596.268     1137.723      576.643        0.570        0.216       84.158       25.132        0.089      336.324        7.549      854.446
11/30/2014  01:14:00      -78.291      -61.306        2.925       51.134       49.683       27.861     2614.709     2468.376      776.233        0.788        0.293       99.438       30.097        0.092      336.345        7.584      854.467
11/30/2014  01:15:00      -24.028      -44.060        4.270       46.688       40.121       33.040     2179.772     1609.690     1091.672        0.371        0.244       50.186       24.694        0.242      336.383        7.648      854.492
11/30/2014  01:16:00      -17.183      -69.830      -18.031       25.793       37.123       23.923      665.265     1378.098      572.307        0.406        0.131       71.913       14.191        0.039      336.398        7.673      854.510
11/30/2014  01:17:00      -52.144      -28.562        9.726       39.170       36.621       26.696     1534.303     1341.070      712.678        0.361        0.179       59.454       27.439        0.213      336.407        7.686      854.517
11/30/2014  01:18:00      -44.654      -63.794        3.401       31.292       26.727       25.096      979.199      714.308      629.810        0.420        0.116       77.870       17.778        0.052      336.478        7.806      854.516
11/30/2014  01:19:00      -19.014      -40.229       -9.984       31.001       28.539       16.332      961.042      814.474      266.723        0.206        0.102       44.496       13.279        0.089      336.494        7.833      854.504
11/30/2014  01:20:00      -10.000      -22.027        1.395       14.528       19.960       12.123      211.068      398.396      146.966        0.067        0.038       24.191        5.224        0.047      336.497        7.838      854.502
11/30/2014  01:21:00      -24.070      -39.430       -7.662       26.454       31.726       14.962      699.819     1006.556      223.849        0.206        0.097       46.196       11.040        0.057      336.566        7.955      854.513
11/30/2014  01:22:00      -13.065      -37.824       -4.437       25.247       29.603       19.192      637.413      876.367      368.317        0.175        0.094       40.017       18.179        0.206      336.549        7.927      854.544
11/30/2014  01:23:00       35.410      -96.501      -20.657       38.562       36.012       26.555     1487.010     1296.898      705.175        0.724        0.174      102.792       18.693        0.033      336.623        8.049      854.564
11/30/2014  01:24:00       -9.663      -51.556        7.772       27.508       38.291       30.704      756.677     1466.235      942.737        0.299        0.158       52.454       18.917        0.130      336.522        7.882      854.548
11/30/2014  01:25:00        4.635       20.531       41.925       25.308       19.756       16.709      640.494      390.315      279.182        0.176        0.065       21.047        8.858        0.177      336.397        7.671      854.526
11/30/2014  01:26:00       -5.711       56.428       69.321       19.366       28.446       19.464      375.030      809.154      378.861        0.479        0.078       56.717       16.398        0.084      336.368        7.623      854.493
11/30/2014  01:27:00        6.612       24.647       45.665       28.249       32.744       29.189      797.988     1072.202      852.026        0.273        0.136       25.519       27.532        1.164      336.388        7.653      854.472
11/30/2014  01:28:00        7.506       51.631       76.576       32.949       39.035       29.205     1085.639     1523.695      852.953        0.602        0.173       52.173       29.848        0.327      336.455        7.766      854.447
11/30/2014  01:29:00       20.623       39.093       57.166       32.322       40.322       25.668     1044.722     1625.846      658.856        0.427        0.166       44.199       23.626        0.286      336.414        7.700      854.446
11/30/2014  01:30:00       65.775       57.805       41.349       30.648       26.305       28.898      939.272      691.929      835.088        0.592        0.123       87.566       16.065        0.034      336.391        7.661      854.456
11/30/2014  01:31:00       49.744       46.153       25.550       32.907       23.685       18.461     1082.843      560.997      340.809        0.362        0.099       67.857       12.296        0.033      336.265        7.451      854.484
11/30/2014  01:32:00       44.221       29.420        2.098       23.350       21.164       16.710      545.203      447.915      279.232        0.205        0.064       53.113       11.752        0.049      336.159        7.272      854.530
11/30/2014  01:33:00        4.973       43.094       -4.448       20.331       27.660       11.345      413.346      765.069      128.700        0.160        0.065       43.380       10.057        0.054      336.074        7.129      854.565
11/30/2014  01:34:00        1.696       91.618      -19.398       12.806       12.974        8.946      164.000      168.315       80.029        0.459        0.021       91.633        5.256        0.003      335.998        7.005      854.583
11/30/2014  01:35:00       11.015       79.532      -12.673       16.206       13.632        6.957      262.620      185.822       48.404        0.355        0.025       80.291        4.556        0.003      336.014        7.029      854.588
11/30/2014  01:36:00       20.036       68.538      -10.842       23.009       31.379       15.623      529.402      984.670      244.074        0.349        0.088       71.406       17.048        0.057      336.005        7.016      854.587
11/30/2014  01:37:00       11.904       32.397       -0.779       29.497       32.213       14.566      870.046     1037.693      212.154        0.166        0.106       34.515       12.607        0.133      335.971        6.959      854.576
11/30/2014  01:38:00       31.226       20.984        8.721       44.113       21.968       18.350     1945.939      482.615      336.732        0.213        0.138       37.621       11.280        0.090      335.982        6.977      854.556
11/30/2014  01:39:00       33.058       32.489        3.582       30.182       27.153       17.535      910.933      737.301      307.470        0.206        0.098       46.351       16.659        0.129      336.026        7.051      854.538
11/30/2014  01:40:00       50.826       49.510       10.345       21.355       23.602       16.256      456.015      557.076      264.260        0.321        0.064       70.954       13.637        0.037      335.997        7.003      854.533
11/30/2014  01:41:00       58.183       50.420        1.735       29.168       27.120       21.538      850.777      735.483      463.897        0.399        0.103       76.990       13.930        0.033      335.956        6.934      854.517
11/30/2014  01:42:00       87.060       50.298        1.443       30.088       20.323       23.249      905.277      413.007      540.516        0.598        0.093      100.545       14.104        0.020      335.920        6.874      854.518
11/30/2014  01:43:00       71.839       49.591       10.388       35.513       25.556       24.245     1261.163      653.087      587.819        0.511        0.125       87.293       13.649        0.024      335.915        6.866      854.543
11/30/2014  01:44:00       65.067       50.842       14.075       40.882       28.875       23.883     1671.327      833.775      570.408        0.505        0.154       82.575       15.778        0.037      335.922        6.877      854.564
11/30/2014  01:45:00       41.247       48.392       -1.626       23.944       28.086       22.027      573.326      788.819      485.176        0.295        0.092       63.585       19.348        0.093      335.885        6.815      854.578
11/30/2014  01:46:00       29.062       82.417       -7.602       20.512       30.204       20.171      420.727      912.299      406.864        0.472        0.087       87.390       19.884        0.052      335.908        6.855      854.590
11/30/2014  01:47:00        6.137       64.025       -0.515       18.603       31.080       19.863      346.080      965.978      394.537        0.292        0.085       64.318       16.343        0.065      335.933        6.897      854.611
11/30/2014  01:48:00       17.197      107.527      -19.367       15.430       11.591        7.171      238.087      134.348       51.427        0.633        0.021      108.894        4.450        0.002      335.953        6.927      854.636
11/30/2014  01:49:00       -4.487      104.340      -16.870       12.693       11.570        5.508      161.100      133.872       30.338        0.576        0.016      104.437        2.734        0.001      335.965        6.948      854.649
11/30/2014  01:50:00      -11.993       89.478      -13.849       19.901       19.192       12.129      396.046      368.338      147.121        0.463        0.046       90.278        7.108        0.006      336.137        7.235      854.675
11/30/2014  01:51:00      -31.120       45.833       -5.934       24.723       23.318       17.444      611.240      543.736      304.299        0.228        0.073       55.400        9.349        0.028      336.074        7.132      854.704
11/30/2014  01:52:00      -31.342       15.857       -4.270       17.469       23.680       15.956      305.178      560.753      254.588        0.119        0.056       35.125       10.679        0.092      336.121        7.211      854.717
11/30/2014  01:53:00      -16.021        2.137       -2.984       12.230       26.921       13.271      149.584      724.719      176.129        0.066        0.053       16.163       11.455        0.502      336.143        7.248      854.726
11/30/2014  01:54:00      -17.534      -17.912        3.135       20.753       31.536       11.709      430.693      994.545      137.092        0.110        0.078       25.065       12.733        0.258      336.182        7.311      854.750
11/30/2014  01:55:00      -87.284      -30.749       -8.587       29.758       18.961       16.278      885.512      359.511      264.971        0.507        0.075       92.542       16.768        0.033      336.089        7.156      854.764
11/30/2014  01:56:00     -109.338      -19.211      -19.385       29.270       29.986       20.823      856.754      899.180      433.612        0.744        0.109      111.013       17.733        0.026      336.167        7.286      854.778
11/30/2014  01:57:00     -115.844        7.402      -12.212       51.166       35.585       26.898     2617.925     1266.273      723.502        0.911        0.230      116.081       21.307        0.034      336.405        7.685      854.783
11/30/2014  01:58:00     -135.544       14.925      -13.681       54.798       31.269       25.713     3002.817      977.730      661.159        1.171        0.232      136.363       22.301        0.027      336.566        7.954      854.806
11/30/2014  01:59:00     -101.568       20.666      -10.549       55.694       31.265       25.498     3101.790      977.521      650.157        0.779        0.236      103.649       24.964        0.058      336.521        7.879      854.817
11/30/2014  02:00:00     -133.089       42.468      -13.243       38.581       39.098       22.231     1488.470     1528.624      494.229        1.160        0.176      139.700       19.778        0.020      336.274        7.465      854.825
11/30/2014  02:01:00     -106.120       28.481       -8.757       49.239       36.590       24.781     2424.451     1338.854      614.089        0.826        0.219      109.875       19.435        0.031      336.321        7.545      854.835
11/30/2014  02:02:00      -80.061       14.486        1.878       29.711       38.500       20.416      882.764     1482.255      416.812        0.470        0.139       81.361       12.868        0.025      336.227        7.387      854.842
11/30/2014  02:03:00      -87.067       11.133      -12.575       33.057       35.298       17.718     1092.770     1245.963      313.911        0.526        0.133       87.776       12.156        0.019      336.374        7.633      854.840
11/30/2014  02:04:00      -62.656       -9.961      -10.642       45.735       30.346       20.108     2091.726      920.867      404.351        0.378        0.171       63.443       20.977        0.109      336.137        7.236      854.834
11/30/2014  02:05:00      -74.336       16.487        1.639       39.418       34.427       29.663     1553.782     1185.206      879.875        0.471        0.181       76.142       27.552        0.131      336.177        7.302      854.827
11/30/2014  02:06:00     -105.124       60.272      -16.463       33.703       39.243       27.079     1135.863     1540.018      733.264        0.918        0.170      121.177       28.193        0.054      336.282        7.479      854.820
11/30/2014  02:07:00      -93.791       68.776      -10.043       30.186       27.182       24.709      911.199      738.848      610.519        0.794        0.113      116.305       17.383        0.022      336.274        7.466      854.820
11/30/2014  02:08:00     -100.990       68.335      -16.679       37.587       28.457       22.572     1412.799      809.797      509.496        0.894        0.137      121.937       20.665        0.029      336.131        7.226      854.827
11/30/2014  02:09:00      -90.713       42.130       -7.281       29.710       28.039       24.521      882.667      786.200      601.264        0.616        0.114      100.018       20.914        0.044      336.312        7.528      854.838
11/30/2014  02:10:00      -88.510       22.890      -15.525       34.443       39.913       25.390     1186.293     1593.043      644.644        0.601        0.171       91.422       21.067        0.053      336.302        7.513      854.845
11/30/2014  02:11:00     -104.843       15.091      -14.851       28.367       41.560       20.253      804.659     1727.235      410.165        0.719        0.147      105.923       14.160        0.018      336.127        7.219      854.836
11/30/2014  02:12:00     -119.889       -8.169      -10.104       26.907       29.613       20.517      723.978      876.959      420.959        0.828        0.101      120.167       12.551        0.011      336.200        7.342      854.821
11/30/2014  02:13:00      -92.589      -26.012       -6.655       16.130       18.400       14.844      260.183      338.549      220.346        0.506        0.041       96.174        6.622        0.005      336.051        7.091      854.791
11/30/2014  02:14:00      -84.034        2.098       -8.836       18.707       27.870       16.268      349.951      776.747      264.636        0.427        0.070       84.060        9.251        0.012      336.268        7.456      854.763
11/30/2014  02:15:00      -68.142       76.792      -16.393       28.470       32.222       20.235      810.562     1038.237      409.450        0.653        0.113      102.666       14.403        0.020      336.339        7.575      854.727
11/30/2014  02:16:00      -68.928      114.353      -18.251       36.577       45.919       24.760     1337.861     2108.509      613.037        1.111        0.203      133.520       25.824        0.037      336.315        7.535      854.678
11/30/2014  02:17:00      -53.716       78.061      -15.872       31.449       22.775       16.779      989.036      518.697      281.549        0.551        0.089       94.757       13.939        0.022      336.301        7.511      854.651
11/30/2014  02:18:00       -0.880       72.456       -4.633       35.659       31.347       17.271     1271.539      982.649      298.285        0.391        0.128       72.462       15.041        0.043      336.301        7.508      854.640
11/30/2014  02:19:00        6.071       84.029       -1.604       27.533       34.218       22.895      758.084     1170.899      524.179        0.478        0.123       84.248       20.255        0.058      336.275        7.468      854.626
11/30/2014  02:20:00       11.894       77.460      -10.376       24.323       28.514       14.722      591.621      813.060      216.726        0.394        0.081       78.368       12.750        0.026      336.203        7.346      854.588
11/30/2014  02:21:00        4.564       75.972      -15.439       17.083       27.910       11.025      291.812      778.988      121.549        0.361        0.060       76.109       12.467        0.027      336.139        7.240      854.555
11/30/2014  02:22:00      -19.329      113.324      -15.309       19.871       14.690       11.252      394.838      215.806      126.603        0.709        0.037      114.961        6.252        0.003      336.243        7.413      854.535
11/30/2014  02:23:00      -25.583      101.550      -18.502       24.501       37.774       17.350      600.312     1426.889      301.010        0.682        0.116      104.723       14.613        0.019      336.202        7.345      854.548
11/30/2014  02:24:00      -43.491       -7.621       -5.112       25.510       28.673       17.501      650.745      822.126      306.271        0.188        0.089       44.154       18.833        0.182      336.273        7.462      854.583
11/30/2014  02:25:00      -92.507      -35.046      -18.283       23.344       23.363       11.865      544.942      545.831      140.767        0.568        0.062       98.923       10.470        0.011      336.136        7.235      854.624
11/30/2014  02:26:00      -81.489      -55.920       -6.262       33.373       27.504       26.404     1113.788      756.463      697.193        0.619        0.128       98.831        9.962        0.010      336.150        7.258      854.663
11/30/2014  02:27:00      -82.868      -61.641       -0.204       35.027       26.834       25.169     1226.919      720.080      633.463        0.662        0.129      103.279       17.869        0.030      336.166        7.285      854.701
11/30/2014  02:28:00     -104.354      -55.511        1.238       55.724       34.891       23.500     3105.213     1217.397      552.266        0.942        0.244      118.200       23.456        0.039      336.085        7.149      854.741
11/30/2014  02:29:00      -52.631      -54.951        0.397       31.505       29.040       21.185      992.595      843.330      448.819        0.404        0.114       76.090       17.095        0.050      336.045        7.082      854.777
11/30/2014  02:30:00      -41.139      -50.853      -11.675       25.437       22.548       15.850      647.025      508.414      251.221        0.291        0.070       65.410       11.788        0.032      336.018        7.037      854.808
11/30/2014  02:31:00      -23.808      -26.273        5.468       16.366       23.548       11.972      267.843      554.492      143.325        0.113        0.048       35.456       12.986        0.134      336.017        7.035      854.812
11/30/2014  02:32:00      -43.106      -14.522       -3.796        8.152        6.566        4.838       66.462       43.111       23.402        0.111        0.007       45.486        4.315        0.009      336.050        7.091      854.813
11/30/2014  02:33:00      -32.930        0.232       -2.551       10.418        8.468        4.628      108.543       71.710       21.416        0.065        0.010       32.931        2.112        0.004      336.065        7.115      854.820
11/30/2014  02:34:00       11.242       24.470       12.205       22.381       17.311       13.206      500.905      299.682      174.396        0.092        0.049       26.929       13.755        0.261      336.092        7.163      854.760
11/30/2014  02:35:00        7.477       62.763      -12.421       10.853       11.664        6.785      117.794      136.053       46.030        0.222        0.015       63.207        7.894        0.016      336.104        7.179      854.690
11/30/2014  02:36:00       -3.558       66.762      -16.126       15.081       23.069        5.908      227.446      532.176       34.899        0.276        0.040       66.857        5.605        0.007      336.212        7.362      854.681
11/30/2014  02:37:00      -40.331       70.614      -11.828       33.314       19.984       16.032     1109.790      399.375      257.017        0.426        0.088       81.320       10.621        0.017      336.294        7.498      854.655
11/30/2014  02:38:00     -103.042       33.256      -18.028       24.403       44.478       20.988      595.495     1978.299      440.500        0.753        0.151      108.276       15.284        0.020      336.222        7.378      854.629
11/30/2014  02:39:00     -153.235      -25.110      -12.205       55.480       41.361       30.479     3077.981     1710.742      928.986        1.499        0.286      155.279       32.223        0.043      336.285        7.483      854.651
11/30/2014  02:40:00     -171.893      -78.317      -22.570       43.195       36.084       29.597     1865.850     1302.053      875.967        2.012        0.202      188.893       15.410        0.007      336.018        7.036      854.680
11/30/2014  02:41:00     -185.061      -52.606       -9.826       56.042       60.056       34.969     3140.672     3606.764     1222.810        2.254        0.399      192.393       32.495        0.029      335.925        6.881      854.699
11/30/2014  02:42:00     -193.143      -21.018       -4.440       97.161       70.187       51.409     9440.323     4926.166     2642.887        2.738        0.850      194.283       51.739        0.071      335.912        6.858      854.700
11/30/2014  02:43:00     -143.569       -2.083        1.099       80.252       61.149       36.241     6440.454     3739.250     1313.409        1.605        0.575      143.584       33.486        0.054      335.937        6.902      854.678
11/30/2014  02:44:00     -155.377       43.763      -22.780       64.979       40.470       28.922     4222.233     1637.784      836.504        1.663        0.335      161.422       34.714        0.046      335.990        6.991      854.627
11/30/2014  02:45:00      -81.139       58.108       -1.146       53.049       62.606       36.926     2814.226     3919.464     1363.518        0.903        0.405       99.801       37.511        0.141      336.090        7.158      854.586
11/30/2014  02:46:00     -157.992      153.811      -42.936       61.919       54.328       33.022     3833.951     2951.523     1090.451        2.917        0.394      220.498       27.676        0.016      336.151        7.258      854.546
11/30/2014  02:47:00     -161.374      170.090      -40.594       79.709       62.143       41.921     6353.491     3861.740     1757.349        3.429        0.599      234.462       46.973        0.040      336.128        7.219      854.530
11/30/2014  02:48:00     -171.300      161.272      -33.282       73.169       82.735       47.703     5353.677     6845.142     2275.529        3.546        0.724      235.271       45.992        0.038      336.296        7.498      854.509
11/30/2014  02:49:00     -120.856      201.750      -27.030       42.422       63.073       36.995     1799.613     3978.229     1368.615        3.159        0.357      235.179       32.693        0.019      336.323        7.542      854.488
11/30/2014  02:50:00      -87.927      208.493      -23.344       48.738       57.252       30.625     2375.430     3277.822      937.906        2.917        0.330      226.275       27.287        0.015      336.383        7.645      854.488
11/30/2014  02:51:00      -68.514      192.675      -25.884       53.059       46.974       28.172     2815.295     2206.597      793.661        2.415        0.291      204.494       21.894        0.011      336.477        7.803      854.497
11/30/2014  02:52:00      -44.592      156.451      -20.992       54.395       54.533       27.397     2958.790     2973.807      750.609        1.679        0.334      162.681       21.783        0.018      336.548        7.922      854.502
11/30/2014  02:53:00      -63.359       88.030       -3.189       33.981       61.544       27.010     1154.742     3787.614      729.562        0.872        0.284      108.460       27.478        0.064      336.590        7.995      854.507
11/30/2014  02:54:00      -86.785      108.998      -26.506       34.619       54.399       31.408     1198.463     2959.252      986.479        1.263        0.257      139.328       22.287        0.026      336.580        7.977      854.509
11/30/2014  02:55:00      -49.650        7.644       -3.919       34.081       27.719       18.204     1161.515      768.332      331.382        0.240        0.113       50.235       13.418        0.071      336.546        7.921      854.521
11/30/2014  02:56:00      -54.492      -27.187       -8.505       44.611       19.622       17.021     1990.124      385.028      289.722        0.322        0.133       60.898       21.038        0.119      336.448        7.755      854.528
11/30/2014  02:57:00      -67.663      -25.394       -6.992       24.538       22.317       13.638      602.104      498.051      185.993        0.328        0.064       72.272       11.852        0.027      336.405        7.686      854.494
11/30/2014  02:58:00      -92.403      -30.202      -12.296       27.947       15.959        9.493      781.046      254.684       90.116        0.536        0.056       97.214        6.493        0.004      336.422        7.712      854.447
11/30/2014  02:59:00     -106.013      -40.415       -8.433       49.081       29.194       23.946     2408.945      852.279      573.420        0.839        0.192      113.455       22.167        0.038      336.311        7.527      854.416
11/30/2014  03:00:00     -156.253      -24.482      -14.286       40.679       39.647       22.731     1654.762     1571.881      516.676        1.448        0.187      158.160       22.980        0.021      336.181        7.310      854.422
11/30/2014  03:01:00     -128.817       20.415      -19.992       46.038       26.131       25.276     2119.515      682.818      638.890        1.043        0.172      130.424       27.363        0.044      336.332        7.564      854.438
11/30/2014  03:02:00      -56.170       75.657      -22.131       40.493       22.848       18.492     1639.672      522.036      341.954        0.594        0.125       94.229       12.605        0.018      336.761        8.282      854.435
11/30/2014  03:03:00      -64.031      166.791      -16.522       42.296       62.720       31.785     1788.944     3933.850     1010.305        1.946        0.337      178.659       32.112        0.032      336.873        8.464      854.434
11/30/2014  03:04:00      -27.160      160.760      -19.996       36.164       32.216       23.056     1307.845     1037.853      531.563        1.493        0.144      163.038       12.151        0.006      337.000        8.679      854.394
11/30/2014  03:05:00      -13.785       89.132       -6.283       19.914       51.022       18.506      396.566     2603.275      342.484        0.576        0.167       90.192       19.585        0.047      337.053        8.768      854.344
11/30/2014  03:06:00      -29.767       99.093       -3.807       29.851       36.707       25.392      891.067     1347.390      644.732        0.680        0.144      103.467       22.675        0.048      336.856        8.438      854.321
11/30/2014  03:07:00       25.489       43.090       -1.266       27.217       37.007       21.867      740.759     1369.505      478.148        0.255        0.129       50.064       19.886        0.158      336.622        8.048      854.316
11/30/2014  03:08:00       24.033       25.791        2.573       33.849       18.134       13.559     1145.751      328.827      183.855        0.145        0.083       35.253       11.526        0.107      336.521        7.880      854.301
11/30/2014  03:09:00       40.592       41.338        5.511       39.166       23.362       17.439     1534.002      545.800      304.110        0.288        0.119       57.936        9.366        0.026      336.463        7.781      854.262
11/30/2014  03:10:00      115.462       62.691       -0.654       34.930       31.195       28.568     1220.076      973.116      816.124        1.014        0.150      131.384       17.100        0.017      336.449        7.757      854.264
11/30/2014  03:11:00      107.994       77.985       24.461       37.039       28.192       38.911     1371.874      794.813     1514.084        1.101        0.184      133.208       22.100        0.028      336.443        7.747      854.289
11/30/2014  03:12:00       70.092       78.845       89.604       57.346       51.323       41.361     3288.587     2634.101     1710.705        1.339        0.382      105.496       28.609        0.074      336.356        7.602      854.311
11/30/2014  03:13:00       99.239       84.134       81.910       70.081       67.333       54.254     4911.311     4533.774     2943.522        1.801        0.619      130.103       46.892        0.130      336.314        7.532      854.305
11/30/2014  03:14:00      121.277       89.013       84.743       67.065       56.154       52.035     4497.754     3153.230     2707.656        2.008        0.518      150.437       33.577        0.050      336.218        7.371      854.286
11/30/2014  03:15:00       81.990       71.905       87.508       61.171       66.134       43.292     3741.942     4373.641     1874.180        1.477        0.499      109.054       42.868        0.155      336.209        7.355      854.294
11/30/2014  03:16:00       54.092       53.560       75.181       54.258       61.782       48.500     2943.981     3816.984     2352.218        1.028        0.456       76.123       50.665        0.443      336.202        7.345      854.331
11/30/2014  03:17:00       44.833       16.550       62.545       40.111       44.783       34.948     1608.889     2005.536     1221.358        0.551        0.242       47.790       32.399        0.460      336.187        7.320      854.355
11/30/2014  03:18:00       62.646       41.566       50.701       46.709       60.767       48.634     2181.753     3692.633     2365.261        0.823        0.412       75.181       46.103        0.376      336.147        7.252      854.365
11/30/2014  03:19:00      118.528       62.900       52.760       79.581       64.706       37.478     6333.172     4186.863     1404.601        1.635        0.596      134.183       34.921        0.068      336.116        7.199      854.337
11/30/2014  03:20:00      117.740       57.158       35.263       65.507       50.886       42.581     4291.180     2589.394     1813.150        1.353        0.435      130.881       26.016        0.040      336.046        7.085      854.330
11/30/2014  03:21:00       61.515       31.469       29.555       46.802       31.182       22.129     2190.401      972.302      489.685        0.465        0.183       69.096       12.308        0.032      336.051        7.094      854.346
11/30/2014  03:22:00       78.387       68.039        9.718       56.494       40.835       33.530     3191.627     1667.531     1124.266        0.842        0.299      103.797       31.237        0.091      336.177        7.303      854.357
11/30/2014  03:23:00       34.422       76.682       -8.171       42.136       35.995       24.568     1775.462     1295.653      603.583        0.540        0.184       84.054       22.882        0.074      336.251        7.428      854.355
11/30/2014  03:24:00       34.355       46.679       -3.965       25.042       32.445       21.175      627.122     1052.685      448.395        0.275        0.106       57.958       20.007        0.119      336.270        7.457      854.333
11/30/2014  03:25:00       59.759       63.590        9.523       36.624       27.607       32.177     1341.300      762.156     1035.338        0.542        0.157       87.263       24.655        0.080      336.242        7.413      854.299
11/30/2014  03:26:00       76.515       51.244        5.887       38.898       30.868       23.466     1513.064      952.831      550.661        0.577        0.151       92.089       16.569        0.032      336.224        7.380      854.293
11/30/2014  03:27:00       54.983       22.378        8.935       37.760       20.539       22.563     1425.807      421.865      509.097        0.298        0.118       59.362       17.775        0.090      336.240        7.407      854.294
11/30/2014  03:28:00      105.816       64.731       10.094       41.769       32.569       23.119     1744.690     1060.717      534.469        0.941        0.167      124.044       11.737        0.009      336.332        7.561      854.293
11/30/2014  03:29:00       65.353       48.678        4.531       40.262       19.852       18.196     1621.002      394.122      331.102        0.450        0.117       81.490       14.433        0.031      336.320        7.542      854.252
11/30/2014  03:30:00       30.931       65.789       -5.830       34.205       29.414       20.422     1170.012      865.162      417.039        0.389        0.123       72.697       22.438        0.095      336.301        7.511      854.218
11/30/2014  03:31:00       10.777       59.107       -1.712       18.462       28.354       14.968      340.850      803.946      224.032        0.249        0.068       60.082       14.436        0.058      336.294        7.498      854.187
11/30/2014  03:32:00       -0.536       37.316       -6.276       10.499       20.506        8.593      110.221      420.515       73.832        0.102        0.030       37.320       10.122        0.074      336.304        7.518      854.182
11/30/2014  03:33:00      -26.206       14.006       -7.876       26.758       30.526       14.866      715.969      931.816      221.000        0.141        0.093       29.714       15.187        0.261      336.480        7.811      854.188
11/30/2014  03:34:00      -29.982       18.625       -5.414       28.433       26.825       19.699      808.438      719.573      388.068        0.160        0.096       35.296       14.094        0.159      336.479        7.809      854.192
11/30/2014  03:35:00      -22.170       68.709      -11.774       40.490       29.980       26.110     1639.417      898.828      681.719        0.428        0.161       72.197       21.212        0.086      336.440        7.744      854.198
11/30/2014  03:36:00       24.127       96.336       -5.679       32.513       32.641       23.952     1057.088     1065.446      573.716        0.630        0.135       99.311       17.530        0.031      336.426        7.720      854.217
11/30/2014  03:37:00       15.717       92.088      -13.358       23.947       28.468       15.870      573.477      810.430      251.843        0.527        0.082       93.419       15.402        0.027      336.400        7.676      854.213
11/30/2014  03:38:00       17.726       93.867      -21.146       19.562       16.520        9.364      382.678      272.897       87.691        0.516        0.037       95.526        7.100        0.006      336.485        7.818      854.200
11/30/2014  03:39:00       12.270      101.463      -12.821       22.619       42.296       21.693      511.641     1788.970      470.586        0.669        0.139      102.202       26.565        0.068      336.597        8.006      854.190
11/30/2014  03:40:00       27.697       94.199      -14.624       25.687       36.889       17.771      659.833     1360.794      315.809        0.609        0.117       98.187       16.005        0.027      336.609        8.026      854.209
11/30/2014  03:41:00       49.519       95.117       -0.880       42.187       63.298       34.827     1779.758     4006.591     1212.940        0.925        0.350      107.235       38.848        0.131      336.697        8.173      854.214
11/30/2014  03:42:00       84.080       53.570       10.933       28.011       23.193       18.358      784.640      537.899      337.019        0.586        0.083       99.696        9.356        0.009      336.655        8.103      854.209
11/30/2014  03:43:00       37.315       73.108       65.342       52.316       32.287       38.088     2736.943     1042.436     1450.726        0.812        0.262       82.081       38.624        0.221      336.503        7.847      854.225
11/30/2014  03:44:00        9.226      -10.078       60.144       40.381       97.090       51.177     1630.610     9426.372     2619.135        0.874        0.684       13.664       67.213       24.198      336.480        7.808      854.269
11/30/2014  03:45:00      129.689     -169.616      -52.094       50.336       47.016       23.156     2533.763     2210.549      536.179        2.679        0.264      213.515       18.667        0.008      336.404        7.677      854.313
11/30/2014  03:46:00       52.272     -105.977      -23.328       73.949       83.060       57.624     5468.511     6898.954     3320.492        1.509        0.784      118.167       43.261        0.134      336.272        7.462      854.354
11/30/2014  03:47:00       16.575      -35.042        5.046       65.974       56.169       33.538     4352.612     3154.973     1124.811        0.508        0.432       38.765       32.369        0.697      336.255        7.433      854.385
11/30/2014  03:48:00      -32.525      -35.529       11.683       53.675       46.809       32.157     2880.992     2191.044     1034.095        0.428        0.305       48.169       28.090        0.340      336.384        7.648      854.396
11/30/2014  03:49:00       -6.369      -19.063       16.658       25.671       25.127       15.245      658.984      631.376      232.422        0.110        0.076       20.099       14.733        0.537      336.337        7.570      854.381
11/30/2014  03:50:00       14.589       22.961       35.978       24.383       25.524       16.047      594.531      651.497      257.490        0.177        0.075       27.204       13.040        0.230      336.318        7.540      854.337
11/30/2014  03:51:00       10.485       58.451       69.908       36.287       49.526       27.094     1316.750     2452.784      734.060        0.646        0.225       59.384       22.153        0.139      336.350        7.593      854.285
11/30/2014  03:52:00       76.912      -85.677        5.110       64.626      103.935       62.884     4176.457    10802.527     3954.348        1.610        0.947      115.135       75.113        0.426      336.256        7.433      854.276
11/30/2014  03:53:00      133.336     -149.160      -24.010       59.812       51.468       33.124     3577.515     2648.905     1097.175        2.396        0.366      200.068       32.302        0.026      336.151        7.257      854.298
11/30/2014  03:54:00       70.822     -124.613      -20.783       56.081       50.807       37.994     3145.130     2581.383     1443.544        1.407        0.359      143.332       36.042        0.063      336.197        7.336      854.365
11/30/2014  03:55:00       42.054      -92.645      -11.688       39.509       58.277       39.103     1560.965     3396.201     1529.052        0.849        0.324      101.743       33.722        0.110      336.187        7.320      854.416
11/30/2014  03:56:00       -0.754        1.440       22.555       18.545       23.723       11.752      343.919      562.798      138.105        0.078        0.052        1.626       11.202       47.484      336.148        7.256      854.431
11/30/2014  03:57:00       14.172       43.684       35.167       22.738       20.230       25.435      517.017      409.260      646.929        0.246        0.079       45.926       15.122        0.108      336.083        7.146      854.400
11/30/2014  03:58:00        4.642       21.651       26.298       19.100       13.737       15.345      364.824      188.704      235.475        0.099        0.039       22.143       13.706        0.383      336.072        7.127      854.372
11/30/2014  03:59:00       34.560       59.352        2.436       20.699       28.648       20.391      428.466      820.682      415.790        0.319        0.083       68.681       16.367        0.057      336.068        7.120      854.338
11/30/2014  04:00:00       72.939       68.835       14.931       32.798       20.984       19.769     1075.727      440.340      390.829        0.609        0.095      100.292       12.109        0.015      336.036        7.070      854.299
11/30/2014  04:01:00      104.667       70.778       32.197       48.697       31.151       30.813     2371.395      970.407      949.443        1.065        0.215      126.351       19.704        0.024      336.023        7.046      854.254
11/30/2014  04:02:00       57.354       67.039       42.063       41.097       38.414       30.500     1688.999     1475.673      930.279        0.682        0.205       88.225       20.225        0.053      336.010        7.022      854.231
11/30/2014  04:03:00       11.607       26.064       56.784       35.695       38.953       26.651     1274.100     1517.363      710.297        0.377        0.175       28.532       28.514        0.999      336.027        7.052      854.263
11/30/2014  04:04:00       54.369       48.212       45.056       37.084       30.592       27.633     1375.254      935.895      763.595        0.519        0.154       72.666       15.745        0.047      335.929        6.891      854.279
11/30/2014  04:05:00       64.293       56.110       40.299       41.150       29.742       29.272     1693.311      884.591      856.826        0.617        0.172       85.334       15.970        0.035      335.942        6.910      854.240
11/30/2014  04:06:00      105.331       48.622        9.126       40.130       35.484       32.601     1610.385     1259.094     1062.795        0.874        0.197      116.011        8.598        0.005      335.908        6.853      854.172
11/30/2014  04:07:00       71.909       27.513        4.194       44.459       39.725       21.331     1976.613     1578.093      454.998        0.498        0.200       76.992       13.440        0.030      335.883        6.812      854.138
11/30/2014  04:08:00       12.366       18.065        5.989       32.553       21.794       17.710     1059.726      474.966      313.655        0.118        0.092       21.892       13.233        0.365      335.901        6.842      854.160
11/30/2014  04:09:00       21.208       47.488       -6.789       16.818       25.721       12.382      282.852      661.568      153.313        0.192        0.055       52.008        8.884        0.029      335.939        6.908      854.176
11/30/2014  04:10:00       -4.176       98.117       -9.197       20.168       33.604       26.880      406.758     1129.198      722.525        0.599        0.113       98.206       23.640        0.058      336.042        7.078      854.119
11/30/2014  04:11:00       11.789      155.524      -24.363       30.985       44.308       16.652      960.078     1963.178      277.280        1.406        0.160      155.970       20.666        0.018      336.018        7.037      854.044
11/30/2014  04:12:00       11.861      237.122      -37.485       22.316       32.911       19.006      498.015     1083.144      361.244        2.986        0.097      237.418       18.653        0.006      335.946        6.913      854.006
11/30/2014  04:13:00        0.576      235.431      -37.552       47.354       44.322       25.459     2242.392     1964.456      648.172        3.085        0.243      235.432       23.284        0.010      335.996        6.997      853.993
11/30/2014  04:14:00      -31.503      282.845      -38.081       59.938       71.802       34.055     3592.512     5155.536     1159.754        4.617        0.495      284.594       28.231        0.010      336.126        7.214      853.978
11/30/2014  04:15:00       22.018      371.822      -53.773       81.459       76.322       46.987     6635.604     5825.063     2207.781        7.815        0.733      372.473       44.321        0.014      336.258        7.437      853.959
11/30/2014  04:16:00      -25.698      349.891      -45.568       78.591       87.526       38.312     6176.583     7660.745     1467.826        7.023        0.765      350.833       40.459        0.013      336.253        7.428      853.931
11/30/2014  04:17:00       51.798      269.746      -19.672       91.060      146.614       80.861     8291.986    21495.650     6538.563        5.607        1.816      274.674       83.459        0.092      336.255        7.430      853.916
11/30/2014  04:18:00      -13.227      165.767       -9.902       58.061       89.374       55.753     3371.036     7987.654     3108.367        2.111        0.723      166.294       58.774        0.125      336.272        7.461      853.921
11/30/2014  04:19:00      -46.208      241.284      -34.414       70.548       73.317       40.972     4977.029     5375.443     1678.716        3.678        0.602      245.669       38.052        0.024      336.380        7.638      853.911
11/30/2014  04:20:00      -41.043      275.139      -21.971       97.488      117.111       49.689     9503.982    13715.066     2469.042        5.177        1.284      278.184       56.400        0.041      336.299        7.505      853.902
11/30/2014  04:21:00      -58.325      297.022      -43.237       84.539       66.766       41.645     7146.920     4457.634     1734.267        5.341        0.667      302.694       40.335        0.018      336.399        7.670      853.925
11/30/2014  04:22:00      -99.692      162.108      -23.470       64.872       77.850       43.259     4208.340     6060.583     1871.362        2.445        0.607      190.309       40.478        0.045      336.517        7.870      853.961
11/30/2014  04:23:00     -128.952        3.993      -21.831       44.279       52.800       28.280     1960.602     2787.808      799.735        1.133        0.277      129.014       17.151        0.018      336.633        8.067      853.987
11/30/2014  04:24:00     -201.344      -12.726      -19.369       49.797       59.021       35.392     2479.780     3483.425     1252.626        2.414        0.361      201.746       22.703        0.013      336.387        7.651      854.010
11/30/2014  04:25:00     -212.303       10.405      -14.201       48.985       50.418       29.677     2399.528     2541.968      880.734        2.560        0.291      212.558       27.470        0.017      336.194        7.328      854.016
11/30/2014  04:26:00     -222.340       18.524      -23.668       61.580       48.335       29.065     3792.098     2336.287      844.762        2.865        0.349      223.111       25.899        0.013      336.288        7.487      854.006
11/30/2014  04:27:00     -196.578      -18.126      -20.188       57.716       44.456       28.597     3331.089     1976.308      817.774        2.275        0.306      197.412       21.080        0.011      336.181        7.309      853.996
11/30/2014  04:28:00     -131.745       52.636      -23.463       68.244       55.351       41.398     4657.189     3063.701     1713.784        1.505        0.472      141.871       32.906        0.054      336.377        7.638      853.992
11/30/2014  04:29:00     -107.218      102.772      -12.631       70.109       78.584       38.102     4915.203     6175.380     1451.796        1.738        0.627      148.518       36.104        0.059      336.473        7.799      853.970
11/30/2014  04:30:00     -146.419      181.231      -30.962       62.037       63.261       46.489     3848.562     4001.941     2161.215        3.262        0.501      232.987       42.517        0.033      336.514        7.861      853.956
11/30/2014  04:31:00     -113.604      140.386      -33.999       53.097       58.121       34.337     2819.286     3378.032     1179.021        2.057        0.369      180.594       31.805        0.031      336.441        7.740      853.968
11/30/2014  04:32:00     -121.982       81.829      -19.307       46.821       59.890       33.394     2192.204     3586.796     1115.184        1.442        0.345      146.886       33.786        0.053      336.591        7.994      853.988
11/30/2014  04:33:00     -189.844      111.806      -30.316       59.356       73.779       47.945     3523.113     5443.402     2298.677        3.036        0.563      220.321       43.196        0.038      336.452        7.759      854.020
11/30/2014  04:34:00      -75.284      109.691       -4.548       54.629       84.514       37.167     2984.367     7142.597     1381.365        1.461        0.575      133.041       35.822        0.072      336.467        7.787      854.016
11/30/2014  04:35:00     -115.663      201.729      -28.457       50.066       56.993       36.988     2506.636     3248.248     1368.128        3.100        0.356      232.535       33.394        0.021      336.428        7.718      854.004
11/30/2014  04:36:00      -27.544      154.185      -18.907       35.288       34.301       19.507     1245.226     1176.589      380.527        1.385        0.140      156.626        9.407        0.004      336.512        7.864      854.017
11/30/2014  04:37:00       -8.681       82.174        6.899       32.037       35.472       30.916     1026.355     1258.260      955.802        0.506        0.162       82.631       28.162        0.116      336.560        7.943      854.046
11/30/2014  04:38:00       -3.195       58.578       -9.571       42.875       55.852       25.334     1838.267     3119.448      641.837        0.457        0.280       58.665        9.201        0.025      336.565        7.954      854.089
11/30/2014  04:39:00       29.635      -77.393      -16.222       29.787       38.601       18.268      887.286     1490.038      333.725        0.492        0.136       82.873       20.921        0.064      336.505        7.853      854.135
11/30/2014  04:40:00      -21.081      -67.925      -27.515       54.858       38.951       19.666     3009.403     1517.143      386.761        0.536        0.246       71.121       17.935        0.064      336.537        7.906      854.175
11/30/2014  04:41:00      -29.562      -15.181        8.142       40.751       34.395       27.548     1660.626     1183.013      758.915        0.239        0.180       33.233       18.777        0.319      336.542        7.914      854.204
11/30/2014  04:42:00      -67.133      -68.464        8.542       68.387       51.702       28.004     4676.795     2673.138      784.245        0.870        0.407       95.886       29.925        0.097      336.498        7.840      854.241
11/30/2014  04:43:00     -180.135     -137.207       -3.925       56.340       53.209       44.073     3174.186     2831.241     1942.397        2.962        0.397      226.439       36.376        0.026      336.380        7.639      854.288
11/30/2014  04:44:00     -133.422     -152.704       -6.405       72.228       73.252       37.098     5216.954     5365.917     1376.231        2.656        0.598      202.780       36.924        0.033      336.368        7.621      854.334
11/30/2014  04:45:00     -217.182     -132.833       -0.684       95.314       80.282       49.138     9084.833     6445.170     2414.533        4.138        0.897      254.583       41.935        0.027      336.290        7.488      854.332
11/30/2014  04:46:00     -199.108      -79.780       -4.162       76.606      105.087       44.845     5868.446    11043.245     2011.103        3.247        0.946      214.497       43.556        0.041      336.186        7.316      854.291
11/30/2014  04:47:00     -205.392      -35.363        3.553      126.612       69.683       51.400    16030.475     4855.736     2641.939        3.348        1.176      208.415       65.856        0.100      336.130        7.223      854.226
11/30/2014  04:48:00     -287.702      -69.771      -12.399      102.037       89.200       50.832    10411.502     7956.585     2583.943        5.437        1.048      296.041       44.064        0.022      335.985        6.981      854.178
11/30/2014  04:49:00     -260.064      -46.943      -23.053       78.528       80.941       41.433     6166.717     6551.493     1716.704        4.240        0.722      264.267       35.770        0.018      336.065        7.113      854.149
11/30/2014  04:50:00     -123.925       99.588      -20.692       75.262       78.215       35.496     5664.420     6117.559     1259.967        1.937        0.652      158.982       32.107        0.041      336.177        7.303      854.066
11/30/2014  04:51:00      -78.950      118.369      -14.251       39.312       55.792       25.003     1545.448     3112.799      625.134        1.286        0.264      142.282       11.789        0.007      336.213        7.364      853.998
11/30/2014  04:52:00      -55.037        4.534      -14.900       30.088       44.347       18.106      905.293     1966.680      327.833        0.324        0.160       55.223       16.483        0.089      336.195        7.333      853.992
11/30/2014  04:53:00      -76.569      -18.449       -6.277       48.961       49.229       26.585     2397.144     2423.461      706.762        0.588        0.276       78.760       22.808        0.084      336.135        7.231      853.981
11/30/2014  04:54:00     -106.044      -72.880       -4.745       67.224       48.359       29.190     4519.051     2338.621      852.064        1.214        0.385      128.673       20.737        0.026      336.154        7.265      853.961
11/30/2014  04:55:00     -120.240     -120.241        0.338       63.199       49.529       30.895     3994.175     2453.117      954.504        1.816        0.370      170.046       31.282        0.034      336.162        7.277      853.957
11/30/2014  04:56:00      -94.075     -122.887      -10.134       70.379       50.550       26.445     4953.201     2555.299      699.343        1.613        0.410      154.763       29.203        0.036      336.193        7.329      853.946
11/30/2014  04:57:00      -39.296      -98.613       -3.737       40.322       23.634       23.383     1625.850      558.585      546.776        0.701        0.137      106.154       14.859        0.020      336.199        7.340      853.910
11/30/2014  04:58:00       -4.592      -85.250       -3.843       16.484       24.380       13.069      271.711      594.381      170.806        0.417        0.052       85.374       11.927        0.020      336.305        7.518      853.864
11/30/2014  04:59:00      -16.753      -40.228        0.692       28.179       28.243       20.250      794.063      797.652      410.059        0.195        0.100       43.577       23.783        0.298      336.309        7.524      853.825
11/30/2014  05:00:00      -16.230        2.893        3.396       29.036       21.118       18.123      843.073      445.966      328.442        0.095        0.081       16.486       15.019        0.830      336.314        7.530      853.780
11/30/2014  05:01:00        3.818       14.872       -8.482       24.656       19.696       10.931      607.897      387.936      119.496        0.071        0.056       15.355        9.201        0.359      336.293        7.498      853.768
11/30/2014  05:02:00        7.836       79.285      -11.297       20.053       40.537       17.658      402.135     1643.221      311.803        0.442        0.118       79.671       23.457        0.087      336.232        7.397      853.786
11/30/2014  05:03:00       52.073       65.880        7.747       43.489       38.984       29.570     1891.264     1519.749      874.395        0.570        0.214       83.975       26.006        0.096      336.158        7.271      853.804
11/30/2014  05:04:00       98.539       78.479       12.022       48.613       41.028       33.610     2363.206     1683.298     1129.600        1.059        0.259      125.972       31.069        0.061      336.121        7.209      853.779
11/30/2014  05:05:00       91.078       74.527       -0.232       53.053       38.402       21.558     2814.640     1474.735      464.762        0.930        0.238      117.683       12.379        0.011      336.134        7.231      853.726
11/30/2014  05:06:00       75.499       67.089       21.775       46.348       34.712       32.672     2148.103     1204.913     1067.467        0.755        0.221      101.000       16.452        0.027      336.182        7.310      853.677
11/30/2014  05:07:00      100.815       88.574       -0.817       59.998       36.444       42.854     3599.767     1328.160     1836.502        1.239        0.338      134.198       23.132        0.030      336.378        7.638      853.665
11/30/2014  05:08:00      106.380       79.378        9.554       41.237       34.594       31.570     1700.488     1196.757      996.677        1.080        0.195      132.731       16.597        0.016      336.407        7.688      853.686
11/30/2014  05:09:00       84.066       78.627        9.169       44.814       34.724       34.660     2008.253     1205.780     1201.295        0.887        0.221      115.105       20.022        0.030      336.378        7.640      853.736
11/30/2014  05:10:00       65.690       61.174        9.151       33.260       28.936       24.135     1106.225      837.313      582.516        0.533        0.126       89.763       15.913        0.031      336.334        7.566      853.775
11/30/2014  05:11:00      109.936      113.273        3.930       40.983       55.054       45.654     1679.570     3030.973     2084.304        1.586        0.340      157.850       36.158        0.052      336.351        7.594      853.796
11/30/2014  05:12:00      136.121       96.759       16.006       49.797       35.449       33.853     2479.719     1256.630     1146.016        1.651        0.244      167.007       23.135        0.019      336.414        7.698      853.838
11/30/2014  05:13:00       92.995       54.055       18.990       49.941       44.987       30.741     2494.094     2023.824      944.999        0.870        0.273      107.564       20.884        0.038      336.374        7.633      853.898
11/30/2014  05:14:00       75.902       71.452        9.318       35.705       26.190       22.220     1274.881      685.902      493.714        0.670        0.123      104.243       17.943        0.030      336.360        7.609      853.926
11/30/2014  05:15:00       74.647       84.163       -2.777       41.521       44.556       30.327     1723.992     1985.278      919.698        0.865        0.231      112.497       26.164        0.054      336.373        7.630      853.914
11/30/2014  05:16:00       44.247      129.230      -20.046       37.838       59.597       32.452     1431.711     3551.858     1053.156        1.255        0.302      136.595       31.194        0.052      336.496        7.836      853.890
11/30/2014  05:17:00       51.358      145.248      -18.514       42.095       54.124       34.557     1771.956     2929.449     1194.186        1.499        0.295      154.061       33.511        0.047      336.455        7.770      853.902
11/30/2014  05:18:00       -8.631      163.868      -30.893       29.490       21.947       12.739      869.657      481.671      162.273        1.470        0.076      164.095       10.474        0.004      336.398        7.673      853.936
11/30/2014  05:19:00        5.630      166.565      -32.200       20.744       29.002       10.570      430.332      841.101      111.732        1.510        0.069      166.660       12.522        0.006      336.383        7.649      853.952
11/30/2014  05:20:00       16.935      151.306      -28.105       20.803       24.874       10.872      432.781      618.736      118.207        1.257        0.058      152.250       10.418        0.005      336.344        7.583      853.972
11/30/2014  05:21:00       22.166       53.372       -0.019       25.337       43.468       24.302      641.952     1889.471      590.572        0.323        0.156       57.792       24.817        0.184      336.326        7.553      853.980
11/30/2014  05:22:00       15.800       22.767       -6.897       27.671       30.735       18.035      765.657      944.661      325.250        0.143        0.102       27.712       18.673        0.454      336.333        7.563      853.964
11/30/2014  05:23:00       53.506       21.233       -4.832       17.594       21.689       17.380      309.556      470.432      302.065        0.221        0.054       57.565       13.349        0.054      336.328        7.557      853.956
11/30/2014  05:24:00       -4.486       12.195       29.356       21.394       25.751       22.043      457.686      663.105      485.875        0.132        0.080       12.994       21.001        2.612      336.324        7.549      853.961
11/30/2014  05:25:00       12.337       -6.022       20.955       19.400       20.250       16.200      376.351      410.065      262.446        0.084        0.052       13.729        5.959        0.188      336.340        7.576      853.966
11/30/2014  05:26:00        0.326       36.086       54.446       17.667       31.018       23.770      312.129      962.129      565.014        0.305        0.092       36.088       23.539        0.425      336.364        7.616      853.959
11/30/2014  05:27:00       35.582       58.091       59.907       42.316       33.353       31.651     1790.608     1112.441     1001.764        0.607        0.195       68.122       22.151        0.106      336.359        7.606      853.938
11/30/2014  05:28:00       71.598       65.019       46.018       57.865       25.833       33.888     3348.307      667.365     1148.373        0.832        0.258       96.715       39.199        0.164      336.330        7.558      853.923
11/30/2014  05:29:00       78.583       54.806       19.028       29.937       22.980       21.630      896.202      528.091      467.865        0.572        0.095       95.807       10.357        0.012      336.309        7.525      853.914
11/30/2014  05:30:00       74.130       46.983       19.950       49.993       34.644       29.259     2499.329     1200.228      856.087        0.633        0.228       87.765       18.916        0.046      336.380        7.642      853.908
11/30/2014  05:31:00       62.297       63.933       39.867       43.256       22.345       28.738     1871.095      499.277      825.900        0.638        0.160       89.266       21.321        0.057      336.370        7.626      853.893
11/30/2014  05:32:00       80.066       40.084        1.956       26.779       27.555       18.973      717.130      759.300      359.987        0.493        0.092       89.539       13.975        0.024      336.288        7.487      853.901
11/30/2014  05:33:00       56.251       32.948       20.440       21.107       18.583       20.543      445.523      345.343      422.012        0.294        0.061       65.190       13.765        0.045      336.314        7.533      853.921
11/30/2014  05:34:00       33.641       40.750       12.684       20.168       16.712       18.258      406.736      279.275      333.360        0.199        0.051       52.843       12.893        0.060      336.371        7.628      853.971
11/30/2014  05:35:00      -61.206       16.702      -19.224       39.187       43.455       14.418     1535.592     1888.364      207.879        0.401        0.182       63.444       14.341        0.051      336.501        7.845      854.025
11/30/2014  05:36:00      -86.249      -44.928       -2.149       44.021       25.174       28.250     1937.814      633.713      798.040        0.642        0.168       97.249       22.053        0.051      336.418        7.706      854.074
11/30/2014  05:37:00       -5.732     -115.373       -2.989       37.594       37.856       26.214     1413.295     1433.070      687.158        0.844        0.177      115.515       16.143        0.020      336.646        8.088      854.109
11/30/2014  05:38:00      -29.946      -73.473        7.158       63.749       47.101       33.158     4063.908     2218.481     1099.438        0.686        0.369       79.341       30.349        0.146      336.604        8.018      854.121
11/30/2014  05:39:00      -39.355     -158.087      -12.586       49.628       59.462       37.068     2462.908     3535.698     1374.071        1.703        0.369      162.912       17.046        0.011      336.644        8.084      854.115
11/30/2014  05:40:00      -60.986     -178.848      -16.773       59.602       71.094       39.321     3552.442     5054.372     1546.127        2.307        0.508      188.960       29.390        0.024      336.644        8.083      854.101
11/30/2014  05:41:00      -68.882      -72.482       -1.356       48.550       45.228       27.810     2357.101     2045.615      773.401        0.759        0.259       99.992       17.305        0.030      336.593        8.001      854.091
11/30/2014  05:42:00      -37.901       11.300        7.055       52.123       37.200       23.808     2716.842     1383.828      566.815        0.314        0.233       39.549       26.130        0.437      336.681        8.148      854.087
11/30/2014  05:43:00       -6.057       31.761        8.501       33.203       39.911       25.968     1102.472     1592.903      674.347        0.224        0.168       32.333       13.976        0.187      336.605        8.019      854.108
11/30/2014  05:44:00      -21.638       -0.545       17.275       44.751       45.847       26.221     2002.645     2101.904      687.554        0.278        0.240       21.645       27.846        1.655      336.479        7.809      854.146
11/30/2014  05:45:00       -5.512      -40.398        1.188       29.979       29.782       20.269      898.718      886.987      410.844        0.193        0.110       40.772       19.311        0.224      336.495        7.837      854.185
11/30/2014  05:46:00       20.297       -0.516       16.802       36.038       22.621       20.745     1298.705      511.690      430.356        0.147        0.112       20.304        6.355        0.098      336.406        7.687      854.232
11/30/2014  05:47:00      -60.044      -21.534       10.940       50.520       35.384       18.025     2552.317     1252.025      324.886        0.416        0.206       63.789       23.348        0.134      336.298        7.506      854.278
11/30/2014  05:48:00      -45.503      -32.578       10.095       47.947       40.084       25.422     2298.917     1606.717      646.276        0.389        0.228       55.963       20.150        0.130      336.363        7.615      854.316
11/30/2014  05:49:00       -8.075      -35.480       15.066       36.141       61.050       28.857     1306.171     3727.060      832.718        0.371        0.293       36.388       29.474        0.656      336.377        7.639      854.351
11/30/2014  05:50:00      -67.174      -78.084       -0.070       63.183       49.032       33.136     3992.121     2404.101     1098.010        0.905        0.375      103.002       28.848        0.078      336.356        7.603      854.376
11/30/2014  05:51:00      -74.050      -56.971       -0.726       44.803       41.283       30.474     2007.275     1704.277      928.690        0.668        0.232       93.430       24.506        0.069      336.263        7.447      854.387
11/30/2014  05:52:00     -114.692      -76.594       -9.224       38.503       38.591       21.232     1482.456     1489.297      450.810        1.126        0.171      137.916       20.868        0.023      336.157        7.271      854.362
11/30/2014  05:53:00     -132.063      -43.132      -13.629       45.514       25.414       18.583     2071.509      645.867      345.320        1.127        0.153      138.928       24.358        0.031      336.119        7.206      854.325
11/30/2014  05:54:00     -141.672      -42.744      -14.849       24.416       19.219       14.200      596.134      369.359      201.651        1.164        0.058      147.980       11.615        0.006      336.167        7.286      854.310
11/30/2014  05:55:00     -147.612      -23.861      -11.777       29.503       24.678       23.957      870.422      608.983      573.920        1.227        0.103      149.528       19.407        0.017      336.174        7.299      854.319
11/30/2014  05:56:00     -131.009      -29.486       -9.174       29.974       34.010       20.579      898.441     1156.666      423.510        1.030        0.124      134.287       16.437        0.015      336.210        7.359      854.360
11/30/2014  05:57:00     -156.670      -58.458       -4.631       44.603       38.166       24.258     1989.465     1456.624      588.448        1.601        0.202      167.221       21.021        0.016      336.087        7.152      854.406
11/30/2014  05:58:00     -128.749      -47.169       -1.810       51.933       31.927       23.898     2697.018     1019.306      571.108        1.155        0.214      137.118       25.579        0.035      336.045        7.083      854.457
11/30/2014  05:59:00     -116.979      -64.067       -6.787       50.574       39.617       26.180     2557.724     1569.486      685.386        1.132        0.241      133.374       19.484        0.021      336.078        7.137      854.493
11/30/2014  06:00:00     -133.725      -88.301      -19.837       26.383       28.026       17.954      696.062      785.436      322.354        1.394        0.090      160.248        8.935        0.003      336.093        7.163      854.511
11/30/2014  06:01:00      -76.517      -57.049       -6.155       43.175       37.206       20.179     1864.119     1384.321      407.199        0.640        0.183       95.443       16.060        0.028      336.099        7.174      854.496
11/30/2014  06:02:00     -128.845       -0.406      -12.428       26.492       27.430       18.436      701.840      752.425      339.870        0.927        0.090      128.846       10.651        0.007      336.147        7.253      854.476
11/30/2014  06:03:00     -138.709        9.067      -15.119       67.801       32.912       24.526     4596.991     1083.203      601.544        1.292        0.314      139.005       28.181        0.041      336.387        7.655      854.445
11/30/2014  06:04:00     -129.311      -11.932      -10.031       26.147       34.481       20.401      683.652     1188.958      416.202        0.963        0.114      129.860       14.317        0.012      336.285        7.484      854.451
11/30/2014  06:05:00     -101.555      -28.468      -20.611       33.185       28.248       17.257     1101.243      797.976      297.801        0.687        0.110      105.469       12.783        0.015      336.029        7.057      854.475
11/30/2014  06:06:00      -68.391       60.476       -3.682       31.802       38.532       22.705     1011.369     1484.712      515.518        0.568        0.151       91.295       16.119        0.031      336.107        7.186      854.511
11/30/2014  06:07:00      -83.505      -13.048       -2.016       56.400       37.155       28.957     3180.955     1380.461      838.509        0.627        0.270       84.518       31.741        0.141      336.178        7.306      854.543
11/30/2014  06:08:00     -124.804      -13.301        0.117       49.297       42.749       27.648     2430.151     1827.462      764.397        1.039        0.251      125.511       26.107        0.043      335.975        6.965      854.560
11/30/2014  06:09:00     -113.620      -37.483      -21.681       27.477       29.605       19.325      754.972      876.464      373.455        0.839        0.100      119.643       10.787        0.008      335.975        6.966      854.582
11/30/2014  06:10:00      -97.254      -32.393      -24.408       48.604       27.100       17.526     2362.359      734.414      307.172        0.725        0.170      102.507       14.563        0.020      335.997        7.003      854.602
11/30/2014  06:11:00     -114.919      -53.305      -21.047       30.979       28.660       20.484      959.680      821.400      419.613        0.935        0.110      126.680        2.371        0.000      335.983        6.978      854.619
11/30/2014  06:12:00      -94.520      -37.599      -13.677       33.613       41.656       22.871     1129.811     1735.215      523.086        0.696        0.169      101.723       15.388        0.023      336.017        7.036      854.623
11/30/2014  06:13:00     -139.565      -52.130       -5.153       33.755       29.037       21.950     1139.400      843.163      481.791        1.234        0.123      148.983        7.319        0.002      336.049        7.089      854.633
11/30/2014  06:14:00     -104.896      -58.896       -6.456       56.168       35.143       24.849     3154.805     1235.039      617.463        0.976        0.250      120.299       26.106        0.047      335.988        6.986      854.638
11/30/2014  06:15:00      -78.256      -32.371       -4.855       46.795       33.628       22.729     2189.735     1130.842      516.630        0.552        0.192       84.687       27.771        0.108      336.024        7.049      854.641
11/30/2014  06:16:00      -76.226      -20.352        1.323       41.152       24.256       24.410     1693.518      588.330      595.847        0.455        0.144       78.896       18.743        0.056      335.991        6.992      854.631
11/30/2014  06:17:00      -37.351       12.722        3.836       51.932       24.862       21.136     2696.917      618.106      446.734        0.267        0.188       39.458       24.160        0.375      336.180        7.309      854.608
11/30/2014  06:18:00     -111.699       27.902      -10.044       26.533       24.132       20.036      704.006      582.353      401.439        0.752        0.084      115.131       14.053        0.015      336.325        7.551      854.586
11/30/2014  06:19:00      -85.048       17.933      -11.697       47.514       28.802       22.459     2257.609      829.577      504.395        0.564        0.180       86.918       22.190        0.065      336.218        7.372      854.551
11/30/2014  06:20:00      -74.160       27.956       -4.817       48.340       34.939       22.511     2336.733     1220.747      506.723        0.518        0.203       79.254       25.454        0.103      336.160        7.275      854.517
11/30/2014  06:21:00      -68.232       77.867      -20.313       53.748       29.835       20.193     2888.864      890.141      407.744        0.766        0.209      103.531       18.962        0.034      336.200        7.341      854.487
11/30/2014  06:22:00      -94.723      116.254      -23.507       25.717       38.678       20.608      661.368     1495.963      424.700        1.281        0.129      149.958       19.124        0.016      336.187        7.321      854.460
11/30/2014  06:23:00      -97.767       71.227      -17.233       30.301       27.931       20.086      918.179      780.118      403.444        0.851        0.105      120.962       18.037        0.022      336.464        7.783      854.453
11/30/2014  06:24:00      -98.805       33.225      -12.706       25.619       21.960       20.437      656.312      482.231      417.682        0.629        0.078      104.242       15.278        0.021      336.492        7.831      854.460
11/30/2014  06:25:00      -83.025       17.728       -6.329       45.857       34.883       19.624     2102.840     1216.836      385.095        0.548        0.185       84.896       21.553        0.064      336.285        7.483      854.485
11/30/2014  06:26:00      -75.636      -22.213       -8.500       31.481       34.095       18.982      991.025     1162.455      360.319        0.440        0.126       78.830       15.349        0.038      336.238        7.405      854.512
11/30/2014  06:27:00      -46.546       -4.585       -9.660       30.067       38.657       22.583      904.005     1494.368      509.981        0.259        0.145       46.771       23.283        0.248      336.154        7.264      854.544
11/30/2014  06:28:00      -29.128      -23.414       -2.390       22.390       32.752       16.072      501.329     1072.693      258.294        0.162        0.092       37.372       12.742        0.116      336.185        7.316      854.575
11/30/2014  06:29:00      -28.774      -51.067       -4.913       22.143       22.790       10.152      490.332      519.366      103.053        0.229        0.056       58.616        6.481        0.012      336.216        7.370      854.608
11/30/2014  06:30:00      -41.000      -24.302       -4.626       25.004       14.663        9.771      625.207      214.992       95.471        0.161        0.047       47.661        8.010        0.028      336.231        7.391      854.629
11/30/2014  06:31:00      -57.654      -36.622       -9.030       15.111       12.889        8.391      228.338      166.126       70.407        0.261        0.023       68.302        5.283        0.006      336.256        7.436      854.640
11/30/2014  06:32:00      -44.328      -29.098       -0.459       17.329       18.455       12.371      300.290      340.589      153.030        0.180        0.040       53.026        8.610        0.026      336.249        7.425      854.655
11/30/2014  06:33:00      -66.782      -31.877      -12.835       15.386       14.502       11.541      236.742      210.303      133.201        0.311        0.029       74.000        9.904        0.018      336.188        7.320      854.686
11/30/2014  06:34:00      -20.647      -26.389        1.663       19.921       13.051       13.087      396.866      170.341      171.264        0.093        0.037       33.506        4.568        0.019      336.208        7.356      854.715
11/30/2014  06:35:00       -2.425      -49.688        5.326       14.117       36.847       10.186      199.293     1357.689      103.752        0.208        0.083       49.747       13.834        0.077      336.235        7.400      854.751
11/30/2014  06:36:00       -4.069      -46.516       -6.571        8.148       20.065        6.791       66.387      402.611       46.119        0.137        0.026       46.694        3.803        0.007      336.162        7.279      854.766
11/30/2014  06:37:00       -0.470       10.325       -2.480       14.717       16.901        9.496      216.602      285.628       90.178        0.035        0.030       10.335        8.481        0.673      336.169        7.289      854.751
11/30/2014  06:38:00       38.664       27.401       -3.675       17.594       19.679       15.437      309.539      387.268      238.286        0.160        0.047       47.389       10.963        0.054      336.223        7.381      854.715
11/30/2014  06:39:00       42.643       36.419       -2.399       17.303       17.816       14.202      299.400      317.413      201.695        0.198        0.041       56.078        7.663        0.019      336.178        7.306      854.699
11/30/2014  06:40:00       55.086       27.517       17.875       25.698       19.731       20.997      660.394      389.293      440.890        0.280        0.075       61.576       13.474        0.048      336.128        7.219      854.704
11/30/2014  06:41:00       93.589       48.564       17.996       35.377       26.439       24.613     1251.521      699.016      605.799        0.700        0.128      105.439        7.045        0.004      336.073        7.130      854.714
11/30/2014  06:42:00      115.420       36.456       11.307       28.491       28.709       30.543      811.711      824.226      932.901        0.867        0.128      121.040       20.451        0.029      335.988        6.988      854.739
11/30/2014  06:43:00       53.716       17.068        8.684       34.784       24.921       22.623     1209.922      621.060      511.792        0.280        0.117       56.362       16.475        0.085      335.919        6.875      854.773
11/30/2014  06:44:00       78.832       40.360        9.759       24.246       17.757       17.295      587.883      315.295      299.112        0.457        0.060       88.563       10.276        0.013      335.913        6.863      854.789
11/30/2014  06:45:00       63.763       37.895        8.111       22.494       15.174       12.702      505.994      230.253      161.330        0.323        0.045       74.174       12.399        0.028      335.897        6.836      854.803
11/30/2014  06:46:00       52.895       18.805       12.105       18.284       16.507        9.563      334.300      272.496       91.452        0.200        0.035       56.139        5.132        0.008      335.878        6.805      854.849
11/30/2014  06:47:00       31.102       27.432       26.796       17.613       16.243       19.280      310.203      263.835      371.707        0.169        0.047       41.471       13.132        0.100      335.949        6.922      854.884
11/30/2014  06:48:00       46.941        9.867       31.961       18.433       19.959       16.201      339.785      398.363      262.475        0.216        0.050       47.967       10.845        0.051      336.065        7.117      854.891
11/30/2014  06:49:00       45.352       39.640       16.614       18.314       18.876       16.134      335.396      356.286      260.308        0.243        0.048       60.234        9.103        0.023      336.100        7.174      854.834
11/30/2014  06:50:00       67.676       42.348        3.703       18.155       18.863       18.018      329.602      355.797      324.665        0.370        0.051       79.834        6.916        0.008      336.155        7.267      854.771
11/30/2014  06:51:00       89.021       51.208       -0.349       43.022       30.836       26.272     1850.926      950.854      690.202        0.702        0.175      102.699       11.296        0.012      335.998        7.003      854.754
11/30/2014  06:52:00       54.201       47.663       -5.075       24.997       20.781       19.245      624.860      431.867      370.359        0.333        0.071       72.177       10.583        0.021      335.969        6.956      854.818
11/30/2014  06:53:00       49.362       25.805        4.460       33.533       26.784       18.726     1124.480      717.407      350.660        0.266        0.110       55.700       13.153        0.056      335.935        6.900      854.899
11/30/2014  06:54:00       41.500        1.553       14.451       42.570       37.368       28.839     1812.221     1396.379      831.681        0.299        0.202       41.529       26.937        0.421      335.920        6.874      854.971
11/30/2014  06:55:00       77.755      -47.655       -6.021       37.397       29.394       24.538     1398.557      863.988      602.117        0.561        0.143       91.197       18.615        0.042      335.959        6.939      855.014
11/30/2014  06:56:00       32.436       -4.977       25.147       30.913       39.162       30.687      955.597     1533.650      941.672        0.257        0.172       32.815       26.806        0.667      336.000        7.006      855.028
11/30/2014  06:57:00       40.151       43.188       49.594       38.339       45.151       31.779     1469.901     2038.603     1009.877        0.523        0.226       58.969       22.729        0.149      336.012        7.028      855.004
11/30/2014  06:58:00       79.268       54.242       16.707       48.443       35.391       38.729     2346.763     1252.523     1499.960        0.730        0.255       96.050       27.636        0.083      335.984        6.982      854.976
11/30/2014  06:59:00      107.214       58.800       10.765       29.422       22.795       19.147      865.630      519.617      366.622        0.841        0.088      122.280       11.074        0.008      335.936        6.899      854.998
11/30/2014  07:00:00       58.626       40.281       33.075       40.681       32.324       25.206     1654.940     1044.853      635.320        0.474        0.167       71.130       27.377        0.148      335.956        6.934      855.059
11/30/2014  07:01:00       72.164      -33.904        7.385       28.304       47.535       21.701      801.144     2259.621      470.945        0.497        0.177       79.732       27.902        0.122      335.964        6.946      855.118
11/30/2014  07:02:00       72.773      -68.580        2.088       35.529       43.878       28.374     1262.300     1925.260      805.068        0.700        0.200       99.996       29.042        0.084      336.111        7.193      855.166
11/30/2014  07:03:00      -17.879      -13.675       12.568       33.967       21.061       17.511     1153.764      443.548      306.631        0.128        0.095       22.509       16.259        0.522      336.148        7.255      855.193
11/30/2014  07:04:00      -28.614      -43.303        3.235       38.013       30.617       21.761     1445.011      937.382      473.551        0.278        0.143       51.903       19.461        0.141      336.181        7.310      855.218
11/30/2014  07:05:00      -13.877        0.420        3.621       16.902       20.118       17.700      285.690      404.721      313.303        0.060        0.050       13.884        7.526        0.294      336.195        7.333      855.242
11/30/2014  07:06:00       10.343       35.091       36.631       30.815       39.096       36.846      949.561     1528.474     1357.599        0.326        0.192       36.584       24.137        0.435      336.149        7.257      855.232
11/30/2014  07:07:00        4.976       59.099       79.383       33.273       36.185       29.121     1107.072     1309.383      848.029        0.654        0.163       59.308       19.036        0.103      336.062        7.112      855.204
11/30/2014  07:08:00       16.545      -34.671       34.903       32.889       60.838       39.970     1081.693     3701.277     1597.607        0.454        0.319       38.416       44.074        1.316      336.089        7.157      855.170
11/30/2014  07:09:00      -28.464      -45.747       -7.691       58.217       43.901       21.157     3389.261     1927.302      447.619        0.436        0.288       53.879       21.614        0.161      336.154        7.265      855.194
11/30/2014  07:10:00      -76.582      -71.366        1.834       67.607       41.729       37.502     4570.730     1741.337     1406.430        0.934        0.386      104.680       32.458        0.096      336.212        7.362      855.228
11/30/2014  07:11:00     -136.674      -81.568        5.913       54.120       40.020       32.919     2928.963     1601.630     1083.636        1.549        0.281      159.163       31.170        0.038      336.069        7.122      855.217
11/30/2014  07:12:00      -24.022       41.392       -3.077       44.243       30.755       23.445     1957.437      945.860      549.678        0.288        0.173       47.858       14.045        0.086      336.043        7.080      855.151
11/30/2014  07:13:00       82.887       67.303       10.501       35.583       32.930       26.157     1266.163     1084.381      684.187        0.727        0.152      106.771       16.751        0.025      336.053        7.096      855.046
11/30/2014  07:14:00       49.493       64.863       -3.417       53.249       34.518       29.228     2835.503     1191.518      854.252        0.577        0.244       81.589       23.748        0.085      336.034        7.064      855.004
11/30/2014  07:15:00       21.385       36.825       -5.394       33.980       44.197       21.121     1154.618     1953.353      446.091        0.270        0.178       42.584       25.309        0.353      336.042        7.079      855.006
11/30/2014  07:16:00      -48.335       29.339      -13.022       42.109       56.579       22.247     1773.136     3201.237      494.932        0.442        0.273       56.542       26.111        0.213      336.083        7.145      855.037
11/30/2014  07:17:00      -48.177       71.677      -10.245       28.500       30.952       15.490      812.250      958.006      239.932        0.479        0.101       86.363       14.287        0.027      336.148        7.256      855.054
11/30/2014  07:18:00       32.688      129.360      -16.168       27.421       24.412       21.619      751.931      595.931      467.388        0.994        0.091      133.426       18.747        0.020      336.086        7.151      855.068
11/30/2014  07:19:00       56.187      101.900      -14.291       35.652       52.053       31.576     1271.042     2709.564      997.052        0.936        0.249      116.364       29.616        0.065      336.022        7.046      855.096
11/30/2014  07:20:00       23.488      103.550      -17.575       34.301       43.158       25.089     1176.536     1862.575      629.456        0.763        0.183      106.180       20.012        0.036      335.938        6.904      855.165
11/30/2014  07:21:00      -27.246      -16.025       -4.486       44.525       43.678       20.505     1982.435     1907.751      420.446        0.266        0.216       31.610       10.186        0.104      336.034        7.065      855.222
11/30/2014  07:22:00      -14.936      -26.550       11.109       45.655       29.761       20.388     2084.348      885.696      415.651        0.222        0.169       30.462       23.288        0.584      336.110        7.192      855.243
11/30/2014  07:23:00      -37.524      -18.523        5.793       36.545       29.458       22.235     1335.569      867.745      494.394        0.224        0.135       41.847       21.426        0.262      336.174        7.297      855.251
11/30/2014  07:24:00      -62.924       15.882       -7.118       21.816       25.923       18.531      475.953      672.020      343.397        0.288        0.075       64.898        6.556        0.010      336.126        7.219      855.255
11/30/2014  07:25:00      -98.342       21.957      -15.216       27.748       56.860       16.713      769.928     3233.028      279.338        0.733        0.214      100.764       10.162        0.010      336.210        7.358      855.265
11/30/2014  07:26:00     -216.600       29.442      -23.090       83.670       76.162       35.382     7000.735     5800.611     1251.880        3.118        0.703      218.591       34.408        0.025      336.091        7.156      855.276
11/30/2014  07:27:00     -172.459       18.861       -8.124       83.472       49.434       35.745     6967.633     2443.688     1277.717        2.042        0.534      173.487       39.961        0.053      336.164        7.280      855.289
11/30/2014  07:28:00     -170.695       38.680      -18.075       54.702       43.205       26.189     2992.316     1866.679      685.871        1.825        0.277      175.023       16.554        0.009      336.052        7.093      855.295
11/30/2014  07:29:00     -155.527       84.789      -25.786       45.881       33.414       27.926     2105.069     1116.502      779.846        1.802        0.200      177.138       25.755        0.021      335.952        6.927      855.286
11/30/2014  07:30:00     -102.863       70.787      -16.317       45.456       51.278       32.328     2066.288     2629.434     1045.081        1.080        0.287      124.867       24.855        0.040      336.098        7.171      855.271
11/30/2014  07:31:00     -103.001       83.782      -14.911       42.380       35.340       26.369     1796.050     1248.896      695.348        1.079        0.187      132.773       22.255        0.028      336.044        7.081      855.260
11/30/2014  07:32:00     -105.718      117.941      -24.394       25.158       30.681       21.067      632.934      941.342      443.826        1.385        0.101      158.387       12.664        0.006      336.178        7.306      855.261
11/30/2014  07:33:00      -16.470       88.446       -9.228       45.082       24.550       19.555     2032.390      602.717      382.397        0.560        0.151       89.966       14.909        0.027      336.058        7.103      855.280
11/30/2014  07:34:00       17.669       46.144       -2.558       33.559       33.800       21.654     1126.223     1142.410      468.874        0.259        0.137       49.411       17.748        0.129      335.988        6.987      855.306
11/30/2014  07:35:00       22.956       33.468       -6.599       23.371       23.355       19.013      546.207      545.456      361.502        0.157        0.073       40.584       15.797        0.152      336.002        7.010      855.336
11/30/2014  07:36:00       60.244       21.843        2.974       29.874       19.643       16.013      892.429      385.855      256.402        0.282        0.077       64.082       13.421        0.044      335.953        6.929      855.369
11/30/2014  07:37:00       82.109       36.655       10.963       25.392       22.117       22.898      644.764      489.169      524.314        0.493        0.083       89.919       13.086        0.021      335.866        6.785      855.420
11/30/2014  07:38:00       69.176       20.160        6.946       25.032       19.381       23.821      626.583      375.620      567.459        0.340        0.078       72.053       18.856        0.068      335.906        6.851      855.465
11/30/2014  07:39:00       61.357       34.636       14.797       23.032       14.534       20.289      530.481      211.246      411.648        0.317        0.058       70.458       14.536        0.043      335.950        6.922      855.497
11/30/2014  07:40:00       26.683       72.584       44.590       31.260       27.571       35.778      977.175      760.165     1280.066        0.549        0.151       77.333       28.037        0.131      335.949        6.922      855.510
11/30/2014  07:41:00      103.587       57.917       39.799       56.241       34.145       36.014     3163.003     1165.903     1297.032        1.065        0.281      118.679       26.315        0.049      335.940        6.908      855.500
11/30/2014  07:42:00       59.909      102.401       95.133       61.908       39.109       37.982     3832.607     1529.543     1442.599        1.496        0.340      118.638       41.685        0.123      335.886        6.817      855.503
11/30/2014  07:43:00       82.599       57.852       65.053       63.769       50.297       59.241     4066.526     2529.783     3509.534        1.225        0.505      100.843       35.958        0.127      335.803        6.681      855.526
11/30/2014  07:44:00       76.903       36.011       45.172       60.368       52.641       42.510     3644.324     2771.089     1807.134        0.874        0.411       84.917       44.645        0.276      335.811        6.692      855.553
11/30/2014  07:45:00       64.837        5.450       30.418       51.585       33.567       28.265     2661.040     1126.768      798.920        0.487        0.229       65.066       24.969        0.147      335.828        6.721      855.562
11/30/2014  07:46:00       23.842       18.261       -4.587       33.416       33.891       17.949     1116.596     1148.569      322.160        0.175        0.129       30.032       11.466        0.146      335.827        6.718      855.568
11/30/2014  07:47:00       28.864       43.449        1.517       22.824       19.249       19.452      520.927      370.530      378.366        0.200        0.063       52.163       14.110        0.073      335.864        6.782      855.564
11/30/2014  07:48:00       43.390       71.009       -0.688       31.823       25.557       18.893     1012.711      653.138      356.946        0.447        0.101       83.217       15.543        0.035      335.904        6.849      855.560
11/30/2014  07:49:00       47.711       81.464       -6.358       32.680       33.279       28.256     1067.979     1107.508      798.404        0.596        0.149       94.407       19.990        0.045      335.906        6.851      855.558
11/30/2014  07:50:00       45.615       46.862        7.141       38.060       35.105       25.743     1448.571     1232.341      662.683        0.384        0.167       65.397       21.955        0.113      335.921        6.878      855.557
11/30/2014  07:51:00       97.946       61.724        0.022       51.808       32.752       28.976     2684.120     1072.723      839.583        0.900        0.230      115.772       17.267        0.022      335.900        6.844      855.553
11/30/2014  07:52:00      148.598       96.170        5.893       50.622       41.309       28.357     2562.556     1706.459      804.122        1.822        0.254      177.003       20.559        0.013      335.895        6.832      855.538
11/30/2014  07:53:00      136.237       74.238       10.667       43.439       33.103       27.378     1886.966     1095.807      749.562        1.396        0.187      155.151       12.004        0.006      335.897        6.836      855.526
11/30/2014  07:54:00      119.078       65.928       27.602       48.899       54.357       32.060     2391.121     2954.685     1027.842        1.283        0.319      136.110       24.488        0.032      335.913        6.861      855.528
11/30/2014  07:55:00       58.150       43.969       24.120       49.491       36.579       33.341     2449.388     1338.051     1111.633        0.540        0.245       72.902       27.901        0.146      335.933        6.895      855.553
11/30/2014  07:56:00       77.476       40.885       51.759       70.601       35.280       44.941     4984.540     1244.689     2019.727        0.930        0.412       87.602       38.295        0.191      335.964        6.947      855.586
11/30/2014  07:57:00       37.787       36.235       71.768       56.578       56.004       36.169     3201.115     3136.407     1308.165        0.777        0.382       52.353       41.813        0.638      335.983        6.980      855.618
11/30/2014  07:58:00       53.562       11.955       54.078       64.367       73.753       47.432     4143.118     5439.563     2249.802        0.888        0.592       54.879       43.772        0.636      336.013        7.029      855.654
11/30/2014  07:59:00       30.484       42.551       91.449       49.674       61.851       38.028     2467.522     3825.543     1446.151        0.942        0.387       52.344       38.062        0.529      335.994        6.998      855.687
11/30/2014  08:00:00       31.144        4.057       59.089       46.304       61.337       40.735     2144.034     3762.189     1659.356        0.602        0.378       31.408       30.059        0.916      335.942        6.911      855.720
11/30/2014  08:01:00      123.291     -112.221       -4.104       56.784       69.550       46.806     3224.459     4837.150     2190.765        1.903        0.513      166.716       49.060        0.087      335.920        6.874      855.746
11/30/2014  08:02:00      121.065     -115.268       -7.747       55.275       49.256       36.228     3055.283     2426.190     1312.480        1.740        0.340      167.163       34.727        0.043      335.914        6.861      855.763
11/30/2014  08:03:00       56.899       -0.887       73.672       56.203       71.255       48.495     3158.732     5077.252     2351.812        0.962        0.529       56.906       53.121        0.871      335.976        6.968      855.774
11/30/2014  08:04:00       97.281      -15.090       33.400       58.947       70.009       39.671     3474.766     4901.199     1573.752        1.038        0.497       98.444       42.631        0.188      335.977        6.970      855.781
11/30/2014  08:05:00       48.613       53.552       57.887       47.033       39.720       27.817     2212.135     1577.684      773.794        0.657        0.228       72.326       24.528        0.115      335.965        6.947      855.778
11/30/2014  08:06:00       29.619        9.133       29.523       22.165       21.297       20.104      491.265      453.581      404.154        0.159        0.067       30.996       10.358        0.112      335.998        7.004      855.777
11/30/2014  08:07:00       81.313       54.671       15.063       39.684       38.013       25.819     1574.784     1444.983      666.603        0.676        0.184       97.983        8.363        0.007      335.933        6.897      855.782
11/30/2014  08:08:00       67.999       58.651       44.278       27.718       21.795       26.259      768.265      475.036      689.531        0.598        0.097       89.798       20.932        0.054      335.908        6.854      855.797
11/30/2014  08:09:00       50.681       43.137       54.319       35.085       25.686       27.117     1230.980      659.771      735.348        0.500        0.131       66.553       20.661        0.096      335.919        6.872      855.832
11/30/2014  08:10:00       29.580        4.169       21.292       45.356       21.630       19.637     2057.201      467.878      385.626        0.213        0.146       29.872       11.329        0.144      335.953        6.929      855.862
11/30/2014  08:11:00       58.650       26.196       20.966       27.866       16.450       28.254      776.526      270.599      798.265        0.321        0.092       64.235       22.093        0.118      335.921        6.878      855.896
11/30/2014  08:12:00       69.009        5.634       25.375       49.340       30.967       24.644     2434.390      958.981      607.334        0.472        0.200       69.239       21.723        0.098      335.949        6.923      855.929
11/30/2014  08:13:00       63.662       10.648        4.319       48.451       28.355       26.546     2347.500      804.025      704.683        0.402        0.193       64.546       23.673        0.135      335.962        6.944      855.961
11/30/2014  08:14:00       50.861       47.331       23.046       32.498       19.789       25.299     1056.092      391.595      640.062        0.372        0.104       69.477       23.948        0.119      335.994        6.996      855.985
11/30/2014  08:15:00       48.505       55.513       58.455       40.177       37.782       29.571     1614.229     1427.474      874.470        0.638        0.196       73.719       27.749        0.142      335.983        6.980      856.015
11/30/2014  08:16:00       34.613      -15.109       34.890       27.005       58.394       33.354      729.277     3409.901     1112.510        0.395        0.263       37.767       38.032        1.014      336.012        7.028      856.029
11/30/2014  08:17:00       41.187       -4.481       32.601       40.187       49.661       38.501     1614.976     2466.245     1482.298        0.417        0.278       41.430       27.743        0.448      336.029        7.053      856.028
11/30/2014  08:18:00       31.225       32.206       48.704       31.483       29.635       26.684      991.197      878.228      712.031        0.348        0.129       44.858       22.136        0.244      336.001        7.010      856.006
11/30/2014  08:19:00       42.522       30.960       23.832       22.479       18.899       16.750      505.317      357.162      280.571        0.224        0.057       52.599       12.262        0.054      335.946        6.918      855.989
11/30/2014  08:20:00       46.834       22.435       -0.291       30.892       18.432       13.827      954.337      339.721      191.174        0.209        0.074       51.931        7.237        0.019      335.926        6.887      855.976
11/30/2014  08:21:00       27.463       23.596        5.737       12.198       16.005       13.354      148.792      256.149      178.325        0.096        0.029       36.208       12.892        0.127      335.925        6.884      855.964
11/30/2014  08:22:00       10.919       20.679       -1.557       13.029       11.234       10.582      169.762      126.209      111.969        0.048        0.020       23.384        6.729        0.083      335.921        6.878      855.965
11/30/2014  08:23:00        4.719       35.590      -11.841       17.230       12.436        7.549      296.890      154.657       56.989        0.097        0.025       35.901        6.731        0.035      335.899        6.843      855.947
11/30/2014  08:24:00       23.283       19.922        0.168       16.537       12.606        8.258      273.463      158.909       68.201        0.072        0.025       30.643        5.086        0.028      335.902        6.849      855.912
11/30/2014  08:25:00       15.706       66.494       -9.432       16.383       20.177       18.915      268.407      407.093      357.785        0.289        0.052       68.324       16.420        0.058      335.916        6.868      855.862
11/30/2014  08:26:00       18.438       88.604      -13.516       15.693       19.000       10.939      246.283      361.001      119.651        0.455        0.036       90.502        4.713        0.003      335.928        6.887      855.831
11/30/2014  08:27:00       24.288       77.652       -5.990       22.629       33.504       18.838      512.074     1122.543      354.864        0.432        0.099       81.362       21.222        0.068      335.928        6.888      855.822
11/30/2014  08:28:00       23.885       81.724       -6.894       20.201       24.590       19.210      408.076      604.652      369.019        0.434        0.069       85.142       14.131        0.028      335.919        6.874      855.831
11/30/2014  08:29:00       28.335       84.937      -13.115       11.690       19.047       11.970      136.650      362.793      143.282        0.442        0.032       89.539        9.991        0.012      335.929        6.888      855.847
11/30/2014  08:30:00       10.100       37.490       -6.949       12.098       15.241        9.658      146.353      232.290       93.269        0.101        0.024       38.827        4.484        0.013      335.917        6.872      855.889
11/30/2014  08:31:00       -4.859       23.838       -6.302       12.823        8.383        7.055      164.432       70.278       49.778        0.046        0.014       24.329        4.153        0.029      335.913        6.863      855.929
11/30/2014  08:32:00        6.890       36.281       -5.223        7.316        8.748        5.094       53.519       76.524       25.952        0.077        0.008       36.930        5.058        0.019      335.937        6.901      855.963
11/30/2014  08:33:00       21.024       12.292       -3.851       14.543       17.958        9.571      211.500      322.487       91.602        0.062        0.031       24.354       10.235        0.177      335.973        6.962      855.991
11/30/2014  08:34:00       38.570       38.497       22.719       13.572       14.574       18.620      184.205      212.389      346.713        0.211        0.037       54.494       10.514        0.037      336.014        7.031      856.042
11/30/2014  08:35:00        6.986       65.642       75.116       20.307       33.306       16.016      412.374     1109.308      256.506        0.589        0.089       66.013       18.332        0.077      336.046        7.085      856.093
11/30/2014  08:36:00       36.208       47.200       45.953       38.004       27.258       22.439     1444.320      742.992      503.498        0.417        0.135       59.488       18.905        0.101      336.057        7.101      856.125
11/30/2014  08:37:00        5.218       -3.645       27.403       16.317       25.608       15.816      266.244      655.759      250.156        0.098        0.059        6.365       16.323        6.577      336.130        7.224      856.133
11/30/2014  08:38:00       38.579        8.928       15.722       26.557       13.072       15.817      705.290      170.887      250.180        0.147        0.056       39.599       15.037        0.144      336.070        7.124      856.149
11/30/2014  08:39:00       37.792        8.487       -3.371       19.913       21.703       11.050      396.546      471.025      122.097        0.125        0.049       38.733        7.385        0.036      336.075        7.131      856.169
11/30/2014  08:40:00       24.521       31.961        2.114        9.529        6.334        7.248       90.810       40.118       52.531        0.091        0.009       40.284        5.155        0.016      336.103        7.182      856.181
11/30/2014  08:41:00       28.782       43.602        2.502       10.567       20.811       13.044      111.659      433.109      170.134        0.173        0.036       52.245       13.943        0.071      336.085        7.148      856.186
11/30/2014  08:42:00       23.901       92.829      -15.724       19.703       21.306       13.270      388.225      453.935      176.082        0.523        0.051       95.857       10.192        0.011      336.087        7.153      856.176
11/30/2014  08:43:00       67.401       65.504       -0.997       38.805       30.848       24.841     1505.827      951.621      617.076        0.595        0.154       93.988       22.293        0.056      336.095        7.167      856.166
11/30/2014  08:44:00       97.938       75.066       -0.736       32.220       27.552       24.945     1038.123      759.099      622.272        0.882        0.121      123.397       18.914        0.023      336.074        7.128      856.156
11/30/2014  08:45:00       95.313       82.456        8.240       42.514       26.850       30.647     1807.469      720.897      939.247        0.971        0.173      126.030       18.371        0.021      336.076        7.133      856.159
11/30/2014  08:46:00      113.179       65.602       11.764       44.794       36.049       31.175     2006.492     1299.530      971.871        1.076        0.214      130.817       12.911        0.010      336.060        7.107      856.172
11/30/2014  08:47:00       81.752       56.944        8.010       49.970       31.416       23.372     2496.956      986.938      546.251        0.701        0.202       99.629        9.410        0.009      336.067        7.119      856.184
11/30/2014  08:48:00       91.434       60.713       17.637       60.501       38.273       32.199     3660.408     1464.843     1036.806        0.926        0.308      109.756       22.999        0.044      336.055        7.099      856.212
11/30/2014  08:49:00       77.814       47.016       18.139       34.227       29.329       26.342     1171.456      860.197      693.922        0.566        0.136       90.915       19.533        0.046      336.070        7.126      856.257
11/30/2014  08:50:00       52.360       41.520       13.696       32.470       19.992       24.674     1054.295      399.676      608.803        0.336        0.103       66.824       14.318        0.046      336.101        7.175      856.287
11/30/2014  08:51:00       32.821       52.977       -6.855       20.688       13.343       15.779      427.976      178.044      248.964        0.239        0.043       62.320       13.330        0.046      336.059        7.108      856.314
11/30/2014  08:52:00       25.608       45.293       -4.302       10.664       17.072       12.521      113.726      291.446      156.788        0.164        0.028       52.031        8.408        0.026      336.054        7.099      856.337
11/30/2014  08:53:00       26.523       41.311        2.966       15.015       21.151       18.069      225.442      447.374      326.485        0.171        0.050       49.093       15.313        0.097      336.066        7.117      856.345
11/30/2014  08:54:00        6.915       65.230      -11.200       11.907       21.465       10.123      141.776      460.745      102.466        0.257        0.035       65.595       10.119        0.024      336.102        7.179      856.342
11/30/2014  08:55:00       13.721       62.796      -14.921       15.457       13.974        8.247      238.904      195.273       68.014        0.243        0.025       64.277        4.351        0.005      336.120        7.210      856.336
11/30/2014  08:56:00       15.496       92.684      -16.508       11.553       16.817       10.004      133.468      282.796      100.076        0.481        0.026       93.970        7.580        0.007      336.117        7.200      856.342
11/30/2014  08:57:00       20.524       94.333      -12.052       12.608       19.773        9.669      158.973      390.957       93.486        0.505        0.032       96.540        6.394        0.004      336.120        7.209      856.349
11/30/2014  08:58:00       44.832       60.200      -13.947       25.175       26.435       15.735      633.793      698.792      247.576        0.370        0.079       75.060       15.199        0.041      336.184        7.316      856.372
11/30/2014  08:59:00       33.791       75.303      -10.037       18.878       20.470       18.976      356.375      419.022      360.096        0.402        0.057       82.538       14.614        0.031      336.153        7.266      856.401
11/30/2014  09:00:00       46.600       61.758        0.287       26.343       25.289       21.254      693.974      639.531      451.726        0.389        0.089       77.367       18.131        0.055      336.158        7.272      856.414
11/30/2014  09:01:00       33.073      104.081      -18.677       34.135       37.880       19.630     1165.182     1434.919      385.318        0.763        0.149      109.210       20.929        0.037      336.173        7.295      856.417
11/30/2014  09:02:00       21.632       64.070        2.471       27.630       39.345       25.120      763.427     1548.060      631.016        0.376        0.147       67.623       25.324        0.140      336.209        7.357      856.415
11/30/2014  09:03:00       55.829       32.896       -1.651       29.552       51.544       23.266      873.313     2656.790      541.299        0.414        0.204       64.800       13.531        0.044      336.210        7.359      856.414
11/30/2014  09:04:00       69.593       23.172        4.194       35.235       27.160       22.740     1241.489      737.671      517.085        0.395        0.125       73.349       10.495        0.020      336.250        7.425      856.415
11/30/2014  09:05:00       57.906       26.586       -7.601       24.390       16.787       16.263      594.873      281.796      264.496        0.263        0.057       63.717        9.242        0.021      336.286        7.486      856.403
11/30/2014  09:06:00       57.304       59.840       -3.354       43.383       31.228       24.867     1882.090      975.185      618.378        0.518        0.174       82.853       19.593        0.056      336.283        7.481      856.404
11/30/2014  09:07:00       54.707       34.115        0.906       24.942       34.966       24.360      622.118     1222.603      593.396        0.330        0.122       64.472       15.445        0.057      336.262        7.446      856.400
11/30/2014  09:08:00       45.516       29.800       -6.196       49.634       39.536       23.745     2463.556     1563.122      563.809        0.379        0.230       54.403       16.232        0.089      336.307        7.520      856.396
11/30/2014  09:09:00      105.746       52.265       39.655       70.929       63.439       49.993     5030.857     4024.466     2499.275        1.352        0.578      117.957       45.707        0.150      336.337        7.570      856.398
11/30/2014  09:10:00       70.425       64.368       56.614       61.847       43.994       47.325     3825.099     1935.491     2239.667        1.015        0.400       95.409       38.019        0.159      336.455        7.767      856.390
11/30/2014  09:11:00      165.984      126.203       79.095       78.141       64.794       65.870     6105.979     4198.246     4338.860        3.219        0.732      208.514       40.521        0.038      336.357        7.600      856.390
11/30/2014  09:12:00      105.905       83.496       96.195       97.537       79.346       64.545     9513.536     6295.747     4166.019        2.370        0.999      134.861       52.777        0.153      336.406        7.684      856.389
11/30/2014  09:13:00      113.112      101.160       91.140       85.058       58.817       51.455     7234.815     3459.485     2647.664        2.234        0.667      151.749       38.617        0.065      336.433        7.727      856.387
11/30/2014  09:14:00      130.069       99.314       81.937       53.501       44.636       54.147     2862.392     1992.390     2931.859        2.064        0.389      163.650       30.503        0.035      336.464        7.782      856.382
11/30/2014  09:15:00      119.807       96.384       76.888       99.963       70.612       69.386     9992.598     4986.054     4814.378        2.467        0.990      153.765       63.530        0.171      336.496        7.835      856.380
11/30/2014  09:16:00       87.027      115.302      104.721       83.059       51.695       53.572     6898.830     2672.342     2869.909        2.214        0.622      144.459       50.332        0.121      336.512        7.861      856.392
11/30/2014  09:17:00       79.718      103.280      133.706       92.155       89.120       65.307     8492.459     7942.343     4264.970        2.780        1.035      130.467       61.370        0.221      336.507        7.853      856.397
11/30/2014  09:18:00      206.587      121.859      103.143      139.723      106.321      108.940    19522.391    11304.112    11867.837        5.542        2.135      239.850       96.296        0.161      336.405        7.678      856.403
11/30/2014  09:19:00      139.301      153.171      127.732       97.523       73.578       66.756     9510.791     5413.704     4456.317        3.928        0.969      207.042       55.209        0.071      336.427        7.717      856.433
11/30/2014  09:20:00      153.164      120.430       79.298      114.623       81.446       79.587    13138.465     6633.485     6334.149        3.517        1.305      194.840       61.538        0.100      336.428        7.722      856.450
11/30/2014  09:21:00      133.786       66.427       89.487      120.992       85.295       73.846    14638.991     7275.223     5453.293        2.884        1.368      149.370       65.326        0.191      336.435        7.732      856.479
11/30/2014  09:22:00      135.615      121.826      102.232       76.878       69.902       74.324     5910.160     4886.338     5524.054        3.000        0.816      182.299       53.976        0.088      336.479        7.803      856.500
11/30/2014  09:23:00      102.241      110.258      124.065       82.053       74.418       59.683     6732.775     5538.086     3562.062        2.691        0.792      150.366       42.313        0.079      336.478        7.803      856.524
11/30/2014  09:24:00       86.847       68.075       86.090       99.442       79.251       65.760     9888.682     6280.727     4324.387        2.004        1.025      110.348       63.816        0.334      336.527        7.888      856.553
11/30/2014  09:25:00      164.264       75.855       81.670      107.948       79.415       67.754    11652.779     6306.698     4590.565        3.097        1.128      180.933       61.910        0.117      336.441        7.741      856.580
11/30/2014  09:26:00      118.731       83.300       65.605       79.735       64.600       38.211     6357.739     4173.122     1460.049        1.866        0.600      145.038       36.783        0.064      336.511        7.860      856.611
11/30/2014  09:27:00      148.126      103.374       68.298       55.476       39.843       47.016     3077.596     1587.457     2210.516        2.208        0.344      180.631       13.226        0.005      336.528        7.890      856.625
11/30/2014  09:28:00      121.559       71.435       49.937       64.847       40.229       41.157     4205.118     1618.394     1693.908        1.494        0.376      140.995       26.677        0.036      336.551        7.929      856.637
11/30/2014  09:29:00      139.459       95.162       62.868       88.973       67.224       68.719     7916.180     4519.037     4722.282        2.480        0.858      168.833       58.683        0.121      336.479        7.806      856.650
11/30/2014  09:30:00       83.898      132.116      121.571       86.950       68.604       68.789     7560.377     4706.548     4731.925        2.813        0.850      156.504       61.004        0.152      336.477        7.802      856.644
11/30/2014  09:31:00      134.282      156.185      114.709       92.304       64.804       69.411     8520.031     4199.592     4817.908        3.656        0.877      205.975       68.069        0.109      336.470        7.790      856.650
11/30/2014  09:32:00      131.578       86.431      108.431       86.019       69.581       58.337     7399.193     4841.496     3403.232        2.609        0.782      157.427       50.032        0.101      336.476        7.800      856.668
11/30/2014  09:33:00       95.208       81.721       85.930       80.656       72.721       56.657     6505.397     5288.326     3210.068        1.906        0.750      125.470       48.737        0.151      336.507        7.855      856.687
11/30/2014  09:34:00      109.590       79.084       28.344       59.421       50.976       46.726     3530.809     2598.577     2183.310        1.369        0.416      135.145       35.586        0.069      336.523        7.882      856.713
11/30/2014  09:35:00      173.067       84.800       27.001       87.652       81.455       62.425     7682.840     6634.930     3896.892        2.804        0.911      192.726       24.630        0.016      336.517        7.869      856.724
11/30/2014  09:36:00       77.109       61.198       83.359      111.828       61.056       58.514    12505.530     3727.804     3423.835        1.814        0.983       98.443       67.923        0.476      336.594        7.999      856.738
11/30/2014  09:37:00       76.612       74.033       81.086       69.505       56.335       42.689     4830.979     3173.635     1822.337        1.387        0.491      106.538       32.441        0.093      336.553        7.933      856.760
11/30/2014  09:38:00      142.907       89.721       74.919       69.125       65.117       58.553     4778.235     4240.284     3428.442        2.326        0.622      168.737       47.754        0.080      336.490        7.825      856.767
11/30/2014  09:39:00      134.440       56.374       79.871       87.608       57.317       56.210     7675.133     3285.204     3159.554        2.087        0.706      145.781       44.489        0.093      336.524        7.885      856.773
11/30/2014  09:40:00      110.920       63.262       77.532       65.644       56.489       51.977     4309.144     3190.981     2701.637        1.626        0.510      127.692       34.584        0.073      336.542        7.913      856.783
11/30/2014  09:41:00       91.704       90.616       75.444       58.433       54.340       48.083     3414.405     2952.790     2311.965        1.549        0.434      128.922       37.954        0.087      336.504        7.850      856.783
11/30/2014  09:42:00      135.006       53.316       38.764       55.785       49.316       38.455     3112.022     2432.078     1478.816        1.480        0.351      145.152       29.603        0.042      336.513        7.866      856.787
11/30/2014  09:43:00       61.495       59.380       48.926       63.095       47.275       52.467     3981.021     2234.915     2752.779        0.933        0.448       85.485       43.728        0.262      336.595        8.003      856.801
11/30/2014  09:44:00       65.400       44.318       40.376       69.585       39.966       36.871     4842.095     1597.252     1359.491        0.783        0.390       79.001       31.059        0.155      336.658        8.109      856.820
11/30/2014  09:45:00       57.992       48.407       46.972       47.593       38.738       41.384     2265.093     1500.627     1712.648        0.669        0.274       75.540       33.760        0.200      336.692        8.167      856.835
11/30/2014  09:46:00       85.145       42.616       50.867       84.808       40.208       42.581     7192.448     1616.680     1813.116        1.114        0.531       95.214       48.091        0.255      336.659        8.109      856.849
11/30/2014  09:47:00       70.183       59.019       40.403       66.977       51.502       42.166     4485.890     2652.424     1777.963        0.948        0.446       91.700       19.175        0.044      336.612        8.032      856.848
11/30/2014  09:48:00      178.121       88.845       29.474       58.546       50.881       44.934     3427.638     2588.845     2019.031        2.426        0.402      199.049       36.167        0.033      336.548        7.923      856.845
11/30/2014  09:49:00      168.036       58.113       55.760       90.697       95.062       58.390     8225.915     9036.767     3409.381        2.769        1.034      177.801       47.090        0.070      336.569        7.956      856.846
11/30/2014  09:50:00      164.990       58.774       74.923       92.609       85.300       68.346     8576.337     7276.055     4671.165        2.840        1.026      175.146       46.820        0.071      336.577        7.972      856.837
11/30/2014  09:51:00       83.274       77.593       93.448       79.518       71.089       43.767     6323.064     5053.664     1915.570        1.749        0.665      113.821       48.483        0.181      336.625        8.052      856.851
11/30/2014  09:52:00      109.900       72.949       80.837       65.166       82.201       59.168     4246.577     6757.021     3500.870        1.922        0.725      131.908       59.412        0.203      336.604        8.017      856.867
11/30/2014  09:53:00       55.520       91.833       99.287       75.061       64.960       51.089     5634.202     4219.827     2610.074        1.692        0.623      107.312       39.924        0.138      336.628        8.057      856.895
11/30/2014  09:54:00      128.113      134.344      130.257      106.893      100.281       77.412    11426.154    10056.246     5992.604        3.945        1.374      185.638       69.061        0.138      336.530        7.893      856.909
11/30/2014  09:55:00      132.529       68.309       58.545      101.900       67.489       64.651    10383.705     4554.812     4179.696        2.238        0.956      149.098       52.318        0.123      336.515        7.868      856.918
11/30/2014  09:56:00       87.497       15.280       32.386       68.530       78.797       47.587     4696.336     6208.923     2264.564        1.105        0.658       88.821       38.149        0.184      336.573        7.965      856.935
11/30/2014  09:57:00       63.715       25.667       47.850       58.888       40.062       52.537     3467.753     1604.927     2760.188        0.742        0.392       68.690       30.005        0.191      336.613        8.032      856.935
11/30/2014  09:58:00       75.430       60.734       55.074       46.515       50.981       40.668     2163.618     2599.091     1653.922        0.941        0.321       96.842       27.754        0.082      336.619        8.043      856.944
11/30/2014  09:59:00       91.659       69.424       40.107       66.921       53.577       51.912     4478.364     2870.530     2694.907        1.243        0.502      114.983       40.695        0.125      336.583        7.982      856.959
11/30/2014  10:00:00       88.651       34.262       66.245       75.078       71.246       51.535     5636.710     5075.954     2655.840        1.339        0.668       95.042       57.791        0.370      336.636        8.071      856.971
11/30/2014  10:01:00       33.350       27.394       44.064       32.957       44.630       34.208     1086.176     1991.879     1170.191        0.403        0.212       43.158       32.776        0.577      336.729        8.228      856.981
11/30/2014  10:02:00       93.063       81.811       52.077       54.700       31.337       31.485     2992.073      982.010      991.311        1.151        0.248      123.910       31.036        0.063      336.718        8.208      856.996
11/30/2014  10:03:00      114.180       65.569       24.713       52.704       77.794       53.580     2777.693     6051.829     2870.782        1.482        0.585      131.668       26.311        0.040      336.633        8.066      857.009
11/30/2014  10:04:00       26.263       69.828       76.406       57.384       51.382       42.273     3292.938     2640.155     1786.985        0.956        0.386       74.604       35.772        0.230      336.666        8.121      857.011
11/30/2014  10:05:00      147.652       86.437       52.977      154.183       79.762       55.707    23772.370     6362.012     3103.242        3.265        1.662      171.091       50.341        0.087      336.595        8.001      857.022
11/30/2014  10:06:00      191.025       73.434       19.537       73.670       61.429       42.357     5427.297     3773.505     1794.115        2.663        0.550      204.653       18.577        0.008      336.555        7.934      857.042
11/30/2014  10:07:00      170.177       89.945       43.596       60.226       42.168       41.277     3627.185     1778.107     1703.772        2.303        0.355      192.485       25.292        0.017      336.557        7.937      857.052
11/30/2014  10:08:00      148.552       40.123       64.025       85.127       58.547       49.352     7246.539     3427.791     2435.640        2.044        0.655      153.875       37.732        0.060      336.554        7.934      857.058
11/30/2014  10:09:00      115.587       90.207       99.021       77.104       69.003       57.680     5944.984     4761.409     3327.017        2.267        0.702      146.621       56.701        0.150      336.539        7.907      857.060
11/30/2014  10:10:00       87.466       66.465       84.723       78.748       76.629       66.312     6201.297     5872.018     4397.217        1.785        0.824      109.854       60.925        0.308      336.606        8.021      857.048
11/30/2014  10:11:00      128.186       71.037       38.759       38.146       57.690       48.273     1455.085     3328.095     2330.324        1.505        0.356      146.553       38.884        0.070      336.606        8.020      857.027
11/30/2014  10:12:00       82.160       58.972       54.412       52.723       33.785       35.351     2779.750     1141.445     1249.669        0.918        0.259      101.133       32.983        0.106      336.578        7.975      857.018
11/30/2014  10:13:00       98.333       88.944       50.210       63.229       43.557       43.867     3997.844     1897.175     1924.338        1.396        0.391      132.592       21.279        0.026      336.587        7.991      857.004
11/30/2014  10:14:00       96.774       76.837       42.838       62.520       41.142       39.029     3908.690     1692.631     1523.245        1.211        0.356      123.568       31.698        0.066      336.563        7.949      856.977
11/30/2014  10:15:00       19.911      110.627      133.235       66.221       69.231       46.779     4385.165     4792.972     2188.283        2.087        0.568      112.404       50.816        0.204      336.610        8.027      856.951
11/30/2014  10:16:00      155.087       71.712       67.499      100.380       74.839       74.642    10076.054     5600.933     5571.476        2.750        1.062      170.864       63.386        0.138      336.524        7.881      856.945
11/30/2014  10:17:00       92.160       98.520      103.049       77.226       63.967       48.007     5963.821     4091.826     2304.645        2.059        0.618      134.906       43.087        0.102      336.565        7.951      856.941
11/30/2014  10:18:00      153.193       88.863       62.355       84.572       73.604       71.567     7152.471     5417.523     5121.811        2.647        0.885      177.100       52.950        0.089      336.571        7.962      856.949
11/30/2014  10:19:00       71.606       55.745       76.620       77.719       57.359       47.274     6040.276     3290.057     2234.810        1.283        0.578       90.746       42.781        0.222      336.610        8.030      856.960
11/30/2014  10:20:00       26.512       60.389       82.535       47.070       41.709       32.731     2215.569     1739.650     1071.306        0.809        0.251       65.953       34.738        0.277      336.673        8.134      856.973
11/30/2014  10:21:00       54.891       32.109       31.361       64.813       36.387       33.601     4200.764     1323.978     1128.998        0.584        0.333       63.592       32.081        0.255      336.697        8.173      856.988
11/30/2014  10:22:00       88.069        6.807       37.190       67.521       61.688       36.360     4559.130     3805.359     1322.066        0.943        0.484       88.331       23.412        0.070      336.695        8.169      857.005
11/30/2014  10:23:00      130.142       57.385       54.139       84.627       48.700       51.401     7161.646     2371.683     2642.096        1.767        0.609      142.232       41.526        0.085      336.650        8.094      857.012
11/30/2014  10:24:00       59.224       62.295       51.606       60.228       45.744       56.869     3627.426     2092.518     3234.076        0.950        0.448       85.954       43.638        0.258      336.720        8.212      857.013
11/30/2014  10:25:00       87.927       66.193       95.494       84.894       62.805       52.620     7206.949     3944.437     2768.883        1.757        0.696      110.058       50.850        0.213      336.612        8.030      857.002
11/30/2014  10:26:00      133.224       99.652       86.487       79.020       71.719       59.899     6244.105     5143.657     3587.914        2.506        0.749      166.370       57.174        0.118      336.586        7.987      856.987
11/30/2014  10:27:00      135.610       80.685       49.165       87.227       60.686       62.776     7608.521     3682.752     3940.850        2.127        0.762      157.798       50.985        0.104      336.550        7.925      856.985
11/30/2014  10:28:00      150.340        3.379       34.946       77.463       76.873       46.691     6000.440     5909.452     2180.036        1.896        0.704      150.378       49.108        0.107      336.584        7.983      856.995
11/30/2014  10:29:00      105.466       60.116       50.045       59.963       59.219       53.250     3595.540     3506.839     2835.555        1.359        0.497      121.396       34.940        0.083      336.626        8.054      856.988
11/30/2014  10:30:00       99.584       74.344       77.743       54.302       53.187       39.257     2948.672     2828.820     1541.094        1.440        0.366      124.273       26.516        0.046      336.711        8.197      856.997
11/30/2014  10:31:00      102.390       82.636       78.260       62.769       67.047       39.640     3939.925     4495.241     1571.347        1.672        0.500      131.576       39.731        0.091      336.660        8.112      856.998
11/30/2014  10:32:00       80.112       76.559       63.066       52.100       40.788       40.648     2714.388     1663.701     1652.276        1.114        0.302      110.812       21.672        0.038      336.757        8.273      857.008
11/30/2014  10:33:00       75.426       20.931       33.510       51.256       36.504       35.649     2627.177     1332.560     1270.869        0.624        0.262       78.276       26.855        0.118      336.729        8.227      857.013
11/30/2014  10:34:00      108.064       67.726       10.791       52.566       55.507       42.991     2763.163     3081.019     1848.186        1.204        0.385      127.533       21.777        0.029      336.691        8.163      857.015
11/30/2014  10:35:00      127.957       92.790       16.287       46.856       47.767       41.681     2195.451     2281.732     1737.273        1.573        0.311      158.060       29.108        0.034      336.665        8.118      857.015
11/30/2014  10:36:00      122.918       71.293       16.131       52.201       47.119       31.566     2724.988     2220.195      996.401        1.320        0.297      142.097       27.123        0.036      336.647        8.090      857.011
11/30/2014  10:37:00       78.305       46.479       37.714       50.029       53.552       39.318     2502.881     2867.832     1545.922        0.831        0.346       91.060       26.127        0.082      336.761        8.281      857.018
11/30/2014  10:38:00       75.935       61.709       50.969       77.123       47.409       55.681     5948.003     2247.624     3100.421        1.173        0.565       97.847       55.668        0.324      336.748        8.259      857.035
11/30/2014  10:39:00       97.445       32.209       32.280       62.168       56.235       47.370     3864.844     3162.390     2243.951        1.042        0.464      102.631       33.354        0.106      336.719        8.209      857.051
11/30/2014  10:40:00       67.543        8.365       17.164       47.653       40.888       32.299     2270.814     1671.801     1043.201        0.496        0.249       68.059       22.600        0.110      336.653        8.100      857.060
11/30/2014  10:41:00      119.399       84.610       23.041       69.096       58.725       65.042     4774.316     3448.582     4230.404        1.720        0.623      146.339       40.200        0.075      336.645        8.086      857.057
11/30/2014  10:42:00       32.128       46.194       50.061       53.957       42.939       51.019     2911.368     1843.749     2602.929        0.651        0.368       56.268       51.156        0.827      336.754        8.269      857.068
11/30/2014  10:43:00       63.804       45.745       46.415       58.954       35.985       36.731     3475.627     1294.941     1349.190        0.722        0.306       78.509       40.068        0.260      336.789        8.327      857.063
11/30/2014  10:44:00      115.738       70.331       12.216       49.093       35.925       29.739     2410.148     1290.619      884.382        1.154        0.229      135.431       19.593        0.021      336.740        8.246      857.064
11/30/2014  10:45:00       84.281       52.324       32.725       55.457       41.827       35.248     3075.455     1749.474     1242.445        0.849        0.303       99.202       16.973        0.029      336.839        8.410      857.065
11/30/2014  10:46:00      120.423       96.433       60.980       82.753       48.322       52.934     6847.994     2335.042     2802.045        1.975        0.599      154.276       55.958        0.132      336.770        8.294      857.048
11/30/2014  10:47:00      129.939       49.241       10.757       65.804       58.505       48.927     4330.104     3422.853     2393.883        1.478        0.507      138.957       33.796        0.059      336.695        8.170      857.042
11/30/2014  10:48:00       90.547       60.860       45.663       44.929       37.632       30.671     2018.622     1416.178      940.730        0.918        0.219      109.100       15.891        0.021      336.783        8.317      857.025
11/30/2014  10:49:00       95.690       58.770       26.372       38.029       28.588       31.054     1446.239      817.272      964.376        0.827        0.161      112.296       19.744        0.031      336.744        8.251      857.010
11/30/2014  10:50:00       82.179       64.049       31.396       32.981       30.875       38.340     1087.748      953.279     1469.977        0.768        0.176      104.190       24.134        0.054      336.731        8.230      857.009
11/30/2014  10:51:00       52.645       29.197       28.062       39.932       39.250       35.401     1594.556     1540.544     1253.232        0.440        0.219       60.200       21.323        0.125      336.806        8.355      856.983
11/30/2014  10:52:00       40.069       30.209        9.481       40.607       24.434       27.216     1648.904      597.030      740.738        0.280        0.149       50.181       28.038        0.312      336.737        8.240      856.969
11/30/2014  10:53:00       18.295       45.423       60.215       32.785       48.047       39.512     1074.856     2308.474     1561.165        0.548        0.247       48.969       36.767        0.564      336.915        8.536      856.944
11/30/2014  10:54:00       15.527       81.659       89.111       44.052       45.192       35.946     1940.552     2042.276     1292.103        1.006        0.264       83.122       32.729        0.155      336.821        8.379      856.926
11/30/2014  10:55:00       44.127       62.932       63.258       41.131       40.768       27.664     1691.759     1662.011      765.274        0.701        0.206       76.861       22.201        0.083      336.811        8.363      856.912
11/30/2014  10:56:00       15.693       47.336       49.543       38.297       38.273       34.243     1466.628     1464.799     1172.604        0.452        0.205       49.870       32.859        0.434      336.913        8.534      856.894
11/30/2014  10:57:00       59.252       38.879       54.243       52.706       49.914       49.918     2777.916     2491.407     2491.796        0.786        0.388       70.869       46.267        0.426      336.802        8.348      856.885
11/30/2014  10:58:00       50.140       59.098        3.505       44.076       68.393       27.900     1942.726     4677.543      778.405        0.671        0.370       77.502       30.902        0.159      336.783        8.316      856.873
11/30/2014  10:59:00       42.603      101.047      -14.636       34.114       47.782       28.443     1163.757     2283.164      809.019        0.825        0.213      109.661       28.105        0.066      336.741        8.247      856.864
11/30/2014  11:00:00       53.354       63.309       -3.019       49.679       47.366       27.803     2468.008     2243.573      772.985        0.617        0.274       82.793       30.000        0.131      336.795        8.337      856.840
11/30/2014  11:01:00       53.746      112.234      -10.189       32.820       57.752       32.758     1077.159     3335.341     1073.103        1.054        0.274      124.440       26.611        0.046      336.667        8.124      856.827
11/30/2014  11:02:00       76.061       47.683        4.197       36.423       23.734       21.760     1326.606      563.309      473.485        0.522        0.118       89.771       11.007        0.015      336.667        8.123      856.812
11/30/2014  11:03:00       29.337       36.558        6.758       23.753       24.862       25.436      564.194      618.135      647.006        0.204        0.091       46.874       18.305        0.153      336.754        8.269      856.787
11/30/2014  11:04:00       72.863       63.415        7.345       42.923       38.414       32.176     1842.343     1475.623     1035.285        0.687        0.218       96.594       21.890        0.051      336.777        8.308      856.774
11/30/2014  11:05:00       68.590      107.901      -12.486       65.841       72.185       44.255     4335.101     5210.732     1958.548        1.400        0.575      127.856       41.381        0.105      336.769        8.293      856.761
11/30/2014  11:06:00       60.412       56.574       14.766       57.074       43.773       43.882     3257.497     1916.076     1925.596        0.708        0.355       82.766       25.155        0.092      336.760        8.278      856.747
11/30/2014  11:07:00      157.943      106.898       13.715       49.713       40.780       32.416     2471.338     1662.988     1050.795        2.087        0.259      190.718       25.022        0.017      336.773        8.298      856.742
11/30/2014  11:08:00      112.624       80.874        9.449       60.412       44.644       37.597     3649.600     1993.081     1413.538        1.318        0.353      138.653       24.292        0.031      336.812        8.364      856.742
11/30/2014  11:09:00       93.118       91.633       61.886       81.108       55.159       36.271     6578.554     3042.521     1315.572        1.591        0.547      130.642       16.885        0.017      336.965        8.619      856.738
11/30/2014  11:10:00      110.250       96.841       40.458       79.490       42.295       33.158     6318.711     1788.834     1099.445        1.619        0.460      146.742       40.362        0.076      336.855        8.435      856.733
11/30/2014  11:11:00       94.273      102.458       66.245       65.723       43.797       47.570     4319.473     1918.189     2262.938        1.614        0.425      139.230       42.742        0.094      336.881        8.480      856.721
11/30/2014  11:12:00       75.371       43.414       57.824       69.193       36.030       37.319     4787.614     1298.161     1392.674        0.919        0.374       86.980       24.595        0.080      336.832        8.398      856.689
11/30/2014  11:13:00       99.528       26.812       36.312       81.204       62.783       53.402     6594.087     3941.743     2851.796        1.266        0.669      103.076       44.078        0.183      336.855        8.436      856.677
11/30/2014  11:14:00      108.413       73.625       39.606       62.042       43.047       49.156     3849.179     1853.078     2416.269        1.343        0.406      131.050       41.997        0.103      336.841        8.413      856.665
11/30/2014  11:15:00       94.743       38.343       36.410       60.157       46.571       37.548     3618.896     2168.870     1409.861        0.948        0.360      102.208       35.054        0.118      336.910        8.528      856.653
11/30/2014  11:16:00       99.497       31.528       39.774       61.177       44.488       38.854     3742.594     1979.226     1509.647        0.985        0.362      104.373       35.224        0.114      336.987        8.657      856.638
11/30/2014  11:17:00      117.768       65.901       15.589       54.022       39.303       35.338     2918.404     1544.746     1248.765        1.208        0.286      134.953       10.040        0.006      337.036        8.737      856.627
11/30/2014  11:18:00      117.072       89.578       15.760       43.773       31.657       40.435     1916.111     1002.196     1635.005        1.326        0.228      147.411       24.750        0.028      336.936        8.572      856.612
11/30/2014  11:19:00      128.594       93.046        7.884       30.285       21.646       22.940      917.166      468.550      526.248        1.358        0.096      158.726        9.303        0.003      336.765        8.288      856.586
11/30/2014  11:20:00       72.807       43.878        2.263       28.952       25.277       20.074      838.195      638.903      402.960        0.456        0.094       85.007       12.601        0.022      336.856        8.438      856.560
11/30/2014  11:21:00       63.961       21.191        7.354       27.696       18.086       19.196      767.089      327.104      368.475        0.303        0.073       67.380        9.523        0.020      336.994        8.667      856.556
11/30/2014  11:22:00       61.830       53.863       17.417       38.588       37.042       28.562     1489.045     1372.125      815.787        0.535        0.184       82.001       14.344        0.031      337.142        8.917      856.560
11/30/2014  11:23:00       71.276       76.241       45.845       46.969       32.182       36.409     2206.102     1035.661     1325.650        0.878        0.228      104.369       23.726        0.052      337.092        8.831      856.559
11/30/2014  11:24:00       32.336       35.942       40.479       25.708       19.238       20.516      660.882      370.118      420.897        0.271        0.073       48.347        7.226        0.022      336.998        8.674      856.556
11/30/2014  11:25:00       61.676       45.284       41.169       38.176       34.142       36.923     1457.422     1165.662     1363.283        0.577        0.199       76.515       24.388        0.102      337.009        8.693      856.532
11/30/2014  11:26:00       22.208       70.856       88.897       43.453       51.655       31.669     1888.161     2668.277     1002.897        0.949        0.278       74.255       33.802        0.207      337.086        8.824      856.505
11/30/2014  11:27:00      101.420       83.798       46.745       63.521       46.874       53.970     4034.880     2197.208     2912.802        1.432        0.457      131.560       46.875        0.127      336.955        8.602      856.494
11/30/2014  11:28:00       29.047       66.460       70.429       47.905       45.878       36.125     2294.926     2104.816     1305.047        0.796        0.285       72.530       33.445        0.213      337.108        8.860      856.498
11/30/2014  11:29:00       79.876       83.907       43.947       57.399       33.170       44.502     3294.675     1100.250     1980.397        1.086        0.319      115.847       42.462        0.134      337.044        8.752      856.485
11/30/2014  11:30:00       34.031       26.024       12.608       37.709       27.205       31.624     1422.003      740.092     1000.076        0.258        0.158       42.841       21.120        0.243      337.205        9.021      856.482
11/30/2014  11:31:00       49.378       62.018       -0.716       29.562       31.110       31.364      873.892      967.846      983.676        0.455        0.141       79.274       21.402        0.073      337.073        8.801      856.468
11/30/2014  11:32:00       65.955       30.167       14.777       34.630       22.692       20.213     1199.252      514.914      408.561        0.380        0.106       72.526        8.767        0.015      336.938        8.574      856.450
11/30/2014  11:33:00       43.821      135.339      -22.836       36.724       51.546       28.132     1348.625     2656.977      791.391        1.278        0.240      142.257       27.407        0.037      336.948        8.592      856.435
11/30/2014  11:34:00       72.950      109.495       -7.134       46.016       68.173       47.328     2117.471     4647.531     2239.984        1.318        0.450      131.571       37.311        0.080      336.987        8.656      856.405
11/30/2014  11:35:00       57.696      114.147       -5.294       51.757       61.274       38.613     2678.801     3754.541     1490.947        1.215        0.396      127.899       32.549        0.065      336.982        8.648      856.387
11/30/2014  11:36:00       71.968       80.206       -7.873       33.735       42.615       27.366     1138.070     1816.064      748.919        0.769        0.185      107.761       28.350        0.069      336.838        8.410      856.346
11/30/2014  11:37:00      124.933      101.796        4.747       77.262       62.754       38.303     5969.494     3938.013     1467.103        1.868        0.569      161.154       27.592        0.029      336.914        8.532      856.303
11/30/2014  11:38:00       57.896       80.772      -10.092       81.817       55.504       42.119     6693.998     3080.720     1773.971        1.076        0.577       99.378       24.663        0.062      337.146        8.922      856.267
11/30/2014  11:39:00       68.113      171.295      -26.450       88.977       82.375       49.734     7916.822     6785.696     2473.482        2.593        0.859      184.341       44.737        0.059      337.140        8.911      856.223
11/30/2014  11:40:00      105.495      106.846       -2.495       68.148       66.136       42.485     4644.124     4373.986     1804.998        1.669        0.541      150.150       31.964        0.045      337.018        8.707      856.207
11/30/2014  11:41:00       40.866      109.584       -6.706       46.696       42.637       36.939     2180.498     1817.919     1364.494        0.954        0.268      116.956       23.936        0.042      337.042        8.749      856.183
11/30/2014  11:42:00       61.338       72.729        4.900       52.233       40.140       25.375     2728.256     1611.231      643.911        0.703        0.249       95.141       20.429        0.046      337.088        8.825      856.169
11/30/2014  11:43:00      188.500      110.674       13.687       76.909       48.720       56.261     5914.922     2373.653     3165.281        2.971        0.573      218.588       36.761        0.028      337.083        8.816      856.170
11/30/2014  11:44:00      202.601      106.032       11.256       83.779       76.841       51.330     7018.990     5904.514     2634.816        3.398        0.778      228.670       21.422        0.009      336.996        8.669      856.197
11/30/2014  11:45:00      169.133      106.772       17.724       81.700       62.137       48.535     6674.867     3861.058     2355.625        2.660        0.645      200.016       23.000        0.013      336.924        8.548      856.207
11/30/2014  11:46:00      132.575      120.694       15.132       87.117       59.637       53.580     7589.381     3556.519     2870.823        2.319        0.701      179.285       42.459        0.056      336.902        8.512      856.228
11/30/2014  11:47:00       96.593       92.516       54.185       86.928       56.016       53.016     7556.532     3137.807     2810.687        1.716        0.675      133.751       45.491        0.116      337.085        8.820      856.225
11/30/2014  11:48:00      132.874       38.115       -6.495       88.519       57.207       58.983     7835.571     3272.675     3478.991        1.687        0.729      138.233       44.793        0.105      337.004        8.683      856.236
11/30/2014  11:49:00       77.077       56.698       32.367       79.968       55.970       41.237     6394.858     3132.660     1700.530        1.071        0.561       95.685       32.531        0.116      337.177        8.974      856.234
11/30/2014  11:50:00       90.566       65.650       39.960       88.300       64.688       61.805     7796.805     4184.523     3819.861        1.495        0.790      111.857       63.018        0.317      337.043        8.750      856.250
11/30/2014  11:51:00       84.739       66.006       56.364       69.366       53.955       43.576     4811.665     2911.149     1898.863        1.217        0.481      107.413       39.913        0.138      337.012        8.699      856.265
11/30/2014  11:52:00       52.046       68.797       52.464       44.746       49.638       57.155     2002.219     2463.948     3266.664        0.896        0.387       86.265       48.608        0.318      336.956        8.606      856.279
11/30/2014  11:53:00       24.527       37.231       34.426       30.459       22.003       30.899      927.758      484.129      954.738        0.277        0.118       44.584       26.567        0.355      337.014        8.702      856.278
11/30/2014  11:54:00       21.788       31.258       11.188       22.442       15.450       12.138      503.656      238.689      147.339        0.123        0.044       38.102       12.074        0.100      336.896        8.507      856.278
11/30/2014  11:55:00       27.835       35.249       31.173       29.654       26.834       23.382      879.378      720.084      546.724        0.257        0.107       44.914       15.425        0.118      337.198        9.009      856.273
11/30/2014  11:56:00       13.287       28.628        4.300       17.784       21.765       16.581      316.264      473.718      274.923        0.104        0.053       31.561       15.292        0.235      337.239        9.079      856.261
11/30/2014  11:57:00       47.491       26.174       -3.458       32.315       35.668       20.850     1044.241     1272.238      434.734        0.285        0.138       54.226       21.362        0.155      337.224        9.054      856.252
11/30/2014  11:58:00       53.654       41.915        5.694       25.175       30.328       26.236      633.792      919.799      688.314        0.345        0.112       68.085       16.834        0.061      337.163        8.952      856.238
11/30/2014  11:59:00       -4.512       66.125      -20.107       25.954       29.575       17.581      673.627      874.657      309.098        0.333        0.093       66.279       14.836        0.050      336.969        8.628      856.219
11/30/2014  12:00:00      -37.850       81.817      -13.636       37.919       47.500       18.243     1437.815     2256.290      332.793        0.617        0.201       90.148       20.791        0.053      337.008        8.694      856.208
11/30/2014  12:01:00      -78.140       40.528       -8.185       38.299       27.998       24.005     1466.792      783.909      576.225        0.532        0.141       88.025       16.522        0.035      337.245        9.088      856.199
11/30/2014  12:02:00       29.268       40.016       19.678       26.196       29.955       27.467      686.227      897.287      754.449        0.259        0.117       49.577       20.904        0.178      337.398        9.344      856.207
11/30/2014  12:03:00       85.796       42.388       42.334       50.693       54.289       47.890     2569.790     2947.340     2293.444        0.938        0.391       95.696       36.901        0.149      337.369        9.296      856.215
11/30/2014  12:04:00       70.363       33.975       55.426       74.374       79.695       53.470     5531.540     6351.234     2859.089        1.196        0.737       78.136       58.336        0.557      337.224        9.054      856.204
11/30/2014  12:05:00      118.765      104.532       77.298       93.934       78.397       76.344     8823.580     6146.160     5828.453        2.590        1.040      158.215       69.785        0.195      337.235        9.069      856.213
11/30/2014  12:06:00      129.756       48.227       28.144       75.684       71.164       47.248     5728.115     5064.290     2232.331        1.649        0.651      138.429       46.605        0.113      337.029        8.726      856.218
11/30/2014  12:07:00       86.989       53.522       26.966       67.327       43.551       34.507     4532.953     1896.691     1190.726        0.939        0.381      102.136       31.076        0.093      337.097        8.840      856.215
11/30/2014  12:08:00        9.138       15.396       32.315       39.386       42.922       26.506     1551.273     1842.332      702.575        0.273        0.205       17.904       29.168        2.654      337.590        9.666      856.209
11/30/2014  12:09:00        7.089      -74.086       -4.328       47.115       60.594       25.960     2219.808     3671.589      673.943        0.606        0.328       74.424       15.416        0.043      337.463        9.453      856.195
11/30/2014  12:10:00       25.478       39.737       62.380       32.189       42.328       27.182     1036.120     1791.629      738.856        0.484        0.178       47.204       24.248        0.264      337.438        9.411      856.194
11/30/2014  12:11:00        9.450       51.743       51.459       37.398       29.789       37.187     1398.595      887.410     1382.836        0.454        0.183       52.599       28.991        0.304      337.285        9.156      856.190
11/30/2014  12:12:00       23.944       35.842       46.816       28.609       33.841       21.687      818.489     1145.186      470.332        0.324        0.122       43.104       22.183        0.265      337.256        9.107      856.184
11/30/2014  12:13:00       69.785       49.663       40.040       46.434       35.738       28.738     2156.129     1277.224      825.856        0.660        0.213       85.653       23.536        0.076      337.339        9.246      856.183
11/30/2014  12:14:00       98.349       41.983       -9.845       48.106       46.565       19.846     2314.148     2168.286      393.860        0.820        0.244      106.935       28.365        0.070      336.952        8.598      856.183
11/30/2014  12:15:00        8.282      -36.814        1.116       17.422       51.634       15.830      303.533     2666.054      250.574        0.232        0.161       37.734       16.331        0.187      337.088        8.824      856.186
11/30/2014  12:16:00      -10.160       -2.853        6.849       21.025       44.732       19.020      442.063     2000.974      361.762        0.148        0.140       10.553       22.265        4.451      337.192        9.000      856.167
11/30/2014  12:17:00      -10.542        9.660      -11.208       16.436       19.720       10.956      270.126      388.896      120.040        0.055        0.039       14.299       12.021        0.707      337.018        8.707      856.165
11/30/2014  12:18:00       30.127       16.415        0.724       20.817       17.322       22.225      433.331      300.037      493.952        0.120        0.061       34.309       17.737        0.267      337.212        9.034      856.153
11/30/2014  12:19:00       31.470       67.624       74.742       47.665       50.745       59.898     2271.944     2575.085     3587.728        0.979        0.422       74.588       54.375        0.531      337.248        9.094      856.141
11/30/2014  12:20:00       74.894      106.125      108.563       58.977       54.807       45.068     3478.265     3003.805     2031.115        1.858        0.426      129.891       39.177        0.091      337.118        8.875      856.128
11/30/2014  12:21:00       94.483       84.405       50.718       50.155       43.957       44.099     2515.483     1932.218     1944.738        1.251        0.320      126.693       27.052        0.046      337.098        8.843      856.106
11/30/2014  12:22:00       49.075       37.261       41.901       70.501       54.243       39.009     4970.435     2942.337     1521.730        0.749        0.472       61.618       27.528        0.200      337.267        9.127      856.075
11/30/2014  12:23:00       10.101       -2.100       10.151       37.443       31.540       23.451     1401.993      994.777      549.929        0.158        0.147       10.317        9.213        0.797      337.392        9.334      856.053
11/30/2014  12:24:00       32.524      -31.955       19.484       39.132       46.473       32.814     1531.295     2159.753     1076.751        0.361        0.238       45.595       23.745        0.271      337.379        9.314      856.017
11/30/2014  12:25:00       10.607       22.237       57.010       23.632       45.403       31.079      558.456     2061.436      965.897        0.372        0.179       24.637       36.488        2.193      337.492        9.503      855.980
11/30/2014  12:26:00       14.138       32.293       54.314       29.228       35.613       21.011      854.255     1268.271      441.456        0.338        0.128       35.252       18.551        0.277      337.486        9.492      855.961
11/30/2014  12:27:00       25.202       86.609       -5.139       34.576       30.483       27.861     1195.472      929.203      776.212        0.553        0.145       90.201       27.567        0.093      337.162        8.950      855.934
11/30/2014  12:28:00      -21.484      103.097       -5.210       25.675       38.162       24.164      659.186     1456.349      583.917        0.691        0.135      105.312       25.438        0.058      337.289        9.162      855.915
11/30/2014  12:29:00       10.567      108.689       -6.365       32.250       43.349       29.180     1040.056     1879.115      851.470        0.787        0.189      109.201       29.254        0.072      337.198        9.009      855.899
11/30/2014  12:30:00       -7.260      159.042      -23.171       37.432       40.583       27.452     1401.143     1646.954      753.622        1.484        0.190      159.208       18.077        0.013      337.164        8.952      855.883
11/30/2014  12:31:00       31.904      104.987       -3.968       54.173       64.210       39.399     2934.742     4122.898     1552.299        1.033        0.430      109.728       43.787        0.159      337.285        9.156      855.868
11/30/2014  12:32:00       50.201       66.561       14.705       46.810       33.790       33.471     2191.152     1141.751     1120.304        0.581        0.223       83.369       21.699        0.068      337.320        9.214      855.865
11/30/2014  12:33:00       60.192       48.040       13.429       48.388       38.028       28.311     2341.367     1446.136      801.525        0.535        0.229       77.012       20.517        0.071      337.423        9.387      855.864
11/30/2014  12:34:00       21.918       58.086       68.589       47.010       52.818       40.097     2209.927     2789.699     1607.781        0.758        0.330       62.084       40.219        0.420      337.346        9.258      855.858
11/30/2014  12:35:00       37.939       47.856       58.183       50.992       48.274       36.043     2600.226     2330.399     1299.089        0.667        0.311       61.070       31.004        0.258      337.367        9.293      855.821
11/30/2014  12:36:00      105.367       54.327       27.166       56.393       44.546       40.821     3180.146     1984.368     1666.336        1.081        0.342      118.548       28.151        0.056      337.352        9.268      855.813
11/30/2014  12:37:00       87.969       49.480       12.724       75.687       59.950       38.365     5728.561     3593.950     1471.850        1.057        0.540      100.930       29.352        0.085      337.337        9.243      855.806
11/30/2014  12:38:00       75.685       25.752       -2.234       64.880       48.926       37.170     4209.393     2393.765     1381.597        0.719        0.399       79.946       31.161        0.152      337.440        9.415      855.783
11/30/2014  12:39:00      160.868       97.738       22.324       67.116       40.810       41.119     4504.538     1665.420     1690.762        2.189        0.393      188.232       36.850        0.038      337.320        9.213      855.767
11/30/2014  12:40:00      124.027       92.621       12.726       69.927       55.155       41.738     4889.726     3042.035     1742.065        1.690        0.484      154.794       27.728        0.032      337.297        9.175      855.760
11/30/2014  12:41:00      125.500      146.153       -3.861       80.125       69.412       53.373     6419.944     4818.094     2848.718        2.560        0.704      192.642       41.974        0.047      337.176        8.970      855.764
11/30/2014  12:42:00       56.387       82.917       -0.086       57.085       61.774       35.237     3258.666     3815.987     1241.649        0.918        0.416      100.273       28.494        0.081      337.271        9.133      855.775
11/30/2014  12:43:00      127.662       64.621        5.049       51.736       43.239       40.052     2676.570     1869.608     1604.188        1.332        0.308      143.085       21.830        0.023      337.290        9.164      855.787
11/30/2014  12:44:00       33.159       58.490        9.442       49.797       40.405       25.832     2479.727     1632.596      667.287        0.469        0.239       67.235       22.731        0.114      337.324        9.221      855.782
11/30/2014  12:45:00       46.661       65.984       -3.466       49.530       65.474       30.418     2453.199     4286.837      925.266        0.710        0.383       80.816       13.652        0.029      337.320        9.214      855.792
11/30/2014  12:46:00       70.319      112.955      -11.616       61.633       75.321       46.057     3798.669     5673.293     2121.260        1.471        0.580      133.055       33.324        0.063      337.213        9.036      855.802
11/30/2014  12:47:00       48.430      100.750       -9.925       33.440       50.768       32.483     1118.238     2577.365     1055.157        0.867        0.238      111.786       30.148        0.073      337.132        8.898      855.815
11/30/2014  12:48:00       60.077       35.314       14.522       28.091       21.964       20.626      789.081      482.410      425.423        0.338        0.085       69.687       11.602        0.028      337.173        8.968      855.814
11/30/2014  12:49:00       97.430       39.191       -3.344       55.969       46.463       31.314     3132.554     2158.848      980.567        0.865        0.314      105.017       22.315        0.045      337.209        9.029      855.812
11/30/2014  12:50:00       85.567       71.633       27.543       41.527       37.680       34.055     1724.514     1419.808     1159.755        0.876        0.215      111.593       20.981        0.035      337.331        9.233      855.806
11/30/2014  12:51:00       75.904      101.802      103.420       67.334       86.659       72.378     4533.889     7509.841     5238.617        2.205        0.864      126.985       73.568        0.336      337.412        9.368      855.804
11/30/2014  12:52:00      112.220      104.994       81.424       64.192       50.832       59.836     4120.578     2583.862     3580.322        2.026        0.514      153.678       42.151        0.075      337.286        9.157      855.810
11/30/2014  12:53:00       85.994       35.989       48.296       91.461       55.260       38.950     8365.030     3053.614     1517.065        1.198        0.647       93.221       36.409        0.153      337.331        9.234      855.826
11/30/2014  12:54:00       75.196       74.192       56.297       54.714       45.144       37.859     2993.635     2037.972     1433.339        1.040        0.323      105.635       30.375        0.083      337.375        9.306      855.852
11/30/2014  12:55:00       23.173       41.881       54.976       27.328       30.525       23.763      746.835      931.749      564.661        0.378        0.112       47.865       15.332        0.103      337.453        9.437      855.882
11/30/2014  12:56:00      106.157       38.641       77.180       87.856       80.413       57.312     7718.595     6466.257     3284.669        1.809        0.873      112.971       64.774        0.329      337.278        9.144      855.911
11/30/2014  12:57:00      100.203       46.673       37.987       76.923       56.306       39.228     5917.099     3170.394     1538.875        1.214        0.531      110.539       36.587        0.110      337.237        9.075      855.921
11/30/2014  12:58:00       70.865        5.949        3.994       64.989       53.644       32.769     4223.561     2877.717     1073.812        0.662        0.409       71.114       24.408        0.118      337.245        9.088      855.928
11/30/2014  12:59:00       16.843      -10.305       13.278       21.843       20.996       20.473      477.123      440.835      419.155        0.095        0.067       19.746       14.747        0.558      337.373        9.304      855.936
11/30/2014  13:00:00        5.860       18.181        1.919       23.128       21.446       20.987      534.927      459.911      440.443        0.090        0.072       19.102       13.735        0.517      337.403        9.354      855.951
11/30/2014  13:01:00       53.332     -103.211       -8.814       56.641       71.645       37.851     3208.231     5133.046     1432.667        1.167        0.489      116.176       49.286        0.180      337.348        9.259      855.965
11/30/2014  13:02:00       66.492     -100.158       -3.147       61.270       88.930       52.789     3754.072     7908.523     2786.648        1.445        0.722      120.220       54.785        0.208      337.336        9.240      855.965
11/30/2014  13:03:00      120.985       87.703       50.475       70.858       50.210       52.938     5020.843     2521.065     2802.445        1.761        0.517      149.429       41.066        0.076      337.241        9.083      855.976
11/30/2014  13:04:00      126.520       96.901       45.108       47.186       33.405       43.021     2226.481     1115.889     1850.839        1.631        0.260      159.365       30.700        0.037      337.181        8.981      855.981
11/30/2014  13:05:00      246.679      134.562       26.038       79.596       55.228       53.168     6335.455     3050.120     2826.837        4.592        0.611      280.994       35.958        0.016      337.094        8.833      855.982
11/30/2014  13:06:00      158.012       94.708       15.365       67.890       51.031       39.870     4609.077     2604.185     1589.634        2.149        0.440      184.221       32.414        0.031      337.140        8.910      855.997
11/30/2014  13:07:00       89.282       66.026       23.609       42.407       44.734       30.759     1798.366     2001.169      946.121        0.882        0.237      111.044       18.203        0.027      337.198        9.011      856.004
11/30/2014  13:08:00       90.720       75.324       69.475       68.310       46.573       50.618     4666.298     2169.034     2562.188        1.406        0.470      117.914       44.223        0.141      337.349        9.264      855.999
11/30/2014  13:09:00      150.098       68.806       82.642       85.574       71.787       58.982     7322.982     5153.360     3478.905        2.502        0.798      165.117       45.536        0.076      337.291        9.164      855.983
11/30/2014  13:10:00      106.169      123.093      117.837       84.802       57.891       61.056     7191.330     3351.350     3727.833        2.729        0.714      162.554       46.178        0.081      337.301        9.181      855.979
11/30/2014  13:11:00      128.040      114.785       70.317       84.776       59.082       72.906     7186.908     3490.669     5315.284        2.525        0.800      171.958       56.300        0.107      337.174        8.969      855.994
11/30/2014  13:12:00      157.761       51.921        8.328       60.321       43.259       40.726     3638.636     1871.358     1658.627        1.741        0.358      166.085       29.811        0.032      337.134        8.903      855.998
11/30/2014  13:13:00       62.569       49.041       62.207       42.810       37.109       23.978     1832.724     1377.079      574.933        0.699        0.189       79.498       20.516        0.067      337.287        9.159      855.990
11/30/2014  13:14:00       72.181       59.800       52.794       63.437       48.204       44.971     4024.213     2323.641     2022.405        0.997        0.419       93.734       42.072        0.201      337.287        9.160      855.979
11/30/2014  13:15:00       67.800       47.464       18.179       60.547       39.772       40.165     3665.940     1581.828     1613.196        0.702        0.343       82.762       39.755        0.231      337.294        9.172      855.974
11/30/2014  13:16:00       95.244       74.024       25.957       42.440       42.140       38.505     1801.194     1775.758     1482.646        1.014        0.253      120.627       23.628        0.038      337.289        9.163      855.960
11/30/2014  13:17:00       72.147       30.035       15.821       45.260       47.199       34.819     2048.444     2227.756     1212.373        0.592        0.274       78.149       25.267        0.105      337.311        9.200      855.958
11/30/2014  13:18:00      116.582       89.715       73.338       84.389       49.839       50.943     7121.457     2483.938     2595.235        1.961        0.610      147.106       42.505        0.083      337.277        9.142      855.945
11/30/2014  13:19:00      137.925      112.320      109.813       90.448       90.346       76.583     8180.859     8162.311     5865.011        3.295        1.110      177.873       67.415        0.144      337.188        8.990      855.937
11/30/2014  13:20:00       81.622       52.035       44.476       75.805       76.885       59.849     5746.399     5911.341     3581.919        1.329        0.762       96.798       56.845        0.345      337.269        9.129      855.941
11/30/2014  13:21:00       12.997       28.070       88.048       48.806       88.635       45.071     2382.030     7856.101     2031.377        1.049        0.613       30.933       53.598        3.002      337.351        9.265      855.944
11/30/2014  13:22:00       58.243      -44.920       29.195       86.549      114.486       47.466     7490.721    13106.957     2253.036        1.455        1.143       73.553       57.623        0.614      337.370        9.297      855.922
11/30/2014  13:23:00       91.886       95.168       95.657       98.519       75.803       60.016     9705.975     5746.099     3601.881        2.285        0.953      132.288       53.441        0.163      337.325        9.222      855.923
11/30/2014  13:24:00      184.481       74.598       27.563       75.907       70.216       48.656     5761.802     4930.233     2367.409        2.671        0.653      198.993       36.036        0.033      337.212        9.032      855.923
11/30/2014  13:25:00       54.601       48.928       26.301       58.396       56.450       52.785     3410.137     3186.613     2786.231        0.772        0.469       73.316       34.322        0.219      337.278        9.144      855.910
11/30/2014  13:26:00      129.594       78.756       15.486       47.305       47.149       37.814     2237.758     2222.992     1429.913        1.456        0.295      151.648       28.159        0.034      337.309        9.196      855.893
11/30/2014  13:27:00      165.705       79.077       23.837       67.289       48.750       52.010     4527.860     2376.520     2705.084        2.194        0.480      183.607       32.886        0.032      337.240        9.079      855.873
11/30/2014  13:28:00       58.290       35.893       33.014       61.400       37.179       38.142     3770.009     1382.272     1454.811        0.619        0.330       68.454       30.886        0.204      337.401        9.351      855.868
11/30/2014  13:29:00      107.090       63.246       28.500       56.132       45.444       39.237     3150.845     2065.189     1539.563        1.152        0.338      124.372       32.075        0.067      337.352        9.268      855.860
11/30/2014  13:30:00      118.089       38.924       43.721       66.335       58.566       52.707     4400.281     3429.930     2778.050        1.399        0.530      124.339       43.100        0.120      337.385        9.322      855.860
11/30/2014  13:31:00      151.171       63.958       45.379      102.099       61.997       59.675    10424.250     3843.614     3561.103        2.341        0.891      164.144       32.979        0.040      337.302        9.183      855.849
11/30/2014  13:32:00      126.309       94.191       93.009       63.018       72.459       55.522     3971.325     5250.367     3082.684        2.289        0.615      157.562       33.578        0.045      337.264        9.120      855.850
11/30/2014  13:33:00      120.542       72.589       42.981       88.257       67.785       51.858     7789.376     4594.756     2689.298        1.836        0.754      140.711       23.308        0.027      337.283        9.151      855.864
11/30/2014  13:34:00      157.454      104.558       29.892      106.717       72.767       50.099    11388.514     5295.008     2509.901        2.790        0.960      189.008       29.173        0.024      337.213        9.033      855.884
11/30/2014  13:35:00      143.403       74.354       50.153       76.895       58.556       42.836     5912.846     3428.784     1834.919        1.989        0.559      161.533       27.042        0.028      337.255        9.104      855.906
11/30/2014  13:36:00      144.938       61.340       31.678      122.680       70.214       54.056    15050.450     4930.018     2922.009        2.433        1.145      157.383       55.001        0.122      337.174        8.968      855.923
11/30/2014  13:37:00      130.961      102.314       10.217       72.664       67.415       50.151     5280.099     4544.752     2515.133        2.003        0.617      166.189       39.155        0.056      337.091        8.828      855.948
11/30/2014  13:38:00      217.545      138.959       29.045       85.699       57.744       50.518     7344.259     3334.415     2552.097        4.035        0.662      258.139       28.732        0.012      337.051        8.760      855.962
11/30/2014  13:39:00      115.318      152.155       -0.280      115.027      100.868       63.161    13231.313    10174.400     3989.294        3.192        1.370      190.918       57.198        0.090      337.012        8.698      855.987
11/30/2014  13:40:00       72.113       59.763        2.503       53.079       43.990       40.596     2817.354     1935.150     1648.049        0.759        0.320       93.659       29.169        0.097      337.085        8.820      856.010
11/30/2014  13:41:00      107.700       44.514       36.354       39.846       42.413       30.824     1587.711     1798.836      950.102        0.962        0.217      116.536       24.776        0.045      337.165        8.956      856.027
11/30/2014  13:42:00      118.435       63.152       23.872       61.753       44.751       35.533     3813.373     2002.687     1262.612        1.283        0.354      134.220       25.391        0.036      337.149        8.927      856.043
11/30/2014  13:43:00      180.175      109.149       37.433       88.895       59.449       50.631     7902.271     3534.231     2563.509        2.989        0.700      210.657       41.506        0.039      337.025        8.716      856.066
11/30/2014  13:44:00      214.711      125.810        6.909       96.586       70.973       56.758     9328.947     5037.142     3221.454        3.978        0.879      248.855       42.651        0.029      336.983        8.647      856.062
11/30/2014  13:45:00       95.463       50.265       31.417       98.353       61.621       53.224     9673.246     3797.194     2832.767        1.446        0.815      107.888       55.281        0.263      337.023        8.715      856.061
11/30/2014  13:46:00      150.142       77.151       44.382       62.169       58.456       52.037     3865.041     3417.050     2707.875        2.023        0.499      168.805       26.028        0.024      336.994        8.667      856.058
11/30/2014  13:47:00      160.499       78.093       42.290       66.908       61.447       47.841     4476.680     3775.680     2288.725        2.209        0.527      178.489       20.959        0.014      337.011        8.694      856.070
11/30/2014  13:48:00       48.228       87.027       -4.936       42.334       57.820       35.529     1792.148     3343.096     1262.332        0.816        0.320       99.497       21.538        0.047      337.022        8.714      856.094
11/30/2014  13:49:00      143.117      125.767       -1.519       73.082       77.505       50.951     5340.997     6006.956     2596.042        2.512        0.697      190.526       41.975        0.049      336.894        8.497      856.119
11/30/2014  13:50:00       44.353      108.070        0.148       53.061       84.012       40.397     2815.492     7058.088     1631.953        1.257        0.575      116.817       44.814        0.147      336.940        8.578      856.153
11/30/2014  13:51:00       60.238      154.835      -14.414       60.188       64.154       46.358     3622.555     4115.756     2149.027        1.885        0.494      166.140       34.490        0.043      336.950        8.593      856.171
11/30/2014  13:52:00       46.761       93.150        5.373       53.528       67.597       46.938     2865.244     4569.399     2203.188        1.026        0.482      104.228       37.557        0.130      336.950        8.594      856.186
11/30/2014  13:53:00       46.740      136.957      -23.762       37.864       58.792       34.667     1433.649     3456.545     1201.799        1.380        0.305      144.713       36.523        0.064      336.942        8.582      856.184
11/30/2014  13:54:00       87.684      116.434       -9.615       47.896       53.782       39.376     2294.019     2892.541     1550.490        1.404        0.337      145.758       36.563        0.063      336.957        8.605      856.173
11/30/2014  13:55:00       24.168       87.655      -15.237       38.174       57.436       29.103     1457.243     3298.865      846.960        0.705        0.280       90.925       24.643        0.073      336.981        8.647      856.172
11/30/2014  13:56:00       13.040      206.453      -33.057       48.631       91.362       36.655     2364.973     8347.064     1343.554        2.797        0.603      206.864       46.285        0.050      336.974        8.632      856.168
11/30/2014  13:57:00       -9.679      263.219      -50.336       49.848       44.497       22.251     2484.842     1979.964      495.110        3.843        0.248      263.397       13.244        0.003      336.896        8.498      856.176
11/30/2014  13:58:00       -5.050      169.740      -32.612       38.255       64.441       27.097     1463.431     4152.670      734.270        1.812        0.318      169.815       36.266        0.046      336.968        8.623      856.167
11/30/2014  13:59:00        2.612      160.412      -15.517       39.739       75.400       30.990     1579.212     5685.096      960.367        1.710        0.411      160.433       34.425        0.046      336.996        8.670      856.162
11/30/2014  14:00:00       28.553      116.648      -19.100       49.835       43.643       27.982     2483.567     1904.710      783.020        0.998        0.259      120.091       28.244        0.055      336.958        8.609      856.174
11/30/2014  14:01:00      -15.964      314.632      -33.894       95.534      201.701       55.593     9126.687    40683.463     3090.562        7.664        2.645      315.036       79.446        0.064      336.619        8.041      856.201
11/30/2014  14:02:00      -95.736      277.734      -43.085       72.486      111.522       55.316     5254.232    12437.113     3059.915        5.445        1.038      293.772       56.036        0.036      336.369        7.622      856.204
11/30/2014  14:03:00       -4.850      352.686      -44.014       98.501      117.455       60.883     9702.406    13795.793     3706.794        7.677        1.360      352.719       67.082        0.036      336.312        7.526      856.213
11/30/2014  14:04:00      -68.822      401.851      -57.154       94.760      118.142       60.332     8979.378    13957.634     3639.906        9.803        1.329      407.702       46.971        0.013      336.239        7.404      856.212
11/30/2014  14:05:00      -76.975      374.258      -48.363       70.393      109.397       46.729     4955.176    11967.689     2183.616        8.372        0.955      382.092       43.716        0.013      336.276        7.466      856.215
11/30/2014  14:06:00     -176.463      270.315      -44.205       98.112      120.256       61.044     9626.022    14461.460     3726.362        6.698        1.391      322.815       69.320        0.046      336.279        7.471      856.242
11/30/2014  14:07:00     -193.813      261.680      -49.358       84.454      105.917       63.517     7132.483    11218.344     4034.396        6.543        1.119      325.638       57.366        0.031      336.203        7.345      856.267
11/30/2014  14:08:00     -121.385      230.160      -39.018       73.910       91.268       44.848     5462.660     8329.760     2011.338        4.251        0.790      260.208       45.941        0.031      336.199        7.336      856.277
11/30/2014  14:09:00      -47.183      256.336      -30.780       67.470       80.802       31.854     4552.139     6529.010     1014.676        4.049        0.605      260.643       29.966        0.013      336.166        7.281      856.276
11/30/2014  14:10:00      -66.103      116.488      -15.025       80.585       67.774       36.210     6493.887     4593.335     1311.135        1.528        0.620      133.937       38.879        0.084      336.316        7.536      856.269
11/30/2014  14:11:00      -59.345      248.660      -19.393       75.375      117.979       55.099     5681.329    13918.994     3035.883        4.418        1.132      255.643       53.819        0.044      336.310        7.522      856.264
11/30/2014  14:12:00      -28.472      337.811      -46.392       61.127      108.527       41.625     3736.452    11778.076     1732.680        6.716        0.862      339.009       47.913        0.020      336.226        7.382      856.268
11/30/2014  14:13:00      -83.722      315.673      -40.894       66.625       78.370       51.127     4438.929     6141.933     2613.976        6.076        0.660      326.587       40.538        0.015      336.235        7.398      856.289
11/30/2014  14:14:00     -125.404      263.445      -26.112       89.003       99.195       62.920     7921.491     9839.644     3958.973        5.376        1.086      291.770       57.423        0.039      336.233        7.393      856.325
11/30/2014  14:15:00      -42.276      176.663      -11.349       62.960      121.936       46.430     3963.946    14868.451     2155.710        2.705        1.049      181.651       49.181        0.073      336.311        7.526      856.348
11/30/2014  14:16:00      -53.641      116.493      -13.483       57.284       83.951       37.653     3281.458     7047.819     1417.771        1.419        0.587      128.250       39.698        0.096      336.310        7.524      856.360
11/30/2014  14:17:00     -110.433      126.042      -17.978      117.282       89.717       56.672    13755.123     8049.068     3211.733        2.671        1.251      167.576       72.969        0.190      336.347        7.587      856.371
11/30/2014  14:18:00      -90.962      168.590      -24.679       86.894      114.503       52.750     7550.565    13110.836     2782.523        3.037        1.172      191.564       53.153        0.077      336.272        7.461      856.382
11/30/2014  14:19:00     -107.783      118.707       -4.379       72.085       68.586       50.997     5196.232     4704.006     2600.654        1.911        0.625      160.338       43.373        0.073      336.301        7.509      856.399
11/30/2014  14:20:00     -131.466       45.764      -27.766       82.140       64.023       45.821     6746.920     4098.954     2099.568        1.654        0.647      139.204       44.296        0.101      336.281        7.475      856.426
11/30/2014  14:21:00      -90.492      107.800        0.097      105.081      124.545       54.206    11042.109    15511.531     2938.338        2.464        1.475      140.747       40.108        0.081      336.302        7.511      856.456
11/30/2014  14:22:00        5.209       40.675        7.788       54.074       71.096       36.772     2923.949     5054.639     1352.191        0.553        0.467       41.007       30.576        0.556      336.298        7.506      856.491
11/30/2014  14:23:00      -18.302       79.744        7.259       28.235       66.932       29.441      797.209     4479.888      866.748        0.644        0.307       81.817       30.438        0.138      336.394        7.667      856.527
11/30/2014  14:24:00      -65.002        6.525        3.573       86.621       69.141       42.213     7503.269     4780.515     1781.918        0.917        0.703       65.328       38.264        0.343      336.223        7.380      856.556
11/30/2014  14:25:00     -222.265      -62.134      -26.890      111.554      108.498       43.913    12444.197    11771.827     1928.392        4.006        1.307      230.786       38.585        0.028      336.000        7.005      856.574
11/30/2014  14:26:00     -193.285      -27.244       -9.746      142.600      101.235       62.800    20334.680    10248.471     3943.834        3.635        1.726      195.196       61.529        0.099      335.995        6.997      856.638
11/30/2014  14:27:00     -216.610      -29.610       -9.649      104.992       89.151       53.080    11023.330     7947.915     2817.482        3.483        1.089      218.624       52.138        0.057      335.864        6.778      856.683
11/30/2014  14:28:00     -195.806      -34.863       -3.590       75.371       92.297       43.987     5680.722     8518.772     1934.860        2.785        0.807      198.885       36.036        0.033      335.875        6.798      856.705
11/30/2014  14:29:00     -234.395      -34.746      -14.117       94.058      123.335       52.651     8846.877    15211.479     2772.099        4.158        1.342      236.956       34.226        0.021      335.905        6.847      856.738
11/30/2014  14:30:00     -179.925      -33.324       -4.268      101.374       82.072       53.833    10276.636     6735.782     2898.045        2.670        0.996      182.985       53.445        0.085      335.889        6.820      856.776
11/30/2014  14:31:00     -266.944      -73.062       -4.238      118.537       80.077       46.960    14051.070     6412.321     2205.283        4.964        1.133      276.762       51.720        0.035      335.738        6.568      856.803
11/30/2014  14:32:00     -222.319       43.549      -16.312      115.618       85.969       43.174    13367.482     7390.668     1864.017        3.710        1.131      226.544       35.349        0.024      335.789        6.654      856.814
11/30/2014  14:33:00     -123.888       20.625      -11.088       91.672       96.433       38.980     8403.806     9299.248     1519.418        1.756        0.961      125.593       43.867        0.122      335.799        6.671      856.817
11/30/2014  14:34:00     -155.057      -13.416       -9.559       63.283       58.929       45.679     4004.776     3472.658     2086.561        1.694        0.478      155.637       39.353        0.064      335.863        6.779      856.833
11/30/2014  14:35:00     -176.258      -20.065      -19.120       71.064       49.167       40.895     5050.042     2417.362     1672.382        2.049        0.457      177.397       43.174        0.059      335.798        6.669      856.852
11/30/2014  14:36:00      -78.988      -27.504       12.422       55.027       64.406       29.925     3027.924     4148.151      895.527        0.761        0.404       83.640       30.007        0.129      335.864        6.783      856.877
11/30/2014  14:37:00      -63.585       77.770       -6.559       63.849       91.985       42.102     4076.758     8461.299     1772.574        1.222        0.716      100.455       22.745        0.051      335.899        6.839      856.900
11/30/2014  14:38:00     -127.684        6.330       -5.536       55.426       40.284       36.226     3072.014     1622.773     1312.291        1.119        0.300      127.841       32.449        0.064      335.940        6.908      856.906
11/30/2014  14:39:00     -223.705       51.878      -19.543       70.785       60.852       41.990     5010.474     3702.977     1763.164        3.179        0.524      229.642       29.918        0.017      335.890        6.822      856.934
11/30/2014  14:40:00     -194.280       57.839      -27.698       70.193       52.891       27.909     4927.071     2797.437      778.886        2.518        0.425      202.707       26.410        0.017      335.877        6.802      856.959
11/30/2014  14:41:00     -243.600       65.963      -20.986       88.682       48.546       33.784     7864.443     2356.760     1141.352        3.775        0.568      252.373       32.837        0.017      335.809        6.686      856.973
11/30/2014  14:42:00     -124.298       98.156      -23.101       76.249       69.446       41.138     5813.899     4822.756     1692.331        1.897        0.616      158.381       48.719        0.095      335.843        6.746      857.010
11/30/2014  14:43:00     -163.271      105.090      -27.272       50.737       46.435       34.324     2574.226     2156.176     1178.132        2.218        0.295      194.168       27.355        0.020      335.834        6.729      857.054
11/30/2014  14:44:00      -85.557       61.432       -7.869       60.723       65.432       31.287     3687.270     4281.396      978.880        1.005        0.447      105.328       33.626        0.102      335.914        6.864      857.080
11/30/2014  14:45:00     -142.175      166.002      -32.419       42.738       69.098       35.535     1826.515     4774.592     1262.740        2.834        0.393      218.564       26.727        0.015      335.819        6.703      857.096
11/30/2014  14:46:00     -110.101      156.178      -28.307       49.575       46.207       29.822     2457.708     2135.102      889.346        2.140        0.274      191.086       29.860        0.024      335.926        6.884      857.107
11/30/2014  14:47:00     -108.667      143.737      -25.980       53.557       64.044       31.754     2868.387     4101.664     1008.342        2.056        0.399      180.191       28.037        0.024      336.121        7.209      857.105
11/30/2014  14:48:00      -74.564      164.906      -23.662       49.013       53.620       26.460     2402.264     2875.051      700.126        1.964        0.299      180.980       25.359        0.020      335.944        6.913      857.105
11/30/2014  14:49:00      -75.032      170.006      -25.707       38.458       57.844       28.798     1479.049     3345.894      829.345        2.042        0.283      185.828       24.927        0.018      335.880        6.806      857.101
11/30/2014  14:50:00     -100.007      152.122      -13.652       64.764       67.275       44.892     4194.380     4525.904     2015.335        2.203        0.537      182.051       40.994        0.051      335.824        6.712      857.114
11/30/2014  14:51:00     -116.855      206.837      -33.298       60.627       68.320       42.097     3675.658     4667.690     1772.176        3.383        0.506      237.564       41.681        0.031      335.623        6.377      857.125
11/30/2014  14:52:00     -119.463      231.320      -34.988       52.044       70.600       35.403     2708.626     4984.291     1253.382        3.897        0.447      260.347       33.392        0.016      335.584        6.312      857.137
11/30/2014  14:53:00      -93.821      102.390      -22.409       59.590       73.004       33.706     3550.936     5329.558     1136.071        1.490        0.501      138.874       41.215        0.088      335.698        6.504      857.143
11/30/2014  14:54:00     -178.498      191.845      -38.910       64.512       74.446       44.716     4161.753     5542.250     1999.492        4.094        0.585      262.042       36.692        0.020      335.618        6.369      857.156
11/30/2014  14:55:00     -158.514      185.223      -32.984       60.084       65.464       37.626     3610.147     4285.531     1415.729        3.491        0.466      243.792       38.137        0.024      335.626        6.382      857.169
11/30/2014  14:56:00     -116.007      125.336       -8.399       64.577       66.189       41.497     4170.193     4381.009     1722.000        1.975        0.514      170.783       39.508        0.054      335.665        6.448      857.185
11/30/2014  14:57:00      -93.027      101.504      -21.114       70.031       58.457       32.672     4904.274     3417.234     1067.435        1.439        0.469      137.684       31.277        0.052      335.712        6.528      857.204
11/30/2014  14:58:00      -22.457      210.052      -29.989       23.375       79.909       21.474      546.405     6385.399      461.111        2.646        0.370      211.249       21.589        0.010      335.539        6.239      857.231
11/30/2014  14:59:00      -17.308      267.356      -34.391       33.353       51.627       18.666     1112.414     2665.392      348.403        3.854        0.206      267.915        9.399        0.001      335.539        6.235      857.246
11/30/2014  15:00:00      -40.513      133.477      -18.024       36.358       78.485       24.862     1321.917     6159.892      618.136        1.394        0.405      139.489       25.262        0.033      335.687        6.485      857.261
11/30/2014  15:01:00        4.772      138.043      -22.698       32.461       32.960       21.830     1053.715     1086.386      476.560        1.110        0.131      138.125       10.773        0.006      335.565        6.284      857.268
11/30/2014  15:02:00        9.401      114.885      -17.033       33.628       48.508       23.487     1130.826     2353.011      551.632        0.881        0.202      115.269       22.020        0.036      335.542        6.246      857.271
11/30/2014  15:03:00      -16.182      159.508      -23.049       45.818       49.991       30.009     2099.311     2499.054      900.554        1.587        0.275      160.327       29.631        0.034      335.503        6.181      857.295
11/30/2014  15:04:00      -19.051      194.305      -21.169       39.366       71.746       34.273     1549.689     5147.439     1174.670        2.322        0.394      195.237       38.094        0.038      335.481        6.142      857.324
11/30/2014  15:05:00       -4.980      165.922      -23.966       41.815       73.125       34.434     1748.490     5347.238     1185.667        1.820        0.414      165.996       36.561        0.049      335.443        6.079      857.346
11/30/2014  15:06:00       -0.593      180.989      -25.303       38.370       53.197       33.436     1472.294     2829.877     1117.941        1.941        0.271      180.990       32.345        0.032      335.455        6.097      857.367
11/30/2014  15:07:00       13.265       94.824       -8.866       37.151       53.854       26.203     1380.232     2900.233      686.581        0.711        0.248       95.748       31.066        0.105      335.504        6.183      857.377
11/30/2014  15:08:00       11.654      108.244      -16.820       32.046       53.340       22.314     1026.976     2845.208      497.935        0.825        0.219      108.869       23.023        0.045      335.466        6.118      857.394
11/30/2014  15:09:00       51.976       65.575       -1.498       53.870       32.341       23.371     2901.994     1045.964      546.227        0.575        0.225       83.675       15.289        0.033      335.446        6.085      857.417
11/30/2014  15:10:00      129.668       93.738       13.075       40.153       28.711       31.897     1612.262      824.313     1017.407        1.461        0.173      160.002       21.447        0.018      335.424        6.049      857.432
11/30/2014  15:11:00       64.022       80.263       59.477       38.946       31.800       36.783     1516.807     1011.239     1353.010        0.898        0.194      102.669       27.457        0.072      335.380        5.974      857.456
11/30/2014  15:12:00       56.182       57.777       48.684       46.034       37.588       34.268     2119.132     1412.830     1174.324        0.678        0.235       80.589       32.815        0.166      335.395        6.000      857.464
11/30/2014  15:13:00       55.981       48.664       42.668       30.549       29.114       26.870      933.220      847.619      722.024        0.491        0.125       74.176       15.090        0.041      335.445        6.082      857.472
11/30/2014  15:14:00       54.463       54.875       61.065       60.158       30.962       29.022     3618.935      958.654      842.275        0.756        0.271       77.314       31.096        0.162      335.467        6.120      857.478
11/30/2014  15:15:00       37.761       27.283       38.045       52.880       31.800       30.403     2796.251     1011.247      924.346        0.417        0.237       46.586       22.147        0.226      335.473        6.130      857.483
11/30/2014  15:16:00       70.733       25.567       28.553       43.725       37.399       34.573     1911.900     1398.718     1195.279        0.549        0.225       75.211       25.546        0.115      335.451        6.094      857.505
11/30/2014  15:17:00       92.413       47.438       39.947       54.527       42.331       36.556     2973.156     1791.936     1336.364        0.924        0.305      103.877       28.383        0.075      335.502        6.180      857.535
11/30/2014  15:18:00       94.032       57.366       25.252       44.678       44.517       38.177     1996.140     1981.792     1457.446        0.910        0.272      110.149       17.153        0.024      335.402        6.012      857.568
11/30/2014  15:19:00       95.855       51.344       21.826       51.092       41.223       31.903     2610.417     1699.344     1017.791        0.881        0.266      108.740       29.028        0.071      335.381        5.976      857.571
11/30/2014  15:20:00       59.869       20.328       12.323       43.112       23.663       22.900     1858.677      559.945      524.428        0.355        0.147       63.226       13.598        0.046      335.430        6.057      857.566
11/30/2014  15:21:00       69.007       36.669        5.631       36.757       18.905       18.671     1351.092      357.415      348.615        0.410        0.103       78.144        7.853        0.010      335.396        6.002      857.552
11/30/2014  15:22:00       41.716       58.395       21.240       31.026       33.748       23.869      962.595     1138.947      569.727        0.414        0.134       71.765       19.030        0.070      335.447        6.086      857.535
11/30/2014  15:23:00       56.344       68.773       -1.904       26.393       31.876       26.332      696.568     1016.082      693.385        0.516        0.120       88.906       23.034        0.067      335.381        5.977      857.542
11/30/2014  15:24:00       31.302       46.953        7.970       32.920       28.384       22.031     1083.733      805.651      485.373        0.281        0.119       56.431       21.134        0.140      335.435        6.065      857.548
11/30/2014  15:25:00       82.139       75.349        7.438       46.414       25.777       30.357     2154.276      664.441      921.527        0.811        0.187      111.465       21.067        0.036      335.368        5.954      857.570
11/30/2014  15:26:00       90.316       47.759       15.961       52.814       31.531       32.466     2789.324      994.206     1054.049        0.776        0.242      102.166       19.473        0.036      335.388        5.988      857.585
11/30/2014  15:27:00       60.631       64.611        2.909       42.398       52.794       38.694     1797.549     2787.245     1497.212        0.697        0.304       88.604       27.601        0.097      335.401        6.010      857.589
11/30/2014  15:28:00       94.538       86.941        7.690       56.742       44.489       43.525     3219.621     1979.243     1894.421        1.182        0.355      128.437       30.260        0.056      335.299        5.839      857.608
11/30/2014  15:29:00       79.781      101.436       -6.165       64.054       53.268       42.855     4102.911     2837.510     1836.563        1.273        0.439      129.052       27.034        0.044      335.274        5.798      857.632
11/30/2014  15:30:00       59.657       66.966       -0.735       57.354       49.049       22.123     3289.463     2405.812      489.448        0.711        0.309       89.685       17.889        0.040      335.313        5.865      857.658
11/30/2014  15:31:00       77.913       74.374        5.440       56.423       52.938       43.937     3183.602     2802.461     1930.462        0.977        0.396      107.712       35.563        0.109      335.329        5.891      857.685
11/30/2014  15:32:00       48.345       29.316        5.185       53.470       43.922       32.567     2859.046     1929.130     1060.613        0.454        0.292       56.540       18.743        0.110      335.332        5.894      857.708
11/30/2014  15:33:00       46.461       94.857       -7.934       37.524       54.054       27.299     1408.043     2921.814      745.223        0.815        0.254      105.625       25.365        0.058      335.316        5.868      857.720
11/30/2014  15:34:00       75.196       72.899        5.472       57.520       50.474       40.033     3308.506     2547.636     1602.609        0.923        0.373      104.732       27.282        0.068      335.319        5.873      857.736
11/30/2014  15:35:00       24.690      107.734       -8.293       35.624       61.420       27.687     1269.096     3772.434      766.593        0.905        0.290      110.527       31.465        0.081      335.306        5.852      857.764
11/30/2014  15:36:00       88.982       80.007       16.258       54.043       37.230       38.840     2920.643     1386.068     1508.571        1.020        0.291      119.662       21.212        0.031      335.323        5.881      857.801
11/30/2014  15:37:00      107.450       82.059        0.534       38.150       43.140       30.702     1455.420     1861.062      942.619        1.127        0.213      135.201       23.155        0.029      335.317        5.870      857.823
11/30/2014  15:38:00       66.409       59.084       11.027       33.049       37.767       29.810     1092.234     1426.379      888.657        0.571        0.170       88.888       24.695        0.077      335.336        5.901      857.818
11/30/2014  15:39:00       93.573       58.169       16.503       48.082       28.301       30.416     2311.910      800.948      925.141        0.822        0.202      110.180       20.984        0.036      335.360        5.941      857.803
11/30/2014  15:40:00       59.158       33.195       12.524       53.796       30.630       33.632     2893.975      938.196     1131.084        0.486        0.248       67.834       14.026        0.043      335.373        5.963      857.797
11/30/2014  15:41:00       75.613       54.157       17.559       66.533       39.280       33.224     4426.667     1542.954     1103.817        0.801        0.354       93.007       21.198        0.052      335.293        5.829      857.791
11/30/2014  15:42:00       32.953      130.989      -14.674       48.152       53.539       30.504     2318.619     2866.470      930.521        1.229        0.306      135.071       29.766        0.049      335.273        5.797      857.808
11/30/2014  15:43:00       26.232       63.441        4.472       46.172       48.164       30.963     2131.893     2319.746      958.682        0.507        0.271       68.651       30.088        0.192      335.273        5.795      857.832
11/30/2014  15:44:00       30.405      111.480      -14.214       28.627       41.457       29.007      819.504     1718.686      841.402        0.847        0.169      115.552       18.440        0.025      335.254        5.762      857.838
11/30/2014  15:45:00       36.793       77.815        6.156       57.541       42.665       30.902     3310.991     1820.302      954.931        0.677        0.304       86.075       35.133        0.167      335.260        5.774      857.833
11/30/2014  15:46:00       40.894       65.931       -4.421       40.661       27.139       11.464     1653.327      736.523      131.434        0.428        0.126       77.583       10.327        0.018      335.292        5.828      857.826
11/30/2014  15:47:00       65.009       19.887       17.040       51.054       63.057       41.070     2606.521     3976.234     1686.749        0.659        0.413       67.982       24.520        0.130      335.374        5.966      857.830
11/30/2014  15:48:00       49.660       85.257        0.596       37.435       50.652       34.144     1401.397     2565.581     1165.799        0.743        0.257       98.666       26.647        0.073      335.278        5.804      857.845
11/30/2014  15:49:00      128.065      101.462       17.201       73.514       62.188       43.278     5404.329     3867.317     1873.002        1.907        0.557      163.386       29.288        0.032      335.265        5.783      857.857
11/30/2014  15:50:00       62.435       65.710       -7.152       48.970       48.970       26.588     2398.054     2398.042      706.909        0.688        0.275       90.642       17.650        0.038      335.264        5.783      857.879
11/30/2014  15:51:00       31.625       29.263       25.239       25.722       25.067       29.365      661.603      628.345      862.314        0.232        0.108       43.087       19.688        0.209      335.327        5.886      857.896
11/30/2014  15:52:00      102.527       59.636       23.351       46.209       43.060       28.655     2135.303     1854.135      821.119        0.971        0.241      118.609       17.473        0.022      335.334        5.898      857.913
11/30/2014  15:53:00       96.351       60.834       17.651       32.827       36.595       23.326     1077.612     1339.194      544.117        0.813        0.148      113.948       13.063        0.013      335.279        5.805      857.926
11/30/2014  15:54:00       56.708        7.634       16.440       28.957       46.879       27.600      838.508     2197.656      761.740        0.367        0.190       57.219       27.456        0.230      335.330        5.891      857.943
11/30/2014  15:55:00       64.506       15.454       23.097       26.337       18.182       18.255      693.633      330.598      333.237        0.315        0.068       66.331       13.844        0.044      335.311        5.858      857.938
11/30/2014  15:56:00       45.124       16.730       20.728       27.526       24.569       19.946      757.689      603.612      397.854        0.225        0.088       48.125       10.669        0.049      335.298        5.837      857.953
11/30/2014  15:57:00       34.577        8.792       42.554       38.192       40.729       31.678     1458.598     1658.858     1003.481        0.360        0.206       35.677       29.564        0.687      335.375        5.967      857.971
11/30/2014  15:58:00       66.218      -68.111       -3.295       44.144       42.715       29.975     1948.676     1824.596      898.476        0.685        0.234       94.994       25.927        0.074      335.377        5.970      857.986
11/30/2014  15:59:00       42.389       -9.705       25.405       42.517       58.765       41.830     1807.694     3453.353     1749.768        0.477        0.351       43.486       44.528        1.049      335.449        6.090      858.010
11/30/2014  16:00:00       92.815     -113.092      -16.679       54.147       71.215       33.228     2931.857     5071.511     1104.091        1.539        0.455      146.303       39.589        0.073      335.369        5.955      858.020
11/30/2014  16:01:00       80.853      -72.102       -2.770       51.028       67.580       38.341     2603.907     4567.016     1470.036        1.019        0.432      108.333       43.231        0.159      335.354        5.931      858.041
11/30/2014  16:02:00       11.622       27.181       54.352       25.491       25.112       20.736      649.768      630.622      429.969        0.277        0.086       29.562       13.954        0.223      335.382        5.977      858.057
11/30/2014  16:03:00        8.969      -38.142       18.740       38.027       48.254       29.713     1446.020     2328.486      882.854        0.327        0.233       39.183       29.515        0.567      335.448        6.088      858.067
11/30/2014  16:04:00       23.361      -35.434      -15.904       37.855       63.369       28.341     1432.978     4015.567      803.204        0.415        0.313       42.441       35.024        0.681      335.403        6.012      858.075
11/30/2014  16:05:00        9.913       24.921       31.022       17.097       22.726       14.223      292.293      516.486      202.287        0.135        0.051       26.820        6.839        0.065      335.411        6.027      858.076
11/30/2014  16:06:00       47.477       47.978       46.128       41.734       35.239       24.178     1741.724     1241.822      584.598        0.513        0.178       67.498       17.989        0.071      335.398        6.005      858.076
11/30/2014  16:07:00       42.405       67.584       37.568       36.165       29.829       34.474     1307.897      889.781     1188.427        0.558        0.169       79.786       27.681        0.120      335.360        5.941      858.069
11/30/2014  16:08:00       44.607       39.585       24.792       29.111       26.013       33.500      847.469      676.690     1122.218        0.341        0.132       59.639       19.114        0.103      335.312        5.863      858.077
11/30/2014  16:09:00       77.836       43.955       20.093       34.668       32.436       26.366     1201.862     1052.113      695.185        0.567        0.147       89.389       11.484        0.017      335.322        5.877      858.077
11/30/2014  16:10:00       82.703       65.481       19.144       31.091       29.823       26.250      966.623      889.396      689.079        0.702        0.127      105.487       10.518        0.010      335.304        5.847      858.068
11/30/2014  16:11:00       92.266       81.652       14.628       31.537       21.867       26.200      994.585      478.177      686.459        0.878        0.108      123.207       18.225        0.022      335.305        5.850      858.078
11/30/2014  16:12:00       92.223       44.990       16.419       41.177       34.086       28.354     1695.526     1161.888      803.931        0.723        0.183      102.612       19.605        0.037      335.310        5.859      858.080
11/30/2014  16:13:00       48.376       21.316       19.205       27.574       25.657       21.799      760.303      658.268      475.187        0.253        0.095       52.864       16.694        0.100      335.357        5.936      858.084
11/30/2014  16:14:00       40.487       31.417       34.970       50.540       33.951       30.312     2554.317     1152.655      918.824        0.424        0.231       51.247       16.594        0.105      335.372        5.962      858.112
11/30/2014  16:15:00       17.610       33.500       30.058       33.853       24.123       24.230     1146.057      581.921      587.094        0.232        0.116       37.846       19.197        0.257      335.372        5.961      858.151
11/30/2014  16:16:00       -0.459       27.198       39.669       17.340       22.424       18.293      300.670      502.839      334.625        0.173        0.057       27.202       14.817        0.297      335.415        6.033      858.174
11/30/2014  16:17:00       -0.121       17.654       25.187       15.447       19.140        9.662      238.607      366.333       93.351        0.082        0.035       17.655        9.677        0.300      335.402        6.010      858.198
11/30/2014  16:18:00       53.210       41.244        4.742       23.686       23.226       20.551      561.035      539.464      422.325        0.304        0.076       67.323       11.597        0.030      335.379        5.971      858.213
11/30/2014  16:19:00       67.419       47.693       15.443       27.206       19.168       21.012      740.151      367.422      441.499        0.430        0.077       82.582       10.237        0.015      335.351        5.924      858.222
11/30/2014  16:20:00       57.292       50.878        6.705       30.501       30.278       27.909      930.284      916.787      778.929        0.427        0.131       76.623       16.282        0.045      335.370        5.958      858.225
11/30/2014  16:21:00       85.358       51.257        5.566       24.922       26.954       19.983      621.083      726.507      399.318        0.585        0.087       99.566        8.150        0.007      335.332        5.895      858.226
11/30/2014  16:22:00       45.514       55.513       -1.167       27.241       26.568       14.819      742.053      705.880      219.610        0.341        0.083       71.786       13.911        0.038      335.355        5.934      858.222
11/30/2014  16:23:00       13.680       85.103      -11.352       27.471       18.168       10.151      754.649      330.086      103.038        0.437        0.059       86.195       10.191        0.014      335.331        5.896      858.223
11/30/2014  16:24:00       52.599       48.139       -3.980       23.904       21.742       17.693      571.421      472.702      313.040        0.323        0.068       71.302        8.440        0.014      335.339        5.906      858.219
11/30/2014  16:25:00       20.550       37.402        2.298       19.456       25.043       19.081      378.529      627.175      364.089        0.160        0.068       42.675       17.612        0.170      335.350        5.923      858.224
11/30/2014  16:26:00       40.757       75.431       -1.449       18.219       29.586       18.241      331.944      875.342      332.724        0.445        0.077       85.738       17.842        0.043      335.346        5.919      858.227
11/30/2014  16:27:00       63.288       53.455        2.474       30.126       23.065       21.784      907.578      531.973      474.528        0.439        0.096       82.842       11.661        0.020      335.319        5.873      858.227
11/30/2014  16:28:00       41.982       57.935        0.214       37.178       32.430       26.131     1382.202     1051.719      682.818        0.412        0.156       71.547       22.118        0.096      335.315        5.867      858.234
11/30/2014  16:29:00       74.056       56.388        4.975       33.843       26.911       24.249     1145.359      724.208      588.032        0.557        0.123       93.080       13.165        0.020      335.288        5.821      858.248
11/30/2014  16:30:00       34.991       68.808        3.177       31.618       39.900       27.852      999.721     1592.026      775.758        0.467        0.168       77.194       24.669        0.102      335.297        5.834      858.262
11/30/2014  16:31:00       23.028       91.547      -14.800       21.606       38.406       15.127      466.812     1474.987      228.814        0.565        0.109       94.399       14.238        0.023      335.293        5.828      858.288
11/30/2014  16:32:00       55.939       42.115        7.116       26.073       22.932       20.160      679.826      525.878      406.436        0.328        0.081       70.020       16.257        0.054      335.311        5.860      858.307
11/30/2014  16:33:00       27.887       38.274       13.688       17.883       22.323       19.678      319.794      498.312      387.207        0.182        0.060       47.356       13.457        0.081      335.317        5.871      858.325
11/30/2014  16:34:00       44.391       87.041      -11.940       34.914       45.647       23.968     1219.002     2083.667      574.444        0.678        0.194       97.708       25.287        0.067      335.314        5.866      858.336
11/30/2014  16:35:00       89.675       74.367        7.255       51.209       33.252       32.356     2622.326     1105.717     1046.902        0.920        0.239      116.500       21.178        0.033      335.291        5.825      858.348
11/30/2014  16:36:00       21.701       50.793       -1.697       21.997       31.312       18.567      483.860      980.413      344.719        0.243        0.090       55.235       17.796        0.104      335.332        5.897      858.360
11/30/2014  16:37:00        1.486       63.006       -3.738       32.592       66.764       21.521     1062.239     4457.490      463.151        0.498        0.299       63.024       29.750        0.223      335.328        5.888      858.361
11/30/2014  16:38:00       34.261       50.204       -3.869       30.084       29.804       21.992      905.071      888.263      483.637        0.299        0.114       60.781       15.689        0.067      335.332        5.895      858.357
11/30/2014  16:39:00       39.086      124.235      -19.825       37.840       52.152       29.464     1431.853     2719.858      868.141        1.119        0.251      130.239       28.531        0.048      335.282        5.813      858.352
11/30/2014  16:40:00       35.584       59.952      -10.584       25.721       21.506       21.202      661.547      462.523      449.525        0.327        0.079       69.717       16.844        0.058      335.295        5.832      858.347
11/30/2014  16:41:00       23.257       89.516      -15.042       23.135       60.315       21.777      535.221     3637.876      474.223        0.671        0.232       92.488       30.708        0.110      335.298        5.839      858.330
11/30/2014  16:42:00        7.947      162.516      -24.506       35.476       68.508       22.150     1258.546     4693.328      490.618        1.676        0.322      162.710       27.477        0.029      335.268        5.787      858.336
11/30/2014  16:43:00        0.377       83.007      -11.888       40.790       59.808       23.381     1663.845     3577.001      546.674        0.641        0.289       83.008       22.685        0.075      335.318        5.870      858.377
11/30/2014  16:44:00       -6.124       61.258       -2.323       24.723       32.931       19.871      611.213     1084.431      394.872        0.294        0.105       61.563       15.142        0.060      335.476        6.136      858.410
11/30/2014  16:45:00       -8.867      129.577      -14.468       32.267       34.172       13.761     1041.131     1167.733      189.363        0.974        0.120      129.880        6.206        0.002      335.344        5.914      858.434
11/30/2014  16:46:00       -3.710      167.568      -21.113       21.975       34.191       14.817      482.901     1169.025      219.534        1.520        0.094      167.609       13.671        0.007      335.271        5.794      858.436
11/30/2014  16:47:00      -17.191      146.291      -20.923       37.194       22.400       15.437     1383.379      501.750      238.290        1.213        0.106      147.298       15.546        0.011      335.325        5.883      858.433
11/30/2014  16:48:00        8.279      111.491       -5.385       30.228       40.304       25.995      913.737     1624.390      675.738        0.787        0.161      111.798       25.701        0.053      335.320        5.874      858.442
11/30/2014  16:49:00      -39.286       52.132       -8.798       39.857       29.739       14.583     1588.610      884.391      212.658        0.351        0.134       65.277       16.547        0.064      335.538        6.238      858.468
11/30/2014  16:50:00      -34.248       29.380       -8.328       36.302       19.626       19.936     1317.844      385.165      397.454        0.210        0.105       45.124       15.648        0.120      335.514        6.199      858.497
11/30/2014  16:51:00      -36.081       60.859      -10.468       48.378       31.277       19.675     2340.455      978.282      387.101        0.441        0.185       70.750       16.787        0.056      335.565        6.283      858.500
11/30/2014  16:52:00       15.310       81.483       -6.811       33.584       41.788       22.459     1127.887     1746.222      504.408        0.515        0.169       82.909       28.089        0.115      335.384        5.980      858.501
11/30/2014  16:53:00        0.760      121.331      -14.223       34.765       81.349       25.276     1208.606     6617.584      638.854        1.169        0.423      121.334       32.872        0.073      335.328        5.887      858.504
11/30/2014  16:54:00      -35.104      167.561      -23.316       36.887       55.212       21.846     1360.624     3048.382      477.236        1.737        0.244      171.199       20.167        0.014      335.196        5.668      858.494
11/30/2014  16:55:00      -27.046      155.634      -27.288       37.558       32.396       20.655     1410.584     1049.523      426.634        1.429        0.144      157.967       13.810        0.008      335.292        5.829      858.495
11/30/2014  16:56:00      -57.580      177.888      -23.678       37.595       69.926       28.780     1413.383     4889.689      828.264        2.132        0.357      186.975       30.393        0.026      335.280        5.808      858.522
11/30/2014  16:57:00      -53.971       96.633      -14.709       30.378       32.461       23.790      922.851     1053.699      565.966        0.750        0.127      110.684       22.516        0.041      335.331        5.893      858.566
11/30/2014  16:58:00      -37.283       82.858       -6.308       28.811       41.379       24.969      830.060     1712.228      623.433        0.573        0.158       90.860       23.178        0.065      335.323        5.879      858.610
11/30/2014  16:59:00      -22.596       96.741       -6.817       22.874       28.226       17.998      523.206      796.685      323.932        0.578        0.082       99.345       13.724        0.019      335.309        5.856      858.629
11/30/2014  17:00:00      -36.712       57.455       -4.601       25.123       31.215       22.144      631.160      974.353      490.346        0.338        0.105       68.182       13.206        0.038      335.386        5.984      858.616
11/30/2014  17:01:00       -9.449       29.550        8.068       23.687       31.335       20.081      561.055      981.855      403.248        0.149        0.097       31.024       12.093        0.152      335.419        6.038      858.604
11/30/2014  17:02:00       13.822      145.654      -21.615       22.520       34.686       17.490      507.165     1203.146      305.914        1.194        0.101      146.308       16.247        0.012      335.230        5.726      858.589
11/30/2014  17:03:00       11.636       75.720       10.167       24.812       52.132       27.908      615.642     2717.728      778.831        0.504        0.206       76.608       30.660        0.160      335.295        5.833      858.574
11/30/2014  17:04:00      -54.787      148.069      -19.293       45.553       46.669       29.961     2075.065     2177.989      897.656        1.522        0.258      157.880       25.418        0.026      335.369        5.955      858.573
11/30/2014  17:05:00      -42.622      120.203       -4.206       65.810       59.427       35.082     4330.932     3531.535     1230.763        1.269        0.455      127.536       32.708        0.066      335.345        5.917      858.586
11/30/2014  17:06:00      -86.682      123.575      -22.343       30.505       48.962       25.879      930.542     2397.273      669.704        1.364        0.200      150.946       16.630        0.012      335.343        5.912      858.611
11/30/2014  17:07:00     -116.309       73.948      -18.801       44.458       47.928       28.509     1976.520     2297.107      812.790        1.222        0.254      137.826       24.019        0.030      335.447        6.087      858.644
11/30/2014  17:08:00      -95.405       97.707      -22.107       46.661       52.172       31.570     2177.233     2721.938      996.656        1.252        0.295      136.561       20.985        0.024      335.416        6.036      858.681
11/30/2014  17:09:00      -75.058       55.725      -15.308       33.482       39.583       24.802     1121.020     1566.785      615.135        0.614        0.165       93.482       12.590        0.018      335.390        5.992      858.712
11/30/2014  17:10:00     -114.783      110.338      -23.289       56.291       51.762       33.366     3168.643     2679.264     1113.289        1.643        0.348      159.216       32.514        0.042      335.349        5.923      858.737
11/30/2014  17:11:00      -84.541      109.301      -22.084       55.346       52.471       25.944     3063.162     2753.257      673.093        1.303        0.324      138.181       20.246        0.021      335.312        5.861      858.764
11/30/2014  17:12:00     -104.477      147.316      -35.695       50.374       36.805       30.841     2537.493     1354.593      951.172        1.937        0.242      180.603       23.506        0.017      335.123        5.549      858.783
11/30/2014  17:13:00     -122.629      128.971      -19.523       73.256       64.555       36.341     5366.428     4167.402     1320.662        2.145        0.543      177.965       40.671        0.052      335.182        5.646      858.797
11/30/2014  17:14:00      -80.517       80.665      -11.638       38.095       43.466       29.240     1451.220     1889.329      855.004        0.866        0.210      113.973       22.760        0.040      335.244        5.749      858.826
11/30/2014  17:15:00      -83.298       91.717      -15.928       46.779       47.297       30.130     2188.259     2237.041      907.819        1.047        0.267      123.898       16.391        0.018      335.338        5.905      858.852
11/30/2014  17:16:00      -57.606      142.610      -19.844       50.587       75.908       26.414     2559.029     5762.089      697.706        1.653        0.451      153.805       29.359        0.036      335.337        5.901      858.876
11/30/2014  17:17:00      -71.839       84.099       -4.521       53.019       48.423       30.302     2810.997     2344.814      918.241        0.916        0.304      110.605       22.796        0.042      335.428        6.054      858.891
11/30/2014  17:18:00      -64.479      172.422      -12.662       39.718       51.412       27.678     1577.488     2643.156      766.055        1.952        0.249      184.084       18.468        0.010      335.243        5.747      858.901
11/30/2014  17:19:00      -41.052      137.739      -11.664       33.577       52.220       24.055     1127.405     2726.972      578.660        1.261        0.222      143.726       19.453        0.018      335.288        5.823      858.908
11/30/2014  17:20:00      -61.674       59.740        0.443       32.905       46.339       33.690     1082.722     2147.323     1135.047        0.587        0.218       85.864       22.969        0.072      335.310        5.859      858.903
11/30/2014  17:21:00      -34.220       89.149       -4.020       43.685       49.802       27.477     1908.355     2480.255      754.974        0.714        0.257       95.491       29.536        0.096      335.370        5.958      858.905
11/30/2014  17:22:00      -56.877       70.790       -0.227       60.811       41.128       41.756     3697.972     1691.503     1743.531        0.769        0.357       90.809       32.088        0.125      335.293        5.829      858.910
11/30/2014  17:23:00      -17.699      151.700      -18.461       39.263       51.791       29.410     1541.617     2682.348      864.929        1.438        0.254      152.729       28.921        0.036      335.195        5.667      858.918
11/30/2014  17:24:00      -29.977      100.484       -3.870       51.389       66.685       28.550     2640.857     4446.947      815.106        0.946        0.395      104.860       25.363        0.059      335.271        5.793      858.949
11/30/2014  17:25:00     -113.211       36.878      -13.702       29.441       45.040       21.631      866.799     2028.613      467.909        0.886        0.168      119.067       21.028        0.031      335.385        5.983      859.002
11/30/2014  17:26:00     -114.115       -2.226      -18.650       32.565       52.992       24.997     1060.484     2808.162      624.860        0.893        0.225      114.136       11.597        0.010      335.283        5.812      859.063
11/30/2014  17:27:00      -73.337       46.084       -9.332       31.033       71.481       33.241      963.024     5109.485     1104.978        0.738        0.359       86.614       40.038        0.214      335.221        5.712      859.096
11/30/2014  17:28:00      -76.648       31.439       -9.364       28.057       44.999       20.660      787.195     2024.920      426.851        0.509        0.162       82.845       15.448        0.035      335.254        5.766      859.096
11/30/2014  17:29:00      -38.676       78.653      -20.513       56.878       33.060       24.885     3235.070     1092.969      619.247        0.652        0.247       87.648       23.359        0.071      335.218        5.706      859.090
11/30/2014  17:30:00      -80.516       96.727      -26.757       41.394       29.259       20.320     1713.479      856.084      412.884        0.977        0.149      125.853       17.950        0.020      335.166        5.620      859.095
11/30/2014  17:31:00       -0.873       87.944       -4.445       34.133       30.876       19.624     1165.059      953.332      385.084        0.513        0.125       87.949       15.790        0.032      335.278        5.805      859.104
11/30/2014  17:32:00        6.097       32.348       -9.471       15.854       24.660       14.738      251.338      608.118      217.223        0.112        0.054       32.918       12.954        0.155      335.171        5.626      859.121
11/30/2014  17:33:00        8.833       89.976      -10.923       28.728       49.932       20.048      825.323     2493.198      401.914        0.601        0.186       90.408       21.775        0.058      335.113        5.534      859.146
11/30/2014  17:34:00       30.628       78.411       -9.065       23.153       31.869       19.107      536.060     1015.607      365.059        0.454        0.096       84.181       15.844        0.035      335.084        5.485      859.159
11/30/2014  17:35:00       52.193       46.975       -0.248       28.915       29.974       20.259      836.100      898.453      410.432        0.354        0.107       70.219       16.462        0.055      335.093        5.501      859.160
11/30/2014  17:36:00       22.352       72.647      -12.084       25.530       30.106       16.480      651.764      906.358      271.603        0.388        0.091       76.008       10.179        0.018      335.102        5.514      859.153
11/30/2014  17:37:00       38.529      130.008      -18.470       36.482       38.499       25.202     1330.958     1482.153      635.158        1.109        0.172      135.597       15.907        0.014      335.105        5.521      859.149
11/30/2014  17:38:00      -34.426      217.945      -30.952       26.134       41.603       25.986      683.000     1730.773      675.255        2.637        0.154      220.647       16.074        0.005      335.078        5.472      859.150
11/30/2014  17:39:00        4.000      113.916      -10.482       42.262       84.711       29.152     1786.116     7176.035      849.841        1.146        0.491      113.986       39.314        0.119      335.149        5.592      859.151
11/30/2014  17:40:00       51.710       70.147       -8.365       32.365       43.001       24.059     1047.505     1849.106      578.821        0.557        0.174       87.147       25.015        0.082      335.103        5.516      859.153
11/30/2014  17:41:00       26.606       42.200       12.135       31.481       27.304       21.072      991.030      745.510      444.050        0.241        0.109       49.887       20.330        0.166      335.087        5.490      859.175
11/30/2014  17:42:00       12.258       38.707      -14.302       22.269       32.315       15.638      495.889     1044.270      244.559        0.182        0.089       40.602       11.169        0.076      335.069        5.459      859.208
11/30/2014  17:43:00       16.234       49.310       -3.103       29.982       50.009       21.078      898.932     2500.862      444.272        0.327        0.192       51.913       25.701        0.245      335.095        5.502      859.250
11/30/2014  17:44:00        5.199       89.349       -1.311       29.775       43.090       30.600      886.562     1856.711      936.376        0.585        0.184       89.500       23.273        0.068      335.097        5.506      859.279
11/30/2014  17:45:00       65.445       67.564        7.559       33.461       38.280       31.256     1119.654     1465.391      976.912        0.623        0.178       94.063       28.292        0.090      335.071        5.462      859.291
11/30/2014  17:46:00       53.228       87.096       -7.372       42.138       38.704       27.822     1775.626     1497.994      774.056        0.726        0.202      102.073       25.313        0.061      335.069        5.459      859.281
11/30/2014  17:47:00       66.240       79.831       -6.637       47.882       39.960       31.245     2292.717     1596.788      976.271        0.783        0.243      103.734       25.857        0.062      335.040        5.412      859.260
11/30/2014  17:48:00       48.002       63.739        2.101       39.665       37.401       35.740     1573.295     1398.801     1277.354        0.531        0.212       79.792       27.624        0.120      335.049        5.426      859.250
11/30/2014  17:49:00       33.072       76.942       -0.639       50.941       49.277       30.463     2595.016     2428.262      927.983        0.648        0.298       83.749       22.990        0.075      335.038        5.406      859.256
11/30/2014  17:50:00       32.938       52.151        3.309       34.540       34.212       22.854     1193.026     1170.432      522.328        0.335        0.144       61.681       20.511        0.111      335.047        5.423      859.275
11/30/2014  17:51:00       57.060       45.710        3.526       23.646       19.228       20.394      559.130      369.724      415.910        0.335        0.067       73.111       13.659        0.035      335.044        5.417      859.294
11/30/2014  17:52:00       46.190       32.006        4.584       56.823       21.273       19.703     3228.858      452.561      388.204        0.362        0.203       56.196        8.210        0.021      335.045        5.418      859.310
11/30/2014  17:53:00       34.267       65.007       -2.643       23.788       27.729       22.752      565.880      768.902      517.638        0.363        0.093       73.485       16.832        0.052      335.021        5.378      859.333
11/30/2014  17:54:00       18.815       58.519      -11.027       22.725       56.399       17.437      516.437     3180.793      304.044        0.395        0.200       61.470       24.844        0.163      335.019        5.373      859.352
11/30/2014  17:55:00      -11.109      100.141      -14.764       34.039       61.556       28.013     1158.673     3789.083      784.718        0.805        0.287      100.756       34.591        0.118      335.048        5.425      859.387
11/30/2014  17:56:00        8.833      137.770      -25.442       38.576       46.351       29.328     1488.098     2148.425      860.117        1.210        0.225      138.053       28.018        0.041      335.041        5.414      859.407
11/30/2014  17:57:00       -8.831      117.978      -13.219       35.697       40.496       27.938     1274.284     1639.913      780.559        0.893        0.185      118.308       26.062        0.049      335.054        5.433      859.432
11/30/2014  17:58:00       -6.200       66.425        1.526       25.467       36.695       23.831      648.585     1346.487      567.902        0.351        0.128       66.713       26.177        0.154      335.129        5.558      859.440
11/30/2014  17:59:00        7.424       80.374      -11.103       32.466       78.632       25.594     1054.040     6183.029      655.076        0.726        0.395       80.717       30.079        0.139      335.107        5.521      859.442
11/30/2014  18:00:00      -18.505      166.375      -21.466       32.696       66.312       26.237     1069.019     4397.259      688.385        1.732        0.308      167.401       35.358        0.045      335.049        5.426      859.451
11/30/2014  18:01:00       39.371       29.445       -1.175       36.571       28.349       19.217     1337.423      803.639      369.286        0.246        0.126       49.163       13.396        0.074      335.061        5.447      859.469
11/30/2014  18:02:00       36.113       59.745       -1.073       33.664       34.302       26.473     1133.298     1176.645      700.842        0.394        0.151       69.811       23.991        0.118      335.036        5.403      859.494
11/30/2014  18:03:00       58.810       73.311        5.752       40.058       30.048       28.244     1604.622      902.878      797.699        0.609        0.165       93.984       23.343        0.062      334.999        5.342      859.509
11/30/2014  18:04:00       45.192      115.377       -8.052       33.370       76.227       31.588     1113.578     5810.582      997.782        1.167        0.396      123.912       34.101        0.076      334.986        5.319      859.514
11/30/2014  18:05:00       86.349       96.920      -13.902       49.086       60.817       27.120     2409.401     3698.652      735.516        1.194        0.342      129.806       25.340        0.038      334.992        5.329      859.513
11/30/2014  18:06:00       35.737       36.645        9.647       79.161       36.716       31.084     6266.476     1348.060      966.235        0.565        0.429       51.186       14.236        0.077      335.041        5.410      859.525
11/30/2014  18:07:00      117.741       71.103       17.855       40.810       38.669       31.697     1665.456     1495.272     1004.711        1.170        0.208      137.544       22.186        0.026      334.977        5.305      859.541
11/30/2014  18:08:00       47.757       28.015       13.354       44.225       30.192       22.753     1955.876      911.584      517.701        0.331        0.169       55.368       15.249        0.076      334.998        5.341      859.561
11/30/2014  18:09:00        7.424      116.770      -21.506       29.062       54.612       24.215      844.609     2982.423      586.388        0.928        0.221      117.006       27.821        0.057      334.958        5.273      859.586
11/30/2014  18:10:00       26.582      161.614      -22.600       45.944       54.941       28.532     2110.842     3018.477      814.080        1.664        0.297      163.785       29.068        0.031      334.941        5.245      859.606
11/30/2014  18:11:00       -3.733      182.665      -30.601       36.195       34.004       20.924     1310.077     1156.289      437.798        1.861        0.145      182.703       16.582        0.008      334.938        5.242      859.625
11/30/2014  18:12:00      -22.446       83.294       -6.436       31.131       41.572       22.896      969.121     1728.250      524.234        0.535        0.161       86.265       24.315        0.079      335.210        5.693      859.649
11/30/2014  18:13:00        2.220       87.427       -2.790       27.047       32.124       19.534      731.534     1031.964      381.560        0.490        0.107       87.455       13.617        0.024      335.065        5.451      859.673
11/30/2014  18:14:00      -31.848      137.738      -20.221       37.156       36.767       23.203     1380.566     1351.791      538.381        1.183        0.164      141.372       18.151        0.016      335.033        5.400      859.693
11/30/2014  18:15:00       -9.974       85.109       -8.438       42.421       33.483       23.228     1799.574     1121.117      539.529        0.544        0.173       85.692       22.297        0.068      335.064        5.449      859.715
11/30/2014  18:16:00       16.386      127.418       -7.252       42.582       40.766       28.015     1813.250     1661.841      784.864        1.041        0.213      128.468       18.858        0.022      335.033        5.399      859.724
11/30/2014  18:17:00        3.218      140.794      -18.895       25.626       55.282       22.647      656.714     3056.105      512.889        1.221        0.211      140.831       28.046        0.040      334.933        5.233      859.732
11/30/2014  18:18:00       -2.079       77.586        1.672       31.072       42.818       22.532      965.439     1833.409      507.677        0.467        0.165       77.614       13.285        0.029      334.929        5.224      859.737
11/30/2014  18:19:00       10.894       68.915       -9.649       21.731       23.787       17.583      472.245      565.803      309.154        0.315        0.067       69.771       10.602        0.023      334.912        5.197      859.736
11/30/2014  18:20:00       -5.613       81.575      -15.057       29.704       21.459       13.989      882.350      460.501      195.705        0.423        0.077       81.768        6.809        0.007      334.945        5.253      859.732
11/30/2014  18:21:00        1.276       50.372       -6.815       32.398       48.246       19.071     1049.602     2327.682      363.697        0.316        0.187       50.388       21.475        0.182      334.948        5.258      859.737
11/30/2014  18:22:00       -1.939       81.200       -4.176       38.759       42.946       24.959     1502.269     1844.364      622.961        0.529        0.198       81.224       27.438        0.114      334.986        5.322      859.746
11/30/2014  18:23:00      -13.241      135.615      -14.027       47.248       51.309       28.984     2232.396     2632.628      840.047        1.223        0.285      136.259       32.722        0.058      335.022        5.379      859.765
11/30/2014  18:24:00      -25.031      161.075      -26.546       19.266       63.376       16.312      371.181     4016.502      266.096        1.596        0.233      163.009       21.986        0.018      334.970        5.292      859.781
11/30/2014  18:25:00      -74.439      132.973      -16.109       40.654       72.300       32.160     1652.749     5227.339     1034.264        1.570        0.396      152.391       31.819        0.044      335.056        5.436      859.801
11/30/2014  18:26:00      -56.759      147.844      -14.991       57.172       44.892       29.841     3268.606     2015.301      890.513        1.574        0.309      158.365       24.384        0.024      334.930        5.226      859.821
11/30/2014  18:27:00      -41.433      117.891      -16.739       50.118       40.444       27.119     2511.826     1635.728      735.460        1.039        0.244      124.960       24.401        0.038      334.894        5.168      859.845
11/30/2014  18:28:00      -38.897       98.593      -20.484       38.084       43.333       23.165     1450.407     1877.748      536.623        0.776        0.193      105.988       17.619        0.028      334.965        5.287      859.865
11/30/2014  18:29:00      -68.360      108.553      -17.489       29.549       49.881       31.840      873.164     2488.122     1013.772        1.057        0.219      128.284       32.215        0.063      334.928        5.223      859.872
11/30/2014  18:30:00      -79.264       99.174      -16.461       35.970       49.478       28.732     1293.821     2448.065      825.520        1.048        0.228      126.958       22.835        0.032      334.934        5.235      859.877
11/30/2014  18:31:00      -28.522       97.306      -12.201       34.521       41.493       20.378     1191.700     1721.634      415.263        0.688        0.166      101.400       18.204        0.032      334.996        5.338      859.892
11/30/2014  18:32:00      -26.904      166.198      -22.885       33.931       50.605       22.282     1151.323     2560.870      496.486        1.654        0.210      168.362       15.598        0.009      334.858        5.107      859.895
11/30/2014  18:33:00      -47.845      157.811      -19.827       33.417       33.139       23.522     1116.713     1098.181      553.276        1.518        0.138      164.904       17.037        0.011      334.894        5.167      859.895
11/30/2014  18:34:00      -71.685      131.090      -26.052       44.794       44.350       24.863     2006.526     1966.957      618.191        1.380        0.230      149.410       14.839        0.010      334.982        5.314      859.899
11/30/2014  18:35:00      -98.220      146.381      -26.186       41.343       37.030       25.197     1709.263     1371.257      634.900        1.774        0.186      176.279       24.987        0.020      334.872        5.130      859.906
11/30/2014  18:36:00      -47.925      114.123      -15.966       29.035       66.935       23.456      843.060     4480.284      550.190        1.072        0.294      123.777       25.115        0.041      334.954        5.267      859.912
11/30/2014  18:37:00      -33.640      195.297      -22.492       30.136       40.190       22.951      908.177     1615.206      526.741        2.141        0.153      198.173       20.252        0.010      334.847        5.088      859.917
11/30/2014  18:38:00      -30.780      220.925      -29.135       24.527       77.148       30.786      601.559     5951.828      947.788        2.905        0.375      223.059       38.016        0.029      334.796        5.000      859.933
11/30/2014  18:39:00      -49.173      152.332      -20.923       45.223       61.637       26.794     2045.102     3799.159      717.921        1.631        0.328      160.072       32.381        0.041      334.827        5.056      859.931
11/30/2014  18:40:00       -1.400      161.370      -20.483       28.689       46.901       27.155      823.043     2199.659      737.371        1.511        0.188      161.376       26.030        0.026      334.792        4.997      859.925
11/30/2014  18:41:00       -7.847      189.970      -23.877       29.717       38.507       20.736      883.120     1482.783      429.982        1.976        0.140      190.132       12.626        0.004      334.761        4.945      859.910
11/30/2014  18:42:00       17.604      147.031      -24.219       22.225       36.295       14.094      493.944     1317.301      198.651        1.226        0.100      148.081       13.793        0.009      334.730        4.894      859.910
11/30/2014  18:43:00        1.508      115.573      -16.288       31.873       44.245       26.776     1015.871     1957.632      716.933        0.866        0.185      115.583       24.504        0.045      334.757        4.940      859.926
11/30/2014  18:44:00       26.286       41.760        9.629       31.976       46.869       26.486     1022.437     2196.708      701.525        0.322        0.196       49.344       27.114        0.302      334.766        4.955      859.939
11/30/2014  18:45:00       -1.627       38.974        6.593       38.969       48.874       24.540     1518.564     2388.660      602.222        0.304        0.225       39.008       24.275        0.387      334.827        5.056      859.947
11/30/2014  18:46:00       -2.220       91.531       -2.905       23.474       52.756       24.199      551.042     2783.167      585.615        0.615        0.196       91.558       26.698        0.085      334.826        5.056      859.971
11/30/2014  18:47:00      -55.200       89.372       -5.250       42.144       50.695       27.107     1776.149     2570.021      734.782        0.807        0.254      105.044       28.461        0.073      334.866        5.123      859.996
11/30/2014  18:48:00      -14.943      155.213      -18.392       35.699       40.906       22.528     1274.399     1673.275      507.512        1.405        0.173      155.930       16.798        0.012      334.807        5.023      860.025
11/30/2014  18:49:00      -63.829       60.245       -6.829       51.689       48.838       23.835     2671.772     2385.140      568.103        0.669        0.281       87.770       28.028        0.102      334.973        5.299      860.045
11/30/2014  18:50:00      -47.575      136.225      -18.021       30.046       46.108       19.718      902.747     2125.956      388.784        1.228        0.171      144.294       20.317        0.020      334.921        5.211      860.058
11/30/2014  18:51:00     -117.766      116.684      -31.686       45.050       39.312       23.179     2029.508     1545.450      537.269        1.630        0.206      165.783       24.717        0.022      334.875        5.134      860.064
11/30/2014  18:52:00     -138.072      134.648      -29.824       81.876       67.169       39.669     6703.689     4511.685     1573.633        2.543        0.639      192.857       40.814        0.045      334.746        4.919      860.062
11/30/2014  18:53:00      -20.704      161.965      -19.714       36.617       52.262       22.716     1340.786     2731.267      516.032        1.582        0.229      163.283       24.186        0.022      334.721        4.878      860.048
11/30/2014  18:54:00      -37.775       99.993      -13.529       36.329       42.784       26.641     1319.821     1830.489      709.736        0.773        0.193      106.890       20.200        0.036      334.753        4.934      860.025
11/30/2014  18:55:00      -71.199      183.646      -21.056       53.532       70.779       34.706     2865.664     5009.619     1204.501        2.416        0.454      196.964       33.980        0.030      334.795        5.000      860.031
11/30/2014  18:56:00      -65.710      217.038      -26.770       42.583       63.903       31.906     1813.283     4083.547     1017.991        2.953        0.346      226.767       26.113        0.013      334.753        4.928      860.046
11/30/2014  18:57:00      -83.410      138.985      -23.385       41.678       48.553       29.193     1737.067     2357.434      852.218        1.588        0.247      162.093       20.119        0.015      334.868        5.123      860.051
11/30/2014  18:58:00      -21.086      148.587      -21.276       38.447       56.281       26.436     1478.157     3167.506      698.872        1.416        0.267      150.076       24.635        0.027      334.810        5.028      860.048
11/30/2014  18:59:00      -70.340       68.641      -11.792       45.257       39.566       29.989     2048.175     1565.432      899.313        0.715        0.226       98.281       22.948        0.055      334.929        5.226      860.045
11/30/2014  19:00:00      -25.504      182.421      -16.057       26.733       35.151       23.140      714.639     1235.579      535.478        1.834        0.124      184.195       18.972        0.011      334.723        4.882      860.055
11/30/2014  19:01:00      -24.835       78.096        6.503       28.832       33.145       24.449      831.265     1098.572      597.759        0.464        0.126       81.949       17.165        0.044      334.882        5.148      860.055
11/30/2014  19:02:00      -35.286      122.120      -11.175       38.359       39.796       30.101     1471.384     1583.691      906.063        1.012        0.198      127.116       19.574        0.024      334.862        5.114      860.045
11/30/2014  19:03:00      -56.722      163.873      -11.714       33.898       48.539       31.278     1149.054     2356.020      978.313        1.735        0.224      173.412       25.140        0.021      334.818        5.042      860.047
11/30/2014  19:04:00     -101.770       70.935      -13.167       54.373       44.778       34.830     2956.452     2005.069     1213.135        1.087        0.309      124.052       24.004        0.037      334.939        5.242      860.067
11/30/2014  19:05:00     -113.580       54.453      -15.146       37.593       31.476       30.095     1413.215      990.752      905.685        0.970        0.165      125.958       22.750        0.033      334.895        5.169      860.096
11/30/2014  19:06:00      -75.279      103.100      -14.158       31.638       46.085       29.974     1000.992     2123.860      898.421        1.026        0.201      127.658       25.307        0.039      334.860        5.111      860.129
11/30/2014  19:07:00      -58.930       90.849       -4.710       38.220       34.233       27.126     1460.779     1171.923      735.823        0.756        0.168      108.288       23.835        0.048      334.829        5.061      860.158
11/30/2014  19:08:00      -44.296       91.111      -10.671       50.899       43.515       22.014     2590.692     1893.585      484.595        0.767        0.248      101.308       17.937        0.031      334.856        5.105      860.197
11/30/2014  19:09:00      -72.702       49.387      -13.791       37.616       37.182       20.964     1414.969     1382.487      439.481        0.558        0.162       87.890       22.667        0.067      334.883        5.149      860.235
11/30/2014  19:10:00     -100.621      130.398      -25.508       34.935       61.791       25.086     1220.461     3818.135      629.318        1.672        0.283      164.707       26.589        0.026      334.734        4.901      860.255
11/30/2014  19:11:00      -91.380       95.183      -13.952       51.169       43.700       28.103     2618.296     1909.648      789.785        1.146        0.266      131.947       26.587        0.041      334.887        5.156      860.250
11/30/2014  19:12:00      -74.595      108.236      -15.705       55.268       65.185       29.758     3054.537     4249.141      885.524        1.286        0.409      131.451       25.919        0.039      334.844        5.085      860.238
11/30/2014  19:13:00      -71.023       92.056      -22.906       22.286       27.248       20.032      496.663      742.477      401.280        0.784        0.082      116.269       14.382        0.015      334.831        5.063      860.227
11/30/2014  19:14:00      -51.604       99.923       -7.293       42.206       45.991       29.357     1781.377     2115.193      861.851        0.873        0.238      112.462       25.879        0.053      334.842        5.082      860.223
11/30/2014  19:15:00      -45.993      170.628      -27.489       43.526       75.729       32.088     1894.487     5734.821     1029.640        2.032        0.433      176.718       34.347        0.038      334.778        4.973      860.223
11/30/2014  19:16:00      -94.125      158.361      -28.561       62.170       52.159       25.259     3865.048     2720.553      638.003        2.099        0.361      184.222       17.110        0.009      334.807        5.021      860.217
11/30/2014  19:17:00      -91.878      115.870      -20.566       57.076       62.476       32.860     3257.667     3903.253     1079.775        1.526        0.412      147.876       34.673        0.055      334.866        5.122      860.218
11/30/2014  19:18:00     -123.315      139.806      -27.155       59.517       60.596       39.414     3542.238     3671.919     1553.440        2.213        0.438      186.420       31.145        0.028      334.811        5.027      860.211
11/30/2014  19:19:00      -79.169      181.229      -27.893       57.212       76.690       36.327     3273.195     5881.356     1319.665        2.518        0.524      197.766       40.818        0.043      334.772        4.961      860.211
11/30/2014  19:20:00      -89.706      116.376      -20.173       49.937       52.766       28.757     2493.658     2784.248      826.993        1.405        0.305      146.937       21.206        0.021      334.816        5.038      860.227
11/30/2014  19:21:00     -121.580      144.378      -32.162       46.739       65.528       31.122     2184.573     4293.925      968.569        2.205        0.372      188.750       32.886        0.030      334.786        4.986      860.251
11/30/2014  19:22:00      -66.783      134.394      -29.636       43.418       48.752       26.322     1885.138     2376.746      692.824        1.418        0.248      150.073       27.669        0.034      334.704        4.850      860.262
11/30/2014  19:23:00      -35.718      113.792       -6.490       37.345       69.812       34.646     1394.637     4873.729     1200.334        1.087        0.373      119.266       37.479        0.099      334.853        5.100      860.248
11/30/2014  19:24:00      -79.048      171.686      -16.564       34.700       49.611       29.310     1204.122     2461.296      859.051        2.026        0.226      189.010       26.924        0.020      334.794        5.001      860.249
11/30/2014  19:25:00      -65.773       99.107      -14.674       32.844       35.052       23.697     1078.724     1228.665      561.533        0.862        0.143      118.947       20.098        0.029      334.780        4.978      860.274
11/30/2014  19:26:00      -73.856       84.658      -15.527       34.017       35.366       20.382     1157.152     1250.775      415.425        0.784        0.141      112.346       20.581        0.034      334.830        5.061      860.308
11/30/2014  19:27:00      -34.802       71.378       -7.649       46.503       37.834       19.971     2162.564     1431.401      398.858        0.518        0.200       79.411       17.351        0.048      334.918        5.208      860.333
11/30/2014  19:28:00      -19.614      106.001      -15.602       25.096       45.950       23.545      629.815     2111.411      554.389        0.758        0.165      107.801       21.278        0.039      334.858        5.108      860.355
11/30/2014  19:29:00       -9.740       71.757        0.982       30.671       30.936       19.883      940.680      957.039      395.338        0.377        0.115       72.415       18.603        0.066      334.901        5.180      860.385
11/30/2014  19:30:00      -36.006       72.875      -12.856       20.993       18.881       15.377      440.696      356.508      236.456        0.390        0.052       81.285        6.512        0.006      334.910        5.193      860.411
11/30/2014  19:31:00      -26.716       79.134      -12.490       28.530       30.475       20.737      813.938      928.752      430.028        0.465        0.109       83.522       21.542        0.067      334.964        5.285      860.418
11/30/2014  19:32:00        7.182       62.896       -3.820       21.061       36.435       19.635      443.586     1327.496      385.534        0.309        0.108       63.305       20.916        0.109      334.935        5.235      860.416
11/30/2014  19:33:00       -9.152      113.908      -17.181       20.434       37.700       20.433      417.559     1421.258      417.519        0.780        0.113      114.275       20.899        0.033      334.807        5.023      860.423
11/30/2014  19:34:00       -3.528       81.602       -9.747       29.252       39.745       20.485      855.702     1579.650      419.631        0.481        0.143       81.678       21.205        0.067      334.777        4.974      860.443
11/30/2014  19:35:00       12.126      166.602      -26.773       26.000       38.112       25.774      676.008     1452.528      664.283        1.571        0.140      167.043       21.645        0.017      334.735        4.904      860.453
11/30/2014  19:36:00      -34.246      135.380      -18.356       46.730       56.778       21.077     2183.692     3223.770      444.252        1.284        0.293      139.645       17.957        0.017      334.908        5.191      860.465
11/30/2014  19:37:00      -23.216      126.481       -7.287       33.851       49.224       25.257     1145.924     2422.962      637.931        1.040        0.210      128.594       25.364        0.039      334.939        5.242      860.482
11/30/2014  19:38:00      -11.567       36.142        0.266       21.976       30.770       24.912      482.966      946.781      620.618        0.174        0.103       37.948       12.316        0.105      334.937        5.238      860.499
11/30/2014  19:39:00      -57.778       77.905      -13.624       27.240       32.845       23.091      742.025     1078.801      533.201        0.597        0.118       96.992       15.286        0.025      334.875        5.135      860.510
11/30/2014  19:40:00      -58.653      115.053      -26.048       24.769       33.438       21.134      613.528     1118.070      446.631        0.977        0.109      129.141       10.010        0.006      334.929        5.225      860.520
11/30/2014  19:41:00      -65.957      106.886      -10.664       39.929       35.291       28.362     1594.342     1245.483      804.427        0.977        0.182      125.598       20.362        0.026      334.949        5.259      860.527
11/30/2014  19:42:00      -76.834       53.169      -10.022       20.336       25.896       23.630      413.572      670.614      558.365        0.524        0.082       93.436       12.357        0.017      335.078        5.473      860.551
11/30/2014  19:43:00      -46.905       48.055       -2.793       29.468       26.565       21.558      868.392      705.679      464.760        0.328        0.102       67.152       22.470        0.112      334.950        5.262      860.561
11/30/2014  19:44:00     -115.123       94.280      -31.774       38.969       49.403       20.697     1518.606     2440.622      428.346        1.377        0.219      148.802       25.160        0.029      334.926        5.219      860.560
11/30/2014  19:45:00     -110.023       93.853      -34.830       35.170       30.255       16.348     1236.923      915.376      267.243        1.227        0.121      144.615       14.334        0.010      334.873        5.131      860.560
11/30/2014  19:46:00      -51.161       87.718      -19.746       17.628       21.168       15.067      310.755      448.089      227.018        0.584        0.049      101.548        8.362        0.007      334.838        5.074      860.565
11/30/2014  19:47:00      -25.021       71.272       -1.341       17.445       24.388       16.019      304.336      594.789      256.608        0.343        0.058       75.537       12.111        0.026      334.917        5.206      860.571
11/30/2014  19:48:00      -20.045       55.931       -1.516       17.602       29.851       15.875      309.841      891.085      252.025        0.249        0.073       59.415       16.665        0.079      334.894        5.169      860.574
11/30/2014  19:49:00       -8.382      109.025       -0.458       27.940       51.111       23.854      780.645     2612.287      569.022        0.796        0.198      109.347       26.816        0.060      334.870        5.129      860.559
11/30/2014  19:50:00      -32.445      124.061      -11.672       24.779       38.753       19.406      614.005     1501.824      376.608        0.954        0.125      128.234       12.652        0.010      334.956        5.270      860.539
11/30/2014  19:51:00      -17.447      111.108       -4.968       27.902       39.274       23.336      778.519     1542.439      544.560        0.777        0.143      112.469       24.846        0.049      334.822        5.049      860.537
11/30/2014  19:52:00        2.191      130.707      -19.372       24.486       24.838       15.911      599.577      616.928      253.147        0.947        0.073      130.725       14.114        0.012      334.783        4.983      860.535
11/30/2014  19:53:00        1.070       88.069      -17.956       30.126       34.644       12.679      907.578     1200.185      160.760        0.517        0.113       88.076       16.129        0.034      334.778        4.976      860.536
11/30/2014  19:54:00       -6.937       90.766      -15.614       45.746       55.675       23.186     2092.677     3099.732      537.573        0.713        0.286       91.031       32.065        0.124      334.843        5.083      860.544
11/30/2014  19:55:00        6.087       89.107       -5.346       39.789       37.213       25.953     1583.128     1384.820      673.571        0.582        0.182       89.315       22.518        0.064      334.824        5.052      860.562
11/30/2014  19:56:00      -36.559       99.320      -14.844       48.009       31.714       19.780     2304.861     1005.784      391.267        0.756        0.185      105.835       12.389        0.014      334.970        5.294      860.577
11/30/2014  19:57:00      -38.113      145.071      -15.183       31.102       35.245       22.395      967.306     1242.226      501.536        1.272        0.136      149.994       17.456        0.014      334.924        5.218      860.585
11/30/2014  19:58:00      -59.129       66.980       -4.933       36.468       45.005       20.342     1329.880     2025.478      413.788        0.589        0.188       89.345       22.473        0.063      334.992        5.330      860.586
11/30/2014  19:59:00      -40.943       27.146        4.464       36.495       24.609       19.821     1331.863      605.611      392.869        0.238        0.117       49.125       16.414        0.112      335.081        5.479      860.605
11/30/2014  20:00:00       -9.625        9.249       13.006       29.595       17.300       15.430      875.835      299.275      238.093        0.088        0.071       13.349       15.270        1.309      334.935        5.237      860.643
11/30/2014  20:01:00      -66.724       38.846       -9.898       22.692       28.248       13.876      514.947      797.944      192.530        0.378        0.075       77.208       10.380        0.018      335.025        5.385      860.667
11/30/2014  20:02:00      -55.741       55.632      -21.107       33.757       25.864       15.004     1139.508      668.972      225.122        0.434        0.102       78.752       16.265        0.043      334.825        5.054      860.678
11/30/2014  20:03:00      -32.558       60.395       -3.357       30.721       22.017       16.759      943.796      484.764      280.852        0.321        0.085       68.612       10.040        0.021      335.049        5.425      860.684
11/30/2014  20:04:00      -73.585       96.906      -20.900       24.842       29.808       17.779      617.142      888.509      316.103        0.853        0.091      121.678       13.787        0.013      334.854        5.102      860.691
11/30/2014  20:05:00       -9.355       96.735      -11.729       32.214       32.841       20.029     1037.739     1078.533      401.175        0.605        0.126       97.186       20.365        0.044      334.915        5.203      860.695
11/30/2014  20:06:00      -17.293      124.163      -18.408       19.700       35.236       15.918      388.101     1241.577      253.379        0.897        0.094      125.361       15.529        0.015      334.769        4.960      860.696
11/30/2014  20:07:00      -12.528       95.569      -14.276       22.498       21.758       13.330      506.149      473.429      177.687        0.533        0.058       96.387       10.374        0.012      334.854        5.103      860.714
11/30/2014  20:08:00        9.171       76.576       -6.548       17.972       38.773       24.370      322.983     1503.314      593.905        0.421        0.121       77.123       22.520        0.085      334.782        4.981      860.739
11/30/2014  20:09:00        3.681       38.525        4.801       20.723       48.444       16.532      429.423     2346.862      273.294        0.228        0.152       38.701       20.895        0.292      334.817        5.039      860.754
11/30/2014  20:10:00       -1.448      136.887      -14.120       20.835       18.265       14.674      434.116      333.616      215.332        0.996        0.049      136.894        8.781        0.004      334.789        4.993      860.771
11/30/2014  20:11:00        5.749      109.568      -16.466       26.554       45.818       19.257      705.129     2099.281      370.835        0.774        0.159      109.719       15.197        0.019      334.763        4.952      860.776
11/30/2014  20:12:00       20.768       90.918      -10.527       26.731       54.409       23.211      714.566     2960.366      538.739        0.651        0.211       93.259       24.595        0.070      334.783        4.983      860.779
11/30/2014  20:13:00       18.500       99.949      -25.490       28.244       34.459       14.774      797.696     1187.435      218.279        0.659        0.110      101.646       10.695        0.011      334.776        4.972      860.785
11/30/2014  20:14:00        6.008      111.146      -14.329       19.908       38.880       14.046      396.311     1511.687      197.303        0.735        0.105      111.308       16.328        0.022      334.741        4.915      860.803
11/30/2014  20:15:00       13.290      100.802      -13.516       20.582       32.633       19.355      423.626     1064.918      374.614        0.619        0.093      101.674       21.956        0.047      334.716        4.872      860.825
11/30/2014  20:16:00       11.546       53.797        1.264       18.267       27.204       16.941      333.684      740.070      286.986        0.219        0.068       55.022       13.695        0.062      334.728        4.893      860.831
11/30/2014  20:17:00       23.237       41.560      -11.070       14.827       24.297       11.749      219.835      590.341      138.033        0.167        0.047       47.616       11.305        0.056      334.737        4.908      860.829
11/30/2014  20:18:00       -4.489      142.122      -25.567       28.340       30.744       15.368      803.171      945.222      236.184        1.143        0.099      142.193       14.959        0.011      334.716        4.872      860.843
11/30/2014  20:19:00      -29.051       83.573      -17.356       25.709       22.963       15.959      660.966      527.304      254.685        0.479        0.072       88.479       11.754        0.018      334.763        4.951      860.855
11/30/2014  20:20:00      -29.170       70.104       -4.820       37.841       30.524       25.202     1431.914      931.693      635.132        0.439        0.150       75.931       20.177        0.071      334.915        5.203      860.854
11/30/2014  20:21:00      -16.546      140.458      -24.730       31.461       34.234       18.588      989.765     1171.979      345.532        1.156        0.125      141.429       18.733        0.018      334.786        4.988      860.847
11/30/2014  20:22:00      -12.613       97.310       -1.978       27.566       41.428       24.796      759.867     1716.273      614.843        0.636        0.155       98.124       26.930        0.075      334.852        5.098      860.843
11/30/2014  20:23:00      -25.083      113.855      -18.270       32.147       28.646       16.916     1033.426      820.619      286.164        0.803        0.107      116.585       10.770        0.009      334.897        5.172      860.847
11/30/2014  20:24:00      -16.097      133.133       -6.954       23.654       53.800       23.610      559.529     2894.492      557.429        1.102        0.201      134.103       27.761        0.043      334.828        5.057      860.860
11/30/2014  20:25:00      -12.116       70.401       -6.004       28.299       22.004       18.742      800.843      484.187      351.251        0.339        0.082       71.436       13.132        0.034      334.921        5.212      860.881
11/30/2014  20:26:00      -13.458       90.295       -9.973       31.022       32.267       18.936      962.382     1041.147      358.566        0.540        0.118       91.292       14.409        0.025      334.962        5.281      860.903
11/30/2014  20:27:00       -7.230      137.613      -18.023       18.367       17.333       13.298      337.360      300.433      176.836        1.006        0.041      137.803        8.406        0.004      334.833        5.066      860.900
11/30/2014  20:28:00        1.655       70.258       -5.638       38.217       26.399       16.387     1460.518      696.909      268.535        0.370        0.121       70.278       12.221        0.030      334.867        5.122      860.873
11/30/2014  20:29:00       29.631       49.344        1.412       32.797       30.595       18.104     1075.670      936.041      327.767        0.283        0.117       57.557       18.559        0.104      334.769        4.960      860.864
11/30/2014  20:30:00        6.906       99.174      -17.657       40.358       52.540       15.274     1628.739     2760.480      233.290        0.741        0.231       99.414       17.905        0.032      334.721        4.880      860.912
11/30/2014  20:31:00      -19.972       61.957       -9.574       25.439       40.002       13.855      647.162     1600.194      191.963        0.338        0.122       65.097       14.999        0.053      334.836        5.072      860.972
11/30/2014  20:32:00      -53.810       63.764      -17.890       20.567       26.738       13.349      422.989      714.935      178.204        0.430        0.066       83.435       11.286        0.018      334.815        5.037      861.008
11/30/2014  20:33:00      -42.122      102.770      -17.854       31.486       32.540       15.740      991.386     1058.882      247.744        0.748        0.115      111.067       12.601        0.013      334.871        5.128      861.011
11/30/2014  20:34:00      -26.129      120.378      -19.215       20.299       33.697       12.019      412.048     1135.501      144.448        0.862        0.085      123.181        8.503        0.005      334.816        5.039      861.019
11/30/2014  20:35:00      -19.474       69.068       -0.056       26.230       25.030       17.880      688.016      626.496      319.704        0.339        0.082       71.761        7.318        0.010      334.970        5.294      861.044
11/30/2014  20:36:00        0.813       93.464       -4.471       11.641       26.368       13.666      135.508      695.294      186.770        0.489        0.051       93.468        8.376        0.008      334.805        5.018      861.054
11/30/2014  20:37:00        5.765       90.117       -8.254       21.086       31.334       15.737      444.627      981.802      247.665        0.495        0.084       90.301       17.956        0.040      334.802        5.014      861.027
11/30/2014  20:38:00       27.555       99.081      -11.452       27.933       47.667       27.262      780.240     2272.146      743.226        0.725        0.190      102.841       30.710        0.089      334.795        5.001      860.978
11/30/2014  20:39:00       30.102       43.079       -5.802       34.595       37.746       19.221     1196.810     1424.791      369.459        0.289        0.150       52.554       19.664        0.140      334.797        5.006      860.944
11/30/2014  20:40:00       12.416      102.845      -12.698       31.258       40.578       18.827      977.063     1646.582      354.441        0.693        0.149      103.591       22.867        0.049      334.761        4.950      860.970
11/30/2014  20:41:00       12.068       87.481      -15.405        8.983       11.787        6.348       80.701      138.939       40.296        0.415        0.013       88.310        3.103        0.001      334.753        4.938      861.018
11/30/2014  20:42:00       -8.408       30.279       -0.229       18.792       24.435       13.264      353.143      597.076      175.930        0.106        0.056       31.425       13.514        0.185      334.879        5.142      861.067
11/30/2014  20:43:00      -13.778      126.051       -9.044       17.614       36.403       15.494      310.254     1325.156      240.054        0.902        0.094      126.802        6.215        0.002      334.834        5.066      861.102
11/30/2014  20:44:00       -2.153       84.637       -6.660       14.946       31.848       15.794      223.376     1014.264      249.447        0.435        0.074       84.664       17.380        0.042      334.821        5.047      861.113
11/30/2014  20:45:00       11.839       75.017      -14.825       11.325       21.125       10.951      128.249      446.247      119.915        0.334        0.035       75.945        9.241        0.015      334.788        4.994      861.131
11/30/2014  20:46:00        9.756       24.491        0.315       17.310       28.524       14.491      299.647      813.635      209.995        0.101        0.066       26.363       14.081        0.285      334.813        5.032      861.138
11/30/2014  20:47:00       13.022       63.021        0.595       22.019       30.514       17.134      484.819      931.083      293.586        0.293        0.085       64.352       15.820        0.060      334.804        5.017      861.132
11/30/2014  20:48:00       20.567      107.867      -19.523       15.735       22.015        9.601      247.593      484.671       92.181        0.663        0.041      109.810        9.437        0.007      334.796        5.003      861.120
11/30/2014  20:49:00      -15.288      128.507      -17.226       15.155       21.174       13.266      229.689      448.346      175.985        0.895        0.043      129.413        5.528        0.002      334.864        5.115      861.112
11/30/2014  20:50:00       11.466       80.403      -13.422       21.781       17.535       13.540      474.395      307.477      183.330        0.387        0.048       81.216        6.663        0.007      334.824        5.051      861.117
11/30/2014  20:51:00        7.457       68.799       -8.657       15.901       32.810       19.448      252.848     1076.505      378.243        0.329        0.085       69.202       19.711        0.081      334.815        5.037      861.140
11/30/2014  20:52:00        8.983       83.571       -8.216       16.509       29.331       15.481      272.540      860.291      239.661        0.425        0.069       84.052       15.675        0.035      334.837        5.073      861.157
11/30/2014  20:53:00       -1.404       61.617       -0.398       23.070       32.988       18.698      532.221     1088.185      349.601        0.288        0.099       61.633       15.127        0.060      334.865        5.120      861.171
11/30/2014  20:54:00        4.333       34.053        1.311       16.027       32.047       11.994      256.867     1027.004      143.847        0.130        0.071       34.327        6.245        0.033      334.839        5.077      861.165
11/30/2014  20:55:00       17.388       45.871       -9.047       17.850       21.088       16.724      318.638      444.702      279.689        0.177        0.052       49.056       15.503        0.100      334.791        4.995      861.166
11/30/2014  20:56:00       -2.335       64.206       -9.849       15.800       15.947       12.156      249.636      254.296      147.764        0.244        0.033       64.249       10.230        0.025      334.736        4.904      861.170
11/30/2014  20:57:00        3.927       65.588       -8.263       14.444       10.600        9.057      208.641      112.362       82.037        0.239        0.020       65.706        6.588        0.010      334.799        5.011      861.182
11/30/2014  20:58:00        9.072       74.852      -10.701       10.262       18.377        8.652      105.315      337.716       74.852        0.316        0.026       75.400        4.116        0.003      334.777        4.973      861.184
11/30/2014  20:59:00        0.826       60.605      -12.481        6.920       11.717        6.912       47.886      137.281       47.780        0.203        0.012       60.611        3.641        0.004      334.739        4.909      861.184
11/30/2014  21:00:00       10.758       51.119       -6.152       10.231        7.578        6.461      104.672       57.425       41.749        0.149        0.010       52.238        4.377        0.007      334.738        4.912      861.190
11/30/2014  21:01:00       14.194       41.689       -9.183        9.633       10.481        7.835       92.793      109.859       61.387        0.114        0.013       44.039        4.214        0.009      334.759        4.946      861.207
11/30/2014  21:02:00       13.433       34.205       -6.338       12.889       13.922        8.143      166.127      193.827       66.307        0.091        0.021       36.749        7.944        0.047      334.756        4.941      861.194
11/30/2014  21:03:00       29.319       37.355        1.974       19.953       11.835        9.853      398.109      140.062       97.088        0.145        0.032       47.487        7.903        0.028      334.775        4.970      861.159
11/30/2014  21:04:00       65.137       40.560        3.723        9.160       10.978        7.162       83.910      120.524       51.289        0.308        0.013       76.733        4.047        0.003      334.806        5.021      861.122
11/30/2014  21:05:00       50.551       36.148        1.815       21.559       18.595       16.098      464.801      345.781      259.160        0.247        0.053       62.146       13.636        0.048      334.832        5.065      861.114
11/30/2014  21:06:00       39.473       48.968        1.388       25.362       33.572       23.984      643.231     1127.083      575.249        0.315        0.117       62.896       24.957        0.157      334.786        4.989      861.135
11/30/2014  21:07:00       11.830       47.631       -5.830       13.085       17.717       13.810      171.213      313.904      190.703        0.156        0.034       49.078       10.633        0.047      334.784        4.983      861.159
11/30/2014  21:08:00       -3.427       94.540      -15.260       16.478       19.722       12.936      271.517      388.946      167.348        0.500        0.041       94.602        9.353        0.010      334.898        5.176      861.181
11/30/2014  21:09:00        3.150       74.515       -9.285        8.067       18.374       11.544       65.071      337.598      133.268        0.309        0.027       74.582        9.121        0.015      334.755        4.940      861.208
11/30/2014  21:10:00        8.383       65.571       -3.681        7.891       19.357       10.237       62.264      374.680      104.796        0.246        0.027       66.105       10.194        0.024      334.774        4.971      861.225
11/30/2014  21:11:00       14.999       61.620       -1.435       10.456       21.810       12.196      109.329      475.686      148.731        0.238        0.037       63.419        9.203        0.021      334.782        4.980      861.242
11/30/2014  21:12:00       10.194       43.442        1.057       15.208       15.885       12.055      231.277      252.348      145.335        0.131        0.031       44.622       13.234        0.088      334.788        4.988      861.265
11/30/2014  21:13:00       11.442       45.599       -1.278       16.334       21.387       14.494      266.804      457.389      210.080        0.157        0.047       47.013       14.373        0.093      334.796        5.007      861.288
11/30/2014  21:14:00       17.408       59.855      -10.038       14.430       17.144        9.586      208.215      293.917       91.885        0.229        0.030       62.335        5.777        0.009      334.790        4.996      861.306
11/30/2014  21:15:00       29.406       50.703       -2.341       23.098       26.162       17.261      533.525      684.425      297.948        0.248        0.076       58.613       17.265        0.087      334.798        5.010      861.339
11/30/2014  21:16:00       10.074       47.287       -5.270       11.585       14.390        9.131      134.206      207.059       83.383        0.139        0.021       48.348        8.219        0.029      334.815        5.038      861.364
11/30/2014  21:17:00       24.467       70.459       -8.622       15.895       19.587       10.088      252.652      383.650      101.770        0.319        0.037       74.587        8.386        0.013      334.810        5.031      861.381
11/30/2014  21:18:00       14.103       59.498       -5.805       12.930       22.552       13.314      167.182      508.579      177.258        0.231        0.043       61.147       13.293        0.047      334.831        5.063      861.389
11/30/2014  21:19:00       15.877       31.962        6.232       15.440       22.404       16.134      238.405      501.960      260.300        0.116        0.050       35.688       12.830        0.129      334.865        5.121      861.406
11/30/2014  21:20:00       25.672       48.639       -2.706       23.986       24.001       18.743      575.331      576.029      351.290        0.227        0.075       54.998       17.394        0.100      334.824        5.050      861.409
11/30/2014  21:21:00       37.157       33.308       -2.693       22.287       22.415       13.679      496.708      502.410      187.125        0.184        0.059       49.900       10.866        0.047      334.810        5.030      861.405
11/30/2014  21:22:00       36.362       32.524       -0.523       19.435       20.930       12.284      377.709      438.072      150.896        0.167        0.048       48.786        8.070        0.027      334.834        5.069      861.421
11/30/2014  21:23:00       31.052       36.644       -1.517       16.408       21.776       12.819      269.223      474.203      164.317        0.161        0.045       48.032       13.597        0.080      334.842        5.081      861.452
11/30/2014  21:24:00       31.996       13.598        2.293        8.839        8.606        7.190       78.127       74.063       51.697        0.071        0.010       34.766        2.203        0.004      334.857        5.106      861.485
11/30/2014  21:25:00       26.071       29.379       -1.206       13.306        9.010       11.568      177.062       81.174      133.814        0.097        0.020       39.278        7.974        0.041      334.821        5.047      861.500
11/30/2014  21:26:00       50.056       24.014        7.181       10.407        7.886        9.311      108.311       62.189       86.704        0.170        0.013       55.518        3.651        0.004      334.838        5.073      861.514
11/30/2014  21:27:00       52.984       35.507       11.948       19.801       16.154       14.580      392.087      260.942      212.580        0.254        0.043       63.782        8.436        0.017      334.842        5.079      861.525
11/30/2014  21:28:00       52.032       43.225        8.572        8.879        9.737       12.625       78.829       94.805      159.393        0.249        0.017       67.644        7.103        0.011      334.839        5.074      861.521
11/30/2014  21:29:00       81.042       48.915       13.817       32.875       21.777       24.276     1080.754      474.243      589.316        0.565        0.107       94.660       13.785        0.021      334.825        5.053      861.506
11/30/2014  21:30:00       83.488       51.246        9.836       41.447       29.845       29.570     1717.837      890.711      874.403        0.659        0.174       97.961       13.499        0.019      334.809        5.025      861.493
11/30/2014  21:31:00       68.644       44.537       -2.426       32.194       21.335       15.876     1036.448      455.199      252.050        0.422        0.087       81.826       10.612        0.017      334.806        5.022      861.507
11/30/2014  21:32:00       32.348       28.360        0.376       20.260       16.335       17.191      410.458      266.846      295.515        0.141        0.049       43.020       12.339        0.082      334.841        5.079      861.533
11/30/2014  21:33:00       21.166       14.701       13.055       17.831       12.969       12.154      317.956      168.205      147.713        0.073        0.032       25.771        8.886        0.119      334.878        5.143      861.554
11/30/2014  21:34:00       69.892       46.994        8.738       21.673       15.633       16.713      469.723      244.376      279.326        0.408        0.050       84.222       10.459        0.015      334.807        5.021      861.553
11/30/2014  21:35:00       18.260       58.297      -10.730       19.707       27.762       14.080      388.367      770.739      198.256        0.260        0.068       61.089       14.083        0.053      334.802        5.017      861.550
11/30/2014  21:36:00       12.723       76.955      -17.551        9.011       13.022        7.163       81.192      169.575       51.306        0.335        0.015       77.999        4.993        0.004      334.791        4.999      861.555
11/30/2014  21:37:00       10.826       59.753      -10.767       13.290       15.036       10.558      176.621      226.083      111.475        0.216        0.026       60.725        7.272        0.014      334.827        5.056      861.562
11/30/2014  21:38:00        7.958       93.436      -13.198       13.457       21.250       15.226      181.099      451.568      231.816        0.492        0.043       93.774       10.439        0.012      334.818        5.043      861.578
11/30/2014  21:39:00      -10.906       76.823       -9.666       17.288       14.332        7.728      298.881      205.411       59.715        0.334        0.028       77.594        4.153        0.003      334.830        5.062      861.598
11/30/2014  21:40:00        8.965       33.732        3.957       11.247       16.898       10.286      126.484      285.549      105.800        0.088        0.026       34.903        8.217        0.055      334.848        5.092      861.621
11/30/2014  21:41:00       29.789       15.931        0.877        8.791       11.386        7.290       77.286      129.632       53.139        0.070        0.013       33.782        3.669        0.012      334.813        5.035      861.629
11/30/2014  21:42:00       40.554        8.044       10.634       17.048       12.593       13.933      290.625      158.576      194.128        0.123        0.032       41.344        7.680        0.035      334.905        5.186      861.626
11/30/2014  21:43:00       70.052       35.971       11.247       19.390       22.729       21.379      375.982      516.595      457.073        0.384        0.067       78.748       11.202        0.020      334.857        5.107      861.619
11/30/2014  21:44:00       82.231       52.659        4.897       19.783       17.353       16.981      391.360      301.130      288.371        0.527        0.049       97.647       10.373        0.011      334.833        5.067      861.613
11/30/2014  21:45:00       75.574       49.217       -4.063       20.468       17.005       16.265      418.949      289.174      264.543        0.456        0.049       90.187        8.843        0.010      334.840        5.078      861.598
11/30/2014  21:46:00       28.887       33.400        7.083       26.239       21.341       19.620      688.489      455.434      384.953        0.176        0.076       44.159       11.237        0.065      334.857        5.107      861.582
11/30/2014  21:47:00       20.645       39.182       -0.978       18.654       19.791       14.344      347.978      391.678      205.744        0.145        0.047       44.288       10.054        0.052      334.847        5.089      861.572
11/30/2014  21:48:00       14.423      101.471      -19.620       11.308       20.621       10.555      127.881      425.220      111.409        0.578        0.033      102.491        8.750        0.007      334.796        5.005      861.553
11/30/2014  21:49:00        1.649      102.797      -17.378       14.196       17.771        8.625      201.532      315.825       74.395        0.573        0.030      102.810        5.823        0.003      334.791        4.996      861.545
11/30/2014  21:50:00       14.105      118.062      -16.072       23.440       18.484       11.508      549.453      341.651      132.424        0.771        0.051      118.902        8.595        0.005      334.791        4.994      861.539
11/30/2014  21:51:00       30.114       80.270       -6.856       23.792       33.918       21.574      566.064     1150.408      465.435        0.479        0.109       85.733       21.202        0.061      334.795        5.003      861.546
11/30/2014  21:52:00       42.218       41.571       10.020       29.500       26.837       18.856      870.222      720.218      355.561        0.278        0.097       59.250       18.211        0.094      334.797        5.008      861.553
11/30/2014  21:53:00       36.705       12.204        1.765       27.395       15.801       13.935      750.475      249.665      194.180        0.135        0.060       38.681        7.603        0.039      334.800        5.013      861.570
11/30/2014  21:54:00       30.552       39.258       -2.237       20.659       26.241       16.407      426.800      688.578      269.202        0.193        0.069       49.746       12.763        0.066      334.807        5.023      861.585
11/30/2014  21:55:00       28.880       49.420       -6.675       14.396       24.165       15.375      207.258      583.964      236.388        0.217        0.051       57.239       17.192        0.090      334.779        4.976      861.593
11/30/2014  21:56:00        7.394       43.215       -0.416       14.514       18.846       13.293      210.657      355.187      176.705        0.133        0.037       43.843       11.858        0.073      334.793        4.997      861.590
11/30/2014  21:57:00       23.806       27.753       -0.410       15.068       19.036       12.767      227.053      362.375      162.991        0.104        0.038       36.565       12.464        0.116      334.799        5.009      861.593
11/30/2014  21:58:00        4.671       45.337       -7.235       11.149       14.790        6.434      124.304      218.744       41.392        0.126        0.019       45.577        7.302        0.026      334.779        4.973      861.614
11/30/2014  21:59:00       15.894       47.786       -5.922        7.623       12.218        6.331       58.115      149.270       40.076        0.141        0.012       50.360        6.123        0.015      334.788        4.993      861.639
11/30/2014  22:00:00       21.724       24.521        0.713       12.353       10.864        9.165      152.605      118.035       84.005        0.071        0.018       32.759        5.880        0.032      334.805        5.022      861.651
11/30/2014  22:01:00       36.773       28.133        2.483       11.574       11.084       11.107      133.954      122.864      123.356        0.126        0.019       46.301        7.265        0.025      334.812        5.034      861.650
11/30/2014  22:02:00       36.308       14.905        6.920       16.486        7.642        8.697      271.781       58.395       75.644        0.100        0.020       39.249        4.486        0.013      334.809        5.029      861.662
11/30/2014  22:03:00       25.844        8.664       -0.149       14.243       13.905       10.360      202.860      193.362      107.323        0.062        0.025       27.258        7.565        0.077      334.846        5.088      861.682
11/30/2014  22:04:00       15.869       14.383        5.669       18.838       13.671       10.744      354.867      186.900      115.438        0.057        0.033       21.417        9.350        0.191      334.878        5.142      861.702
11/30/2014  22:05:00       27.284       14.816        0.621       10.964       10.951        6.490      120.219      119.926       42.120        0.062        0.014       31.047        5.405        0.030      334.835        5.067      861.724
11/30/2014  22:06:00       11.848       10.707        3.458       11.733       10.633        7.591      137.656      113.060       57.625        0.029        0.015       15.969        6.044        0.143      334.848        5.090      861.746
11/30/2014  22:07:00       22.312       14.994        1.090        9.906       12.934       11.809       98.129      167.281      139.463        0.056        0.020       26.882        7.572        0.079      334.854        5.101      861.753
11/30/2014  22:08:00       46.094       27.543        2.670       11.688       10.156        8.181      136.603      103.152       66.925        0.160        0.015       53.696        4.672        0.008      334.839        5.077      861.753
11/30/2014  22:09:00       52.821       33.727        4.492       13.844       13.645       10.194      191.649      186.185      103.926        0.221        0.024       62.670        7.026        0.013      334.836        5.070      861.740
11/30/2014  22:10:00       58.201       33.108       -0.085       13.963       17.664       12.483      194.976      312.008      155.818        0.257        0.033       66.959        1.993        0.001      334.834        5.067      861.726
11/30/2014  22:11:00       49.722       37.175       -8.585       20.823       11.706       13.893      433.617      137.036      193.005        0.235        0.038       62.082        7.104        0.013      334.837        5.073      861.720
11/30/2014  22:12:00       25.197       31.631        2.246       12.484       13.265       14.644      155.853      175.961      214.443        0.109        0.027       40.440        7.467        0.034      334.847        5.090      861.740
11/30/2014  22:13:00       10.054       40.801       -3.625        9.128       14.368       11.063       83.329      206.426      122.401        0.110        0.021       42.022        9.011        0.046      334.829        5.059      861.749
11/30/2014  22:14:00       12.144       48.160       -8.688        6.430        6.703        4.894       41.341       44.925       23.952        0.133        0.006       49.667        2.493        0.003      334.812        5.032      861.770
11/30/2014  22:15:00       14.947       32.841       -1.941       11.561       19.832       11.447      133.646      393.310      131.032        0.098        0.033       36.083       11.558        0.103      334.831        5.063      861.780
11/30/2014  22:16:00       15.174       40.977       -6.800        8.048       14.867        6.983       64.773      221.017       48.759        0.115        0.017       43.696        2.657        0.004      334.816        5.041      861.800
11/30/2014  22:17:00        9.671       17.780        0.485        9.006       10.523        9.159       81.116      110.729       83.888        0.034        0.014       20.240        6.282        0.096      334.838        5.074      861.811
11/30/2014  22:18:00       43.418       29.337        2.998       17.724        9.488        9.292      314.140       90.022       86.342        0.162        0.025       52.400        6.893        0.017      334.851        5.097      861.810
11/30/2014  22:19:00       53.519       42.169        1.767       17.081       13.067       10.283      291.772      170.757      105.736        0.261        0.028       68.136        8.385        0.015      334.871        5.129      861.799
11/30/2014  22:20:00       67.825       44.923       25.342       20.400       20.647       19.471      416.160      426.295      379.128        0.424        0.061       81.353       10.448        0.016      334.868        5.124      861.781
11/30/2014  22:21:00       80.154       37.941        8.471       21.236       13.769       18.006      450.968      189.574      324.222        0.445        0.048       88.680        7.945        0.008      334.824        5.052      861.767
11/30/2014  22:22:00       78.365       42.144        1.484       12.882       13.365       12.267      165.951      178.623      150.469        0.421        0.025       88.979        5.425        0.004      334.804        5.019      861.764
11/30/2014  22:23:00       55.490       28.480        0.765       24.842       23.429       20.200      617.106      548.932      408.052        0.273        0.079       62.372       15.588        0.062      334.821        5.047      861.766
11/30/2014  22:24:00       21.498       22.282        6.387       23.858       16.043       15.484      569.207      257.373      239.756        0.103        0.053       30.962       12.420        0.161      334.822        5.048      861.783
11/30/2014  22:25:00       32.248       52.262       -8.576       15.445       20.333       15.357      238.558      413.440      235.839        0.237        0.044       61.410       10.882        0.031      334.791        4.997      861.803
11/30/2014  22:26:00       23.171       42.132       -8.734       21.936       14.062        9.795      481.188      197.740       95.932        0.158        0.039       48.083        5.603        0.014      334.794        5.003      861.836
11/30/2014  22:27:00       22.568       35.377       -0.151       22.980       19.655       10.788      528.088      386.327      116.376        0.140        0.052       41.963        6.260        0.022      334.801        5.015      861.868
11/30/2014  22:28:00       24.886       41.718        3.464       15.406       28.526       19.721      237.355      813.729      388.931        0.191        0.072       48.577       18.046        0.138      334.807        5.025      861.883
11/30/2014  22:29:00       51.299       37.085        5.467       25.567       18.847       17.156      653.680      355.219      294.344        0.267        0.065       63.300       11.615        0.034      334.798        5.011      861.873
11/30/2014  22:30:00       60.822       54.804        5.030       24.624       17.002       21.495      606.323      289.063      462.035        0.404        0.068       81.871        8.582        0.011      334.792        4.999      861.848
11/30/2014  22:31:00       65.509       58.146        4.518       27.215       25.483       23.585      740.671      649.360      556.258        0.482        0.097       87.592       18.302        0.044      334.800        5.013      861.809
11/30/2014  22:32:00       64.187       47.761       -0.724       26.818       16.543       17.515      719.211      273.673      306.787        0.385        0.065       80.006       11.451        0.020      334.793        5.001      861.795
11/30/2014  22:33:00       64.533       53.451       -1.896       29.180       23.588       16.395      851.488      556.410      268.780        0.435        0.084       83.794        9.941        0.014      334.771        4.961      861.789
11/30/2014  22:34:00       39.776       31.026       12.691       29.864       25.298       18.267      891.842      639.970      333.692        0.229        0.093       50.446       11.314        0.050      334.767        4.958      861.783
11/30/2014  22:35:00       60.157       56.501       10.832       29.844       23.211       24.765      890.667      538.754      613.298        0.449        0.102       82.530       10.667        0.017      334.756        4.937      861.773
11/30/2014  22:36:00       53.754       40.162        1.603       26.614       20.299       19.010      708.323      412.039      361.394        0.299        0.074       67.100       13.797        0.042      334.736        4.908      861.772
11/30/2014  22:37:00       36.837       27.993       11.912       24.534       17.740       16.840      601.896      314.693      283.589        0.174        0.060       46.267        9.643        0.043      334.736        4.907      861.785
11/30/2014  22:38:00       45.427       33.189       10.936       25.920       11.421       14.105      671.831      130.442      198.937        0.214        0.050       56.260       10.091        0.032      334.736        4.905      861.787
11/30/2014  22:39:00       40.008       57.732       -2.294       25.530       27.673       20.616      651.760      765.771      425.026        0.339        0.092       70.240       18.302        0.068      334.725        4.890      861.765
11/30/2014  22:40:00       38.692       48.724        6.519       28.473       26.695       20.854      810.699      712.636      434.891        0.294        0.098       62.219       13.962        0.050      334.727        4.892      861.740
11/30/2014  22:41:00       41.020       60.322        4.390       32.942       39.903       28.037     1085.155     1592.281      786.047        0.440        0.173       72.948       23.653        0.105      334.725        4.888      861.748
11/30/2014  22:42:00       27.261       72.681       -3.731       24.046       42.721       20.302      578.229     1825.078      412.155        0.443        0.141       77.625       21.883        0.079      334.699        4.845      861.793
11/30/2014  22:43:00       18.894       84.689      -15.619       17.327       25.921       10.997      300.231      671.897      120.940        0.443        0.055       86.771       11.054        0.016      334.710        4.862      861.864
11/30/2014  22:44:00       26.057       36.724       -4.446       17.980       25.812       14.457      323.286      666.244      209.002        0.162        0.060       45.029       13.834        0.094      334.714        4.870      861.935
11/30/2014  22:45:00       38.866       29.561        3.037       16.382       18.537       14.300      268.378      343.611      204.480        0.160        0.041       48.830        7.865        0.026      334.730        4.896      861.958
11/30/2014  22:46:00       59.818       44.088        7.421        9.712       10.463       11.804       94.329      109.471      139.327        0.296        0.017       74.310        5.265        0.005      334.729        4.897      861.958
11/30/2014  22:47:00       76.500       43.847        9.042       18.721       11.137       11.024      350.473      124.032      121.525        0.423        0.030       88.175        7.372        0.007      334.740        4.915      861.940
11/30/2014  22:48:00       90.243       45.342        6.295       18.161       21.713       11.615      329.833      471.463      134.914        0.559        0.047      100.993        9.041        0.008      334.750        4.929      861.942
11/30/2014  22:49:00       64.354       26.547       -0.606       18.503       19.034       15.299      342.368      362.297      234.055        0.289        0.047       69.614       13.595        0.038      334.777        4.974      861.967
11/30/2014  22:50:00       68.148       51.520       -1.521       16.061       15.618       11.971      257.941      243.936      143.313        0.397        0.032       85.431        9.637        0.013      334.765        4.953      862.001
11/30/2014  22:51:00       54.374       35.615       -5.729       16.049       15.904       14.819      257.562      252.925      219.604        0.249        0.037       65.000        9.241        0.020      334.786        4.988      862.018
11/30/2014  22:52:00       66.827       36.970        3.330       18.191       20.268       11.892      330.895      410.792      141.419        0.336        0.044       76.371        6.267        0.007      334.828        5.060      862.026
11/30/2014  22:53:00       85.921       42.148       12.868       20.466       17.045       16.041      418.842      290.541      257.313        0.515        0.048       95.703        9.222        0.009      334.779        4.977      862.025
11/30/2014  22:54:00       92.795       41.762        3.393       24.439       26.134       15.382      597.285      682.976      236.600        0.594        0.076      101.759       11.544        0.013      334.778        4.975      862.029
11/30/2014  22:55:00       91.947       51.013       16.907       16.323       16.787       17.055      266.454      281.803      290.861        0.609        0.042      105.150        6.823        0.004      334.795        5.003      862.034
11/30/2014  22:56:00       76.518       32.012        4.224       32.981       21.458       19.770     1087.773      460.462      390.865        0.442        0.097       82.945       14.407        0.030      334.787        4.991      862.034
11/30/2014  22:57:00       90.307       50.229        1.602       31.080       25.558       19.062      965.972      653.203      363.369        0.633        0.099      103.336       15.055        0.021      334.804        5.018      862.036
11/30/2014  22:58:00       51.633       42.042       31.995       29.938       35.214       23.460      896.313     1240.022      550.386        0.407        0.134       66.584       11.993        0.032      334.792        4.999      862.036
11/30/2014  22:59:00       95.945       54.281       16.899       23.181       21.431       18.077      537.342      459.281      326.773        0.688        0.066      110.236        3.949        0.001      334.747        4.926      862.036
11/30/2014  23:00:00       59.030       50.811       11.008       34.461       29.486       24.357     1187.590      869.418      593.262        0.442        0.133       77.886       18.238        0.055      334.763        4.950      862.032
11/30/2014  23:01:00       34.049       44.803        0.060       27.391       33.982       25.749      750.286     1154.783      662.996        0.287        0.128       56.273       23.824        0.179      334.767        4.957      862.037
11/30/2014  23:02:00       40.059       49.571       -1.363       19.091       27.944       20.121      364.454      780.868      404.835        0.281        0.078       63.734       19.809        0.097      334.756        4.939      862.050
11/30/2014  23:03:00       42.685       41.361        7.712       19.174       23.502       23.111      367.660      552.367      534.127        0.252        0.073       59.437       17.255        0.084      334.756        4.940      862.060
11/30/2014  23:04:00       79.587       43.397        9.659       13.721       13.856       11.927      188.270      192.002      142.252        0.442        0.026       90.650        7.123        0.006      334.747        4.927      862.081
11/30/2014  23:05:00       34.828       28.571       10.825       23.948       24.891       15.177      573.507      619.585      230.343        0.178        0.071       45.048       10.112        0.050      334.800        5.013      862.095
11/30/2014  23:06:00       27.038       46.208       -2.207       17.327       16.466       13.272      300.211      271.143      176.148        0.181        0.037       53.537        9.539        0.032      334.761        4.946      862.098
11/30/2014  23:07:00       45.492       25.360        7.896       15.515       17.326       15.464      240.709      300.177      239.142        0.178        0.039       52.083        9.937        0.036      334.808        5.028      862.101
11/30/2014  23:08:00       77.749       40.983        4.536       21.955       18.265       16.964      482.005      333.613      287.775        0.442        0.055       87.889        7.535        0.007      334.762        4.949      862.091
11/30/2014  23:09:00       76.512       23.796        2.970       38.543       24.263       18.969     1485.553      588.690      359.809        0.443        0.122       80.127       14.773        0.034      334.773        4.967      862.091
11/30/2014  23:10:00       61.150       32.938        0.485       27.731       22.651       19.799      769.020      513.067      392.014        0.325        0.084       69.456        6.241        0.008      334.846        5.090      862.098
11/30/2014  23:11:00       65.150       36.593       15.270       23.652       17.424       22.420      559.407      303.592      502.638        0.359        0.068       74.724       15.704        0.044      334.808        5.025      862.114
11/30/2014  23:12:00       63.529       43.725        6.427       14.249       10.617       11.189      203.034      112.718      125.187        0.321        0.022       77.122        4.251        0.003      334.758        4.942      862.127
11/30/2014  23:13:00       72.981       29.932       -5.845       18.423       16.851       13.040      339.402      283.958      170.048        0.352        0.040       78.880        9.990        0.016      334.761        4.948      862.131
11/30/2014  23:14:00       51.184       22.093       -3.540       23.907       20.392       16.355      571.541      415.854      267.500        0.219        0.063       55.748       10.481        0.035      334.767        4.956      862.132
11/30/2014  23:15:00       37.888       44.507       -7.658       26.459       29.252       13.090      700.083      855.685      171.349        0.260        0.086       58.450        5.511        0.009      334.770        4.961      862.134
11/30/2014  23:16:00       60.591       51.368        2.959       26.967       18.428       22.810      727.210      339.577      520.277        0.395        0.079       79.435       16.284        0.042      334.749        4.928      862.144
11/30/2014  23:17:00       43.221       26.858       -0.387       19.120       17.492       14.035      365.567      305.972      196.980        0.173        0.043       50.886        8.911        0.031      334.740        4.915      862.158
11/30/2014  23:18:00       37.814       31.782        4.493       14.953       12.947        9.872      223.604      167.626       97.461        0.147        0.024       49.397        6.426        0.017      334.733        4.903      862.170
11/30/2014  23:19:00       30.485       14.994        0.928       20.915        8.506        7.855      437.447       72.361       61.698        0.086        0.029       33.972        6.524        0.037      334.750        4.930      862.182
11/30/2014  23:20:00       53.607       36.571        2.345       17.956       28.979       13.923      322.436      839.770      193.862        0.279        0.068       64.893       10.720        0.027      334.801        5.014      862.195
11/30/2014  23:21:00       64.768       56.371        0.492       32.323       14.820       20.221     1044.782      219.636      408.877        0.452        0.084       85.864       15.863        0.034      334.782        4.981      862.202
11/30/2014  23:22:00       28.342       31.049       -0.423       28.026       20.130       15.958      785.465      405.202      254.663        0.161        0.072       42.040       10.482        0.062      334.795        5.006      862.205
11/30/2014  23:23:00       66.439       44.333        7.416       23.834       21.831       26.092      568.076      476.609      680.778        0.408        0.086       79.872       12.377        0.024      334.785        4.987      862.211
11/30/2014  23:24:00       55.028       47.504        8.629       16.375       16.397       15.663      268.137      268.848      245.323        0.307        0.039       72.696        8.496        0.014      334.766        4.955      862.226
11/30/2014  23:25:00       51.924       30.687       10.039       22.731       15.630       13.991      516.706      244.298      195.756        0.235        0.048       60.314        8.090        0.018      334.775        4.968      862.246
11/30/2014  23:26:00       56.690       31.985        9.466       29.280       14.909       20.045      857.327      222.287      401.786        0.290        0.074       65.090       16.821        0.067      334.835        5.071      862.258
11/30/2014  23:27:00       86.050       44.705       18.500       15.443       18.592       17.163      238.496      345.680      294.578        0.531        0.044       96.970       11.717        0.015      334.819        5.042      862.269
11/30/2014  23:28:00       35.063       60.004       45.393       30.713       21.547       34.490      943.290      464.295     1189.581        0.474        0.130       69.498       25.069        0.130      334.826        5.056      862.285
11/30/2014  23:29:00       35.956       49.524       40.881       25.302       15.132       21.900      640.193      228.972      479.614        0.338        0.067       61.200       18.811        0.094      334.811        5.028      862.307
11/30/2014  23:30:00      -10.171       56.200       80.996       14.336       29.482       17.550      205.510      869.188      308.013        0.560        0.069       57.113       15.545        0.074      334.947        5.257      862.314
11/30/2014  23:31:00       14.237       34.468       35.220       22.430       25.353       24.816      503.085      642.759      615.836        0.220        0.088       37.293       15.732        0.178      334.913        5.200      862.310
11/30/2014  23:32:00       53.918       50.925       37.675       30.164       20.503       28.775      909.896      420.383      828.014        0.454        0.108       74.166       18.220        0.060      334.813        5.033      862.295
11/30/2014  23:33:00       74.231       53.776       15.329       15.434       18.531       17.816      238.204      343.391      317.395        0.477        0.045       91.663        9.720        0.011      334.795        5.003      862.264
11/30/2014  23:34:00       87.148       45.210        8.351       17.780       17.935       16.712      316.132      321.680      279.283        0.531        0.046       98.177       10.262        0.011      334.783        4.982      862.253
11/30/2014  23:35:00      107.400       56.539        0.418       26.094       22.039       20.926      680.894      485.728      437.911        0.817        0.080      121.373        9.357        0.006      334.774        4.971      862.234
11/30/2014  23:36:00       87.597       48.032        7.446       27.978       24.453       22.871      782.780      597.958      523.077        0.597        0.095       99.901       13.976        0.020      334.781        4.981      862.242
11/30/2014  23:37:00       71.028       49.648       12.981       15.923       19.372       20.480      253.554      375.279      419.425        0.436        0.052       86.660        9.853        0.013      334.766        4.956      862.272
11/30/2014  23:38:00       71.519       33.272        7.985       21.276       19.016       14.446      452.666      361.620      208.687        0.365        0.051       78.880        7.692        0.010      334.756        4.940      862.298
11/30/2014  23:39:00       60.101       40.375        9.316       17.885        9.581       12.732      319.884       91.789      162.115        0.295        0.029       72.404        9.280        0.016      334.755        4.938      862.311
11/30/2014  23:40:00       45.746       24.862       12.595       17.122       13.588       12.561      293.180      184.621      157.777        0.175        0.032       52.066        4.163        0.006      334.767        4.957      862.314
11/30/2014  23:41:00       68.214       34.806        0.600       13.219       13.674       14.707      174.745      186.978      216.307        0.322        0.029       76.581        7.283        0.009      334.787        4.990      862.314
11/30/2014  23:42:00       88.786       62.390        3.653       19.347       15.183       15.170      374.307      230.523      230.132        0.631        0.042      108.515       12.035        0.012      334.775        4.971      862.289
11/30/2014  23:43:00       96.609       65.267        4.875       24.046       27.836       20.939      578.225      774.822      438.425        0.770        0.090      116.590       17.601        0.023      334.788        4.992      862.265
11/30/2014  23:44:00      133.282       74.524        6.355       15.341       16.713       24.167      235.357      279.339      584.039        1.223        0.055      152.702       11.274        0.005      334.757        4.939      862.263
11/30/2014  23:45:00      102.130       48.389        6.422       25.853       19.963       21.893      668.398      398.510      479.284        0.718        0.077      113.014       12.411        0.012      334.757        4.941      862.295
11/30/2014  23:46:00       48.133       10.561        1.096       27.713       32.934       18.291      768.017     1084.672      334.560        0.231        0.109       49.278       14.622        0.088      334.784        4.986      862.334
11/30/2014  23:47:00       52.515       31.850       11.802       21.299       14.862       16.706      453.652      220.867      279.088        0.243        0.048       61.418       12.510        0.041      334.782        4.981      862.359
11/30/2014  23:48:00       41.860       30.306       14.162       15.819       12.379       14.761      250.234      153.251      217.873        0.175        0.031       51.679        8.707        0.028      334.789        4.993      862.377
11/30/2014  23:49:00       52.005       32.395       14.955       20.375       11.428       21.740      415.148      130.593      472.630        0.250        0.051       61.270       17.090        0.078      334.791        4.994      862.386
11/30/2014  23:50:00       56.368       55.928       22.678       18.144       15.617       24.426      329.194      243.900      596.624        0.399        0.058       79.406        8.642        0.012      334.887        5.154      862.385
11/30/2014  23:51:00       68.798       64.656       28.397       18.097       18.926       24.889      327.495      358.186      619.456        0.551        0.065       94.412       13.805        0.021      334.870        5.129      862.367
11/30/2014  23:52:00       83.950       56.095       12.552       25.265       19.338       21.120      638.311      373.952      446.051        0.590        0.073      100.967       12.041        0.014      334.806        5.021      862.348
11/30/2014  23:53:00       88.731       62.761       30.836       28.783       24.819       28.685      828.449      615.968      822.826        0.751        0.113      108.684       17.241        0.025      334.842        5.081      862.339
11/30/2014  23:54:00       58.889       71.642       53.666       23.217       21.544       23.115      539.030      464.125      534.309        0.651        0.077       92.739       13.491        0.021      334.825        5.052      862.354
11/30/2014  23:55:00       27.112       50.743       57.870       28.011       20.752       17.263      784.637      430.665      297.999        0.409        0.076       57.532       16.429        0.082      334.852        5.098      862.379
11/30/2014  23:56:00       59.544       55.411       45.629       34.035       27.886       35.064     1158.398      777.612     1229.504        0.593        0.158       81.338       29.145        0.128      334.825        5.054      862.399
11/30/2014  23:57:00       57.507       35.871       23.973       42.236       35.599       29.904     1783.888     1267.316      894.260        0.456        0.197       67.777       22.030        0.106      334.815        5.039      862.406
11/30/2014  23:58:00       79.011       49.096       33.652       46.348       21.687       25.081     2148.094      470.337      629.058        0.652        0.162       93.022       23.109        0.062      334.817        5.040      862.390
11/30/2014  23:59:00       99.226       59.872       17.491       29.375       21.942       21.882      862.866      481.439      478.826        0.778        0.091      115.890       19.027        0.027      334.790        4.995      862.375
